<?xml version='1.0' encoding='UTF-8'?><gpx version="1.1" creator="JPX - https://github.com/jenetics/jpx" xmlns="http://www.topografix.com/GPX/1/1"><trk><trkseg><trkpt lat="44.87488516641825" lon="8.280687621757723"><ele>111.0</ele><time>2026-04-06T16:02:28Z</time></trkpt><trkpt lat="44.874808288982585" lon="8.280807959169616"><ele>111.0</ele><time>2026-04-06T16:03:08Z</time></trkpt><trkpt lat="44.87474418525057" lon="8.280914130822728"><ele>111.0</ele><time>2026-04-06T16:03:10Z</time></trkpt><trkpt lat="44.874732353317825" lon="8.28103363945097"><ele>111.0</ele><time>2026-04-06T16:03:12Z</time></trkpt><trkpt lat="44.874848630627746" lon="8.28112939854086"><ele>111.0</ele><time>2026-04-06T16:03:14Z</time></trkpt><trkpt lat="44.8749464774815" lon="8.281141916627167"><ele>111.0</ele><time>2026-04-06T16:03:15Z</time></trkpt><trkpt lat="44.87505877787712" lon="8.28113386111758"><ele>111.0</ele><time>2026-04-06T16:03:16Z</time></trkpt><trkpt lat="44.87518330928768" lon="8.281120509456093"><ele>111.0</ele><time>2026-04-06T16:03:17Z</time></trkpt><trkpt lat="44.875283402479965" lon="8.281122118060336"><ele>111.0</ele><time>2026-04-06T16:03:18Z</time></trkpt><trkpt lat="44.87537487567629" lon="8.281114161167253"><ele>111.0</ele><time>2026-04-06T16:03:19Z</time></trkpt><trkpt lat="44.87545976706533" lon="8.281125715970663"><ele>110.83333333333333</ele><time>2026-04-06T16:03:20Z</time></trkpt><trkpt lat="44.875541994269966" lon="8.281157188219238"><ele>110.66666666666666</ele><time>2026-04-06T16:03:21Z</time></trkpt><trkpt lat="44.875609738719085" lon="8.2812123105993"><ele>110.5</ele><time>2026-04-06T16:03:22Z</time></trkpt><trkpt lat="44.87566418104448" lon="8.281282527028603"><ele>110.33333333333333</ele><time>2026-04-06T16:03:23Z</time></trkpt><trkpt lat="44.8757093222222" lon="8.281364706833841"><ele>110.16666666666666</ele><time>2026-04-06T16:03:24Z</time></trkpt><trkpt lat="44.87575285612965" lon="8.28143847264049"><ele>110.0</ele><time>2026-04-06T16:03:25Z</time></trkpt><trkpt lat="44.875814131108434" lon="8.281577190539544"><ele>109.49999999999999</ele><time>2026-04-06T16:03:27Z</time></trkpt><trkpt lat="44.87586635145955" lon="8.281688040220564"><ele>109.0</ele><time>2026-04-06T16:03:29Z</time></trkpt><trkpt lat="44.875907728181026" lon="8.281755207576841"><ele>108.5</ele><time>2026-04-06T16:04:00.999Z</time></trkpt><trkpt lat="44.87593640433004" lon="8.281850415488996"><ele>108.0</ele><time>2026-04-06T16:04:01.999Z</time></trkpt><trkpt lat="44.87594804415293" lon="8.281980574962374"><ele>107.49999999999999</ele><time>2026-04-06T16:04:02.999Z</time></trkpt><trkpt lat="44.87595370995695" lon="8.282133309542473"><ele>107.0</ele><time>2026-04-06T16:04:03.999Z</time></trkpt><trkpt lat="44.875952172021414" lon="8.282294092099947"><ele>107.0</ele><time>2026-04-06T16:04:04.999Z</time></trkpt><trkpt lat="44.87595179821502" lon="8.282466869765653"><ele>107.0</ele><time>2026-04-06T16:04:05.999Z</time></trkpt><trkpt lat="44.87595744020834" lon="8.282654651168139"><ele>107.0</ele><time>2026-04-06T16:04:06.999Z</time></trkpt><trkpt lat="44.87596781889758" lon="8.282818493000356"><ele>107.0</ele><time>2026-04-06T16:04:07.999Z</time></trkpt><trkpt lat="44.87597545585824" lon="8.282980263113709"><ele>106.6</ele><time>2026-04-06T16:04:08.999Z</time></trkpt><trkpt lat="44.87598185213079" lon="8.283141387275256"><ele>106.19999999999999</ele><time>2026-04-06T16:04:10Z</time></trkpt><trkpt lat="44.8759869269519" lon="8.283299024972232"><ele>105.8</ele><time>2026-04-06T16:04:11Z</time></trkpt><trkpt lat="44.875998630887366" lon="8.283454156254248"><ele>105.4</ele><time>2026-04-06T16:04:12Z</time></trkpt><trkpt lat="44.87601265383462" lon="8.283605848005822"><ele>105.0</ele><time>2026-04-06T16:04:13Z</time></trkpt><trkpt lat="44.876029031988516" lon="8.283756038503348"><ele>105.0</ele><time>2026-04-06T16:04:14Z</time></trkpt><trkpt lat="44.87604980778038" lon="8.283911960615779"><ele>105.0</ele><time>2026-04-06T16:04:15Z</time></trkpt><trkpt lat="44.87607293529416" lon="8.284063938203245"><ele>105.0</ele><time>2026-04-06T16:04:16Z</time></trkpt><trkpt lat="44.87609697965775" lon="8.284215986429304"><ele>105.0</ele><time>2026-04-06T16:04:17Z</time></trkpt><trkpt lat="44.87612159054579" lon="8.284366057158218"><ele>105.0</ele><time>2026-04-06T16:04:18Z</time></trkpt><trkpt lat="44.87614680239259" lon="8.28451690026942"><ele>105.0</ele><time>2026-04-06T16:04:19Z</time></trkpt><trkpt lat="44.87617479975635" lon="8.284667221241431"><ele>105.0</ele><time>2026-04-06T16:04:20Z</time></trkpt><trkpt lat="44.8762030185303" lon="8.284816983603672"><ele>105.0</ele><time>2026-04-06T16:04:21Z</time></trkpt><trkpt lat="44.87623051836617" lon="8.284963677825411"><ele>105.0</ele><time>2026-04-06T16:04:22Z</time></trkpt><trkpt lat="44.87625791988517" lon="8.285111546402447"><ele>105.0</ele><time>2026-04-06T16:04:23Z</time></trkpt><trkpt lat="44.87628578123238" lon="8.285256643390799"><ele>105.0</ele><time>2026-04-06T16:04:24Z</time></trkpt><trkpt lat="44.876315016688864" lon="8.285403734511133"><ele>105.0</ele><time>2026-04-06T16:04:25Z</time></trkpt><trkpt lat="44.876339812194985" lon="8.285554391561003"><ele>105.0</ele><time>2026-04-06T16:04:26Z</time></trkpt><trkpt lat="44.87636451099326" lon="8.285712332769444"><ele>105.0</ele><time>2026-04-06T16:04:27Z</time></trkpt><trkpt lat="44.87637964982184" lon="8.285878302152256"><ele>105.0</ele><time>2026-04-06T16:04:28Z</time></trkpt><trkpt lat="44.876384083260334" lon="8.286050278322456"><ele>105.0</ele><time>2026-04-06T16:04:29Z</time></trkpt><trkpt lat="44.87638275805367" lon="8.286223500205356"><ele>105.0</ele><time>2026-04-06T16:04:30Z</time></trkpt><trkpt lat="44.876390344922136" lon="8.286396615338672"><ele>105.0</ele><time>2026-04-06T16:04:31Z</time></trkpt><trkpt lat="44.87639926184343" lon="8.286573349233779"><ele>105.5</ele><time>2026-04-06T16:04:32Z</time></trkpt><trkpt lat="44.87641364244461" lon="8.286750170606032"><ele>106.0</ele><time>2026-04-06T16:04:33Z</time></trkpt><trkpt lat="44.87643131109834" lon="8.286927937725093"><ele>106.5</ele><time>2026-04-06T16:04:34Z</time></trkpt><trkpt lat="44.87645280806475" lon="8.287107323415064"><ele>107.0</ele><time>2026-04-06T16:04:35Z</time></trkpt><trkpt lat="44.8764792401143" lon="8.287281703927107"><ele>107.25</ele><time>2026-04-06T16:04:36Z</time></trkpt><trkpt lat="44.87651144559672" lon="8.28745278270873"><ele>107.5</ele><time>2026-04-06T16:04:37Z</time></trkpt><trkpt lat="44.87655201406538" lon="8.287618099011084"><ele>107.75</ele><time>2026-04-06T16:04:38Z</time></trkpt><trkpt lat="44.87660099964353" lon="8.287783080263269"><ele>108.0</ele><time>2026-04-06T16:04:39Z</time></trkpt><trkpt lat="44.87665529302791" lon="8.287958111295016"><ele>108.0</ele><time>2026-04-06T16:04:40Z</time></trkpt><trkpt lat="44.876713772487456" lon="8.288133070772316"><ele>108.0</ele><time>2026-04-06T16:04:41Z</time></trkpt><trkpt lat="44.87676887210668" lon="8.288309549414624"><ele>108.0</ele><time>2026-04-06T16:04:42Z</time></trkpt><trkpt lat="44.87683129365538" lon="8.288478035052352"><ele>108.0</ele><time>2026-04-06T16:04:43Z</time></trkpt><trkpt lat="44.87688983128522" lon="8.288644597859557"><ele>108.0</ele><time>2026-04-06T16:04:44Z</time></trkpt><trkpt lat="44.87694904860875" lon="8.288801462787468"><ele>108.0</ele><time>2026-04-06T16:04:45Z</time></trkpt><trkpt lat="44.87699969185657" lon="8.2889559621358"><ele>108.0</ele><time>2026-04-06T16:04:46Z</time></trkpt><trkpt lat="44.877035940380374" lon="8.289117414475013"><ele>108.0</ele><time>2026-04-06T16:04:47Z</time></trkpt><trkpt lat="44.877060110657666" lon="8.289290518694234"><ele>108.0</ele><time>2026-04-06T16:04:48Z</time></trkpt><trkpt lat="44.877077804255215" lon="8.289476167542393"><ele>108.0</ele><time>2026-04-06T16:04:49Z</time></trkpt><trkpt lat="44.87709419874912" lon="8.289666726017497"><ele>108.0</ele><time>2026-04-06T16:04:50Z</time></trkpt><trkpt lat="44.877114989142484" lon="8.28986017334721"><ele>108.0</ele><time>2026-04-06T16:04:51Z</time></trkpt><trkpt lat="44.87713327458811" lon="8.290059788364669"><ele>107.5</ele><time>2026-04-06T16:04:52Z</time></trkpt><trkpt lat="44.87715198998869" lon="8.29026463188133"><ele>107.0</ele><time>2026-04-06T16:04:53Z</time></trkpt><trkpt lat="44.87716876469388" lon="8.290463110986822"><ele>106.5</ele><time>2026-04-06T16:04:54Z</time></trkpt><trkpt lat="44.877182859374365" lon="8.290663871372471"><ele>106.0</ele><time>2026-04-06T16:04:55Z</time></trkpt><trkpt lat="44.87719515929863" lon="8.29086345585691"><ele>106.0</ele><time>2026-04-06T16:04:56Z</time></trkpt><trkpt lat="44.87720750600863" lon="8.291058611235986"><ele>106.0</ele><time>2026-04-06T16:04:57Z</time></trkpt><trkpt lat="44.87722174728738" lon="8.291248034228602"><ele>106.0</ele><time>2026-04-06T16:04:58Z</time></trkpt><trkpt lat="44.877244394781805" lon="8.2914326084238"><ele>106.0</ele><time>2026-04-06T16:04:59Z</time></trkpt><trkpt lat="44.87727765364749" lon="8.291611817508587"><ele>106.0</ele><time>2026-04-06T16:05:00Z</time></trkpt><trkpt lat="44.87732209814461" lon="8.29177990002211"><ele>106.0</ele><time>2026-04-06T16:05:01Z</time></trkpt><trkpt lat="44.87736495543417" lon="8.291929904886235"><ele>106.0</ele><time>2026-04-06T16:05:02Z</time></trkpt><trkpt lat="44.87740280149877" lon="8.292067275999198"><ele>106.0</ele><time>2026-04-06T16:05:03Z</time></trkpt><trkpt lat="44.87743110623417" lon="8.292198646335923"><ele>106.0</ele><time>2026-04-06T16:05:04Z</time></trkpt><trkpt lat="44.877453690594685" lon="8.292322366040782"><ele>106.00000000000001</ele><time>2026-04-06T16:05:05Z</time></trkpt><trkpt lat="44.87746500754044" lon="8.292430989060387"><ele>106.0</ele><time>2026-04-06T16:05:06Z</time></trkpt><trkpt lat="44.877452692118375" lon="8.292536134884536"><ele>106.0</ele><time>2026-04-06T16:05:07Z</time></trkpt><trkpt lat="44.87740557381509" lon="8.292639836059065"><ele>106.0</ele><time>2026-04-06T16:05:08Z</time></trkpt><trkpt lat="44.8773337700483" lon="8.29271477267128"><ele>106.00000000000001</ele><time>2026-04-06T16:05:09Z</time></trkpt><trkpt lat="44.877240817103086" lon="8.292781596130133"><ele>106.0</ele><time>2026-04-06T16:05:10Z</time></trkpt><trkpt lat="44.877139876532254" lon="8.292852921040998"><ele>106.0</ele><time>2026-04-06T16:05:11Z</time></trkpt><trkpt lat="44.87703693535296" lon="8.292938013640835"><ele>106.0</ele><time>2026-04-06T16:05:12Z</time></trkpt><trkpt lat="44.87692624808538" lon="8.293034627541761"><ele>106.0</ele><time>2026-04-06T16:05:13Z</time></trkpt><trkpt lat="44.87681460741704" lon="8.293136148407122"><ele>106.0</ele><time>2026-04-06T16:05:14Z</time></trkpt><trkpt lat="44.87669682769524" lon="8.293242211122468"><ele>106.0</ele><time>2026-04-06T16:05:15Z</time></trkpt><trkpt lat="44.87656688728757" lon="8.293347811859661"><ele>106.0</ele><time>2026-04-06T16:05:16Z</time></trkpt><trkpt lat="44.87644859742934" lon="8.293432885801167"><ele>106.0</ele><time>2026-04-06T16:05:17Z</time></trkpt><trkpt lat="44.8763505886673" lon="8.293505825742603"><ele>106.0</ele><time>2026-04-06T16:05:18Z</time></trkpt><trkpt lat="44.87627251293286" lon="8.29357091394404"><ele>106.00000000000001</ele><time>2026-04-06T16:05:19Z</time></trkpt><trkpt lat="44.876215351444316" lon="8.293631162985868"><ele>106.0</ele><time>2026-04-06T16:05:20Z</time></trkpt><trkpt lat="44.87617420629387" lon="8.293708418900774"><ele>106.0</ele><time>2026-04-06T16:05:21Z</time></trkpt><trkpt lat="44.876161419435405" lon="8.293814694362723"><ele>106.0</ele><time>2026-04-06T16:05:22Z</time></trkpt><trkpt lat="44.8761673286765" lon="8.293943391938898"><ele>106.00000000000001</ele><time>2026-04-06T16:05:23Z</time></trkpt><trkpt lat="44.8761926774104" lon="8.29410401064153"><ele>106.0</ele><time>2026-04-06T16:05:24Z</time></trkpt><trkpt lat="44.87622783012909" lon="8.294288006544727"><ele>106.0</ele><time>2026-04-06T16:05:25Z</time></trkpt><trkpt lat="44.87627313674243" lon="8.294476200565905"><ele>106.0</ele><time>2026-04-06T16:05:26Z</time></trkpt><trkpt lat="44.87632110291491" lon="8.294675908896696"><ele>106.0</ele><time>2026-04-06T16:05:27Z</time></trkpt><trkpt lat="44.87637320921656" lon="8.294896585255868"><ele>106.25</ele><time>2026-04-06T16:05:28Z</time></trkpt><trkpt lat="44.87641779444575" lon="8.295101142985857"><ele>106.5</ele><time>2026-04-06T16:05:29Z</time></trkpt><trkpt lat="44.876455742393034" lon="8.29527068401516"><ele>106.75</ele><time>2026-04-06T16:05:30Z</time></trkpt><trkpt lat="44.87649055823498" lon="8.2954289664636"><ele>107.0</ele><time>2026-04-06T16:05:31Z</time></trkpt><trkpt lat="44.87651959736896" lon="8.29556990070965"><ele>107.0</ele><time>2026-04-06T16:05:32Z</time></trkpt><trkpt lat="44.87654256925058" lon="8.295685220776669"><ele>106.99999999999999</ele><time>2026-04-06T16:05:33Z</time></trkpt><trkpt lat="44.87653857127003" lon="8.295834165675764"><ele>106.99999999999999</ele><time>2026-04-06T16:05:35Z</time></trkpt><trkpt lat="44.87648486625425" lon="8.295888365384673"><ele>107.0</ele><time>2026-04-06T16:05:36Z</time></trkpt><trkpt lat="44.876384962921534" lon="8.295921945403432"><ele>107.0</ele><time>2026-04-06T16:05:37Z</time></trkpt><trkpt lat="44.87627881788621" lon="8.295959172874838"><ele>107.0</ele><time>2026-04-06T16:05:38Z</time></trkpt><trkpt lat="44.8761682771741" lon="8.295993328130493"><ele>107.0</ele><time>2026-04-06T16:05:39Z</time></trkpt><trkpt lat="44.87603365540703" lon="8.29603622331416"><ele>107.0</ele><time>2026-04-06T16:05:40Z</time></trkpt><trkpt lat="44.87589984404968" lon="8.296085254895486"><ele>107.0</ele><time>2026-04-06T16:05:41Z</time></trkpt><trkpt lat="44.87575505686199" lon="8.296146893103627"><ele>109.25</ele><time>2026-04-06T16:05:42Z</time></trkpt><trkpt lat="44.87561116265432" lon="8.296210559757103"><ele>111.5</ele><time>2026-04-06T16:05:43Z</time></trkpt><trkpt lat="44.87548402975412" lon="8.296270972888207"><ele>113.75</ele><time>2026-04-06T16:05:44Z</time></trkpt><trkpt lat="44.87535563383468" lon="8.296333537872451"><ele>116.0</ele><time>2026-04-06T16:05:45Z</time></trkpt><trkpt lat="44.875237366773156" lon="8.296386454683992"><ele>115.75</ele><time>2026-04-06T16:05:46Z</time></trkpt><trkpt lat="44.875121352305264" lon="8.296433634527025"><ele>115.5</ele><time>2026-04-06T16:05:47Z</time></trkpt><trkpt lat="44.875008918380274" lon="8.296473271986349"><ele>115.25</ele><time>2026-04-06T16:05:48Z</time></trkpt><trkpt lat="44.87489663270179" lon="8.296506620336162"><ele>115.0</ele><time>2026-04-06T16:05:49Z</time></trkpt><trkpt lat="44.87479981928068" lon="8.296536368283874"><ele>115.00000000000001</ele><time>2026-04-06T16:05:50Z</time></trkpt><trkpt lat="44.8747233296835" lon="8.296558385177997"><ele>115.0</ele><time>2026-04-06T16:05:51Z</time></trkpt><trkpt lat="44.874664620473396" lon="8.296590895123632"><ele>115.0</ele><time>2026-04-06T16:05:52Z</time></trkpt><trkpt lat="44.874620229018035" lon="8.296656645696247"><ele>115.0</ele><time>2026-04-06T16:05:53Z</time></trkpt><trkpt lat="44.87459732998401" lon="8.296761591258987"><ele>115.00000000000001</ele><time>2026-04-06T16:05:53.999Z</time></trkpt><trkpt lat="44.87459377838855" lon="8.296888344316134"><ele>115.0</ele><time>2026-04-06T16:05:54.999Z</time></trkpt><trkpt lat="44.87460578981228" lon="8.297037971209594"><ele>115.0</ele><time>2026-04-06T16:05:55.999Z</time></trkpt><trkpt lat="44.874623633458704" lon="8.297198547600589"><ele>115.0</ele><time>2026-04-06T16:05:56.999Z</time></trkpt><trkpt lat="44.87463727515332" lon="8.297372290804818"><ele>115.0</ele><time>2026-04-06T16:05:57.999Z</time></trkpt><trkpt lat="44.874644366005114" lon="8.297538312959874"><ele>115.0</ele><time>2026-04-06T16:05:58.999Z</time></trkpt><trkpt lat="44.87466024354614" lon="8.297696315737808"><ele>113.5</ele><time>2026-04-06T16:05:59.999Z</time></trkpt><trkpt lat="44.874692027093076" lon="8.297866184854625"><ele>112.0</ele><time>2026-04-06T16:06:00.999Z</time></trkpt><trkpt lat="44.87474032207213" lon="8.29803919993084"><ele>110.5</ele><time>2026-04-06T16:06:01.999Z</time></trkpt><trkpt lat="44.87479150875694" lon="8.298216049932279"><ele>109.0</ele><time>2026-04-06T16:06:02.999Z</time></trkpt><trkpt lat="44.874849034801834" lon="8.298396713359294"><ele>108.5</ele><time>2026-04-06T16:06:03.999Z</time></trkpt><trkpt lat="44.87490505962508" lon="8.298581550671846"><ele>108.0</ele><time>2026-04-06T16:06:04.999Z</time></trkpt><trkpt lat="44.874968258786645" lon="8.29876880536648"><ele>107.5</ele><time>2026-04-06T16:06:05.999Z</time></trkpt><trkpt lat="44.87503708332281" lon="8.298957482198922"><ele>107.0</ele><time>2026-04-06T16:06:06.999Z</time></trkpt><trkpt lat="44.875102976171426" lon="8.299151644506635"><ele>107.0</ele><time>2026-04-06T16:06:07.999Z</time></trkpt><trkpt lat="44.875170361503336" lon="8.299346350776117"><ele>107.0</ele><time>2026-04-06T16:06:08.999Z</time></trkpt><trkpt lat="44.875240295417505" lon="8.299540392524422"><ele>107.0</ele><time>2026-04-06T16:06:09.999Z</time></trkpt><trkpt lat="44.87531349877909" lon="8.299730734865955"><ele>107.0</ele><time>2026-04-06T16:06:10.999Z</time></trkpt><trkpt lat="44.87538566436172" lon="8.299922797142056"><ele>107.0</ele><time>2026-04-06T16:06:11.999Z</time></trkpt><trkpt lat="44.87545831888658" lon="8.300120557637914"><ele>107.0</ele><time>2026-04-06T16:06:12.999Z</time></trkpt><trkpt lat="44.875528266496666" lon="8.300320236433906"><ele>107.0</ele><time>2026-04-06T16:06:13.999Z</time></trkpt><trkpt lat="44.8755969689087" lon="8.300518667719201"><ele>107.0</ele><time>2026-04-06T16:06:14.999Z</time></trkpt><trkpt lat="44.87566388071112" lon="8.30071349137747"><ele>107.0</ele><time>2026-04-06T16:06:15.999Z</time></trkpt><trkpt lat="44.875732629234115" lon="8.300907746055323"><ele>107.0</ele><time>2026-04-06T16:06:16.999Z</time></trkpt><trkpt lat="44.875799263125565" lon="8.301098587971687"><ele>107.0</ele><time>2026-04-06T16:06:17.999Z</time></trkpt><trkpt lat="44.875864252525076" lon="8.301288495588496"><ele>107.0</ele><time>2026-04-06T16:06:18.999Z</time></trkpt><trkpt lat="44.87592978828594" lon="8.301475867838315"><ele>107.0</ele><time>2026-04-06T16:06:19.999Z</time></trkpt><trkpt lat="44.875993056676016" lon="8.301663803699107"><ele>107.0</ele><time>2026-04-06T16:06:20.999Z</time></trkpt><trkpt lat="44.876058877486884" lon="8.301852135124168"><ele>107.0</ele><time>2026-04-06T16:06:21.999Z</time></trkpt><trkpt lat="44.876127571062995" lon="8.302044048478637"><ele>107.0</ele><time>2026-04-06T16:06:22.999Z</time></trkpt><trkpt lat="44.87619761657913" lon="8.302233452177234"><ele>107.33333333333333</ele><time>2026-04-06T16:06:23.999Z</time></trkpt><trkpt lat="44.876270069454236" lon="8.302417055727972"><ele>107.66666666666666</ele><time>2026-04-06T16:06:24.999Z</time></trkpt><trkpt lat="44.8763491629804" lon="8.302598698530764"><ele>108.0</ele><time>2026-04-06T16:06:25.999Z</time></trkpt><trkpt lat="44.876434001583696" lon="8.302781077502797"><ele>108.0</ele><time>2026-04-06T16:06:26.999Z</time></trkpt><trkpt lat="44.876520154383606" lon="8.302961979299432"><ele>108.0</ele><time>2026-04-06T16:06:27.999Z</time></trkpt><trkpt lat="44.87660647541088" lon="8.30313798315286"><ele>108.0</ele><time>2026-04-06T16:06:28.999Z</time></trkpt><trkpt lat="44.87669235810099" lon="8.303311099740649"><ele>107.33333333333334</ele><time>2026-04-06T16:06:30Z</time></trkpt><trkpt lat="44.87677419708646" lon="8.303489545453273"><ele>106.66666666666667</ele><time>2026-04-06T16:06:31Z</time></trkpt><trkpt lat="44.87685827354608" lon="8.303669230184841"><ele>106.0</ele><time>2026-04-06T16:06:32Z</time></trkpt><trkpt lat="44.87694207083291" lon="8.303851939677628"><ele>105.75</ele><time>2026-04-06T16:06:33Z</time></trkpt><trkpt lat="44.877029115396944" lon="8.304030312194655"><ele>105.5</ele><time>2026-04-06T16:06:34Z</time></trkpt><trkpt lat="44.8771076677245" lon="8.30419546239113"><ele>105.25</ele><time>2026-04-06T16:06:35Z</time></trkpt><trkpt lat="44.877181106642254" lon="8.304342951389723"><ele>105.0</ele><time>2026-04-06T16:06:36Z</time></trkpt><trkpt lat="44.87724800547368" lon="8.30447954341603"><ele>105.0</ele><time>2026-04-06T16:06:37Z</time></trkpt><trkpt lat="44.8773040465318" lon="8.304596995870549"><ele>105.0</ele><time>2026-04-06T16:06:38Z</time></trkpt><trkpt lat="44.877346567304635" lon="8.304698303396131"><ele>105.0</ele><time>2026-04-06T16:06:39Z</time></trkpt><trkpt lat="44.8774008378246" lon="8.304814063732364"><ele>105.0</ele><time>2026-04-06T16:06:40Z</time></trkpt><trkpt lat="44.87747237734194" lon="8.30493486564699"><ele>105.0</ele><time>2026-04-06T16:06:41Z</time></trkpt><trkpt lat="44.877556988274534" lon="8.305057567912717"><ele>105.75</ele><time>2026-04-06T16:06:42Z</time></trkpt><trkpt lat="44.87764043094923" lon="8.305155501767768"><ele>106.5</ele><time>2026-04-06T16:06:43Z</time></trkpt><trkpt lat="44.877723504955966" lon="8.305254708778808"><ele>107.25</ele><time>2026-04-06T16:06:44Z</time></trkpt><trkpt lat="44.877817009758104" lon="8.305347059983854"><ele>108.0</ele><time>2026-04-06T16:06:45Z</time></trkpt><trkpt lat="44.877924379090324" lon="8.305429607639775"><ele>108.0</ele><time>2026-04-06T16:06:46Z</time></trkpt><trkpt lat="44.8780395279541" lon="8.305500027276734"><ele>108.0</ele><time>2026-04-06T16:06:47Z</time></trkpt><trkpt lat="44.878159926071454" lon="8.305557141828073"><ele>108.0</ele><time>2026-04-06T16:06:48Z</time></trkpt><trkpt lat="44.878284991073166" lon="8.305607614435944"><ele>108.0</ele><time>2026-04-06T16:06:49Z</time></trkpt><trkpt lat="44.878419419568345" lon="8.305638566827247"><ele>105.5</ele><time>2026-04-06T16:06:50Z</time></trkpt><trkpt lat="44.878554830750076" lon="8.305673076346274"><ele>103.0</ele><time>2026-04-06T16:06:51Z</time></trkpt><trkpt lat="44.87869162570778" lon="8.305712800334643"><ele>100.5</ele><time>2026-04-06T16:06:52Z</time></trkpt><trkpt lat="44.878834810139914" lon="8.305757455490037"><ele>98.0</ele><time>2026-04-06T16:06:53Z</time></trkpt><trkpt lat="44.878980409163894" lon="8.305797468719994"><ele>98.0</ele><time>2026-04-06T16:06:54Z</time></trkpt><trkpt lat="44.87912961199521" lon="8.305839300137627"><ele>98.0</ele><time>2026-04-06T16:06:55Z</time></trkpt><trkpt lat="44.879278076416455" lon="8.305880880619986"><ele>98.0</ele><time>2026-04-06T16:06:56Z</time></trkpt><trkpt lat="44.879431627371815" lon="8.305921694532342"><ele>99.33333333333333</ele><time>2026-04-06T16:06:57Z</time></trkpt><trkpt lat="44.87958782774196" lon="8.305967946145488"><ele>100.66666666666666</ele><time>2026-04-06T16:06:58Z</time></trkpt><trkpt lat="44.87975116665466" lon="8.306013832890892"><ele>102.0</ele><time>2026-04-06T16:06:59Z</time></trkpt><trkpt lat="44.87990103718327" lon="8.30605081561726"><ele>102.0</ele><time>2026-04-06T16:07:00Z</time></trkpt><trkpt lat="44.88004942211809" lon="8.30609154269506"><ele>102.0</ele><time>2026-04-06T16:07:01Z</time></trkpt><trkpt lat="44.880196364592514" lon="8.306132168182899"><ele>102.0</ele><time>2026-04-06T16:07:02Z</time></trkpt><trkpt lat="44.88034105259347" lon="8.306171646511219"><ele>102.0</ele><time>2026-04-06T16:07:03Z</time></trkpt><trkpt lat="44.88047740518521" lon="8.306210058563385"><ele>102.75</ele><time>2026-04-06T16:07:04Z</time></trkpt><trkpt lat="44.88060402663779" lon="8.306245413459934"><ele>103.5</ele><time>2026-04-06T16:07:05Z</time></trkpt><trkpt lat="44.880721800888765" lon="8.306279459600688"><ele>104.25</ele><time>2026-04-06T16:07:06Z</time></trkpt><trkpt lat="44.88083326988076" lon="8.306309855564264"><ele>105.0</ele><time>2026-04-06T16:07:07Z</time></trkpt><trkpt lat="44.88093418446803" lon="8.306337486062546"><ele>105.0</ele><time>2026-04-06T16:07:08Z</time></trkpt><trkpt lat="44.881019051251336" lon="8.306357472803148"><ele>105.0</ele><time>2026-04-06T16:07:09Z</time></trkpt><trkpt lat="44.881087374436525" lon="8.30637751951282"><ele>105.0</ele><time>2026-04-06T16:07:10Z</time></trkpt><trkpt lat="44.881186864325116" lon="8.30633318181492"><ele>105.0</ele><time>2026-04-06T16:07:12Z</time></trkpt><trkpt lat="44.88121535119853" lon="8.306217905174668"><ele>105.0</ele><time>2026-04-06T16:07:14Z</time></trkpt><trkpt lat="44.88123038213205" lon="8.306089740904056"><ele>105.0</ele><time>2026-04-06T16:07:15Z</time></trkpt><trkpt lat="44.88125212155225" lon="8.305940076175155"><ele>105.0</ele><time>2026-04-06T16:07:16Z</time></trkpt><trkpt lat="44.88128106071267" lon="8.30578716195101"><ele>105.0</ele><time>2026-04-06T16:07:17Z</time></trkpt><trkpt lat="44.88130958257744" lon="8.305657491503323"><ele>105.0</ele><time>2026-04-06T16:07:18Z</time></trkpt><trkpt lat="44.881336483714776" lon="8.30553368945619"><ele>105.0</ele><time>2026-04-06T16:07:19Z</time></trkpt><trkpt lat="44.88135839069316" lon="8.305440030933134"><ele>105.0</ele><time>2026-04-06T16:07:20Z</time></trkpt><trkpt lat="44.88142305179768" lon="8.30530952138513"><ele>104.8</ele><time>2026-04-06T16:07:22Z</time></trkpt><trkpt lat="44.881452600829604" lon="8.305216284355948"><ele>104.6</ele><time>2026-04-06T16:07:23Z</time></trkpt><trkpt lat="44.88149331310344" lon="8.305095552697843"><ele>104.4</ele><time>2026-04-06T16:07:24Z</time></trkpt><trkpt lat="44.881544855538536" lon="8.304953572366214"><ele>104.2</ele><time>2026-04-06T16:07:25Z</time></trkpt><trkpt lat="44.8815841119115" lon="8.304845684457051"><ele>104.0</ele><time>2026-04-06T16:07:26Z</time></trkpt><trkpt lat="44.88165515591701" lon="8.304737367955916"><ele>104.5</ele><time>2026-04-06T16:07:28Z</time></trkpt><trkpt lat="44.88175156756737" lon="8.30473684430713"><ele>105.0</ele><time>2026-04-06T16:07:30Z</time></trkpt><trkpt lat="44.88185913747729" lon="8.304857639513529"><ele>105.5</ele><time>2026-04-06T16:07:32Z</time></trkpt><trkpt lat="44.88196366725926" lon="8.304955700382628"><ele>106.0</ele><time>2026-04-06T16:07:33Z</time></trkpt><trkpt lat="44.88206785951576" lon="8.305044872947404"><ele>106.00000000000001</ele><time>2026-04-06T16:07:34Z</time></trkpt><trkpt lat="44.88214941353911" lon="8.305128119198736"><ele>106.0</ele><time>2026-04-06T16:07:35Z</time></trkpt><trkpt lat="44.88221287025429" lon="8.305190396077936"><ele>106.0</ele><time>2026-04-06T16:07:36Z</time></trkpt><trkpt lat="44.882292287163175" lon="8.305280611300237"><ele>106.0</ele><time>2026-04-06T16:07:38Z</time></trkpt><trkpt lat="44.88231091020104" lon="8.305385214473102"><ele>106.00000000000001</ele><time>2026-04-06T16:07:42Z</time></trkpt><trkpt lat="44.88226480005309" lon="8.305471296915332"><ele>106.0</ele><time>2026-04-06T16:07:44Z</time></trkpt><trkpt lat="44.88219332472014" lon="8.305455768487748"><ele>106.00000000000001</ele><time>2026-04-06T16:07:47Z</time></trkpt><trkpt lat="44.882176081055" lon="8.305314262240238"><ele>106.0</ele><time>2026-04-06T16:07:49Z</time></trkpt><trkpt lat="44.8821567392551" lon="8.305216944484156"><ele>106.0</ele><time>2026-04-06T16:07:50Z</time></trkpt><trkpt lat="44.88212206648183" lon="8.30511389529285"><ele>106.0</ele><time>2026-04-06T16:07:51Z</time></trkpt><trkpt lat="44.88207073251547" lon="8.305043091603135"><ele>106.00000000000001</ele><time>2026-04-06T16:07:52Z</time></trkpt><trkpt lat="44.88198532862521" lon="8.304943551385765"><ele>106.0</ele><time>2026-04-06T16:07:53Z</time></trkpt><trkpt lat="44.88188171176797" lon="8.304855358918196"><ele>106.00000000000001</ele><time>2026-04-06T16:07:54Z</time></trkpt><trkpt lat="44.881802681871385" lon="8.304792987557244"><ele>106.0</ele><time>2026-04-06T16:07:55Z</time></trkpt><trkpt lat="44.88173179706996" lon="8.30475109898683"><ele>106.0</ele><time>2026-04-06T16:07:56Z</time></trkpt><trkpt lat="44.88162645321491" lon="8.304792706885763"><ele>106.0</ele><time>2026-04-06T16:07:58Z</time></trkpt><trkpt lat="44.88158907746724" lon="8.30486628037508"><ele>106.00000000000001</ele><time>2026-04-06T16:07:59Z</time></trkpt><trkpt lat="44.88155766701886" lon="8.304971093306747"><ele>106.0</ele><time>2026-04-06T16:07:59.999Z</time></trkpt><trkpt lat="44.88151459240244" lon="8.305120231782906"><ele>105.6</ele><time>2026-04-06T16:08:00.999Z</time></trkpt><trkpt lat="44.88145340709357" lon="8.305286297514385"><ele>105.19999999999999</ele><time>2026-04-06T16:08:01.999Z</time></trkpt><trkpt lat="44.88141252520756" lon="8.305392534819463"><ele>104.80000000000001</ele><time>2026-04-06T16:08:02.999Z</time></trkpt><trkpt lat="44.881396626835745" lon="8.305254513617228"><ele>104.4</ele><time>2026-04-06T16:08:09.999Z</time></trkpt><trkpt lat="44.881427039679366" lon="8.305144833584308"><ele>104.0</ele><time>2026-04-06T16:08:10.999Z</time></trkpt><trkpt lat="44.881448853474176" lon="8.30502040784688"><ele>103.99999999999999</ele><time>2026-04-06T16:08:11.999Z</time></trkpt><trkpt lat="44.88147282887026" lon="8.304913396142632"><ele>104.0</ele><time>2026-04-06T16:08:12.999Z</time></trkpt><trkpt lat="44.88149422475775" lon="8.304816698668215"><ele>104.0</ele><time>2026-04-06T16:08:13.999Z</time></trkpt><trkpt lat="44.88152062656833" lon="8.30471038092863"><ele>104.0</ele><time>2026-04-06T16:08:14.999Z</time></trkpt><trkpt lat="44.88153972468471" lon="8.304621420513406"><ele>103.99999999999999</ele><time>2026-04-06T16:08:15.999Z</time></trkpt><trkpt lat="44.881577482166804" lon="8.3044353957233"><ele>104.0</ele><time>2026-04-06T16:08:17.999Z</time></trkpt><trkpt lat="44.881605023562855" lon="8.304319116054646"><ele>104.0</ele><time>2026-04-06T16:08:18.999Z</time></trkpt><trkpt lat="44.88165772742341" lon="8.304184543108095"><ele>104.0</ele><time>2026-04-06T16:08:20.999Z</time></trkpt><trkpt lat="44.881729052539384" lon="8.304110862398831"><ele>104.0</ele><time>2026-04-06T16:08:22.999Z</time></trkpt><trkpt lat="44.88180328152516" lon="8.304147175732139"><ele>104.0</ele><time>2026-04-06T16:08:24.999Z</time></trkpt><trkpt lat="44.8818591820689" lon="8.30421079897265"><ele>104.0</ele><time>2026-04-06T16:08:25.999Z</time></trkpt><trkpt lat="44.88193710673477" lon="8.304315272635058"><ele>104.0</ele><time>2026-04-06T16:08:26.999Z</time></trkpt><trkpt lat="44.88201566375304" lon="8.304424365251274"><ele>104.0</ele><time>2026-04-06T16:08:27.999Z</time></trkpt><trkpt lat="44.88209672119753" lon="8.304519631616"><ele>104.0</ele><time>2026-04-06T16:08:28.999Z</time></trkpt><trkpt lat="44.88219330894554" lon="8.304613273941136"><ele>104.0</ele><time>2026-04-06T16:08:29.999Z</time></trkpt><trkpt lat="44.88226734492471" lon="8.304717078790855"><ele>104.0</ele><time>2026-04-06T16:08:30.999Z</time></trkpt><trkpt lat="44.88232799812595" lon="8.304803274704604"><ele>104.4</ele><time>2026-04-06T16:08:31.999Z</time></trkpt><trkpt lat="44.88237751547539" lon="8.30487566480733"><ele>104.80000000000001</ele><time>2026-04-06T16:08:32.999Z</time></trkpt><trkpt lat="44.88246927315259" lon="8.304942005118836"><ele>105.19999999999999</ele><time>2026-04-06T16:08:34.999Z</time></trkpt><trkpt lat="44.88256840898676" lon="8.304880325855512"><ele>105.6</ele><time>2026-04-06T16:08:37Z</time></trkpt><trkpt lat="44.88261548322692" lon="8.304783550262025"><ele>106.0</ele><time>2026-04-06T16:08:38Z</time></trkpt><trkpt lat="44.882666657983975" lon="8.304678159501258"><ele>106.0</ele><time>2026-04-06T16:08:39Z</time></trkpt><trkpt lat="44.88272081426517" lon="8.304570104064219"><ele>106.0</ele><time>2026-04-06T16:08:40Z</time></trkpt><trkpt lat="44.88278479602083" lon="8.304452119031044"><ele>106.0</ele><time>2026-04-06T16:08:41Z</time></trkpt><trkpt lat="44.88285152990161" lon="8.304327122408782"><ele>106.0</ele><time>2026-04-06T16:08:42Z</time></trkpt><trkpt lat="44.882914591676766" lon="8.304214070009756"><ele>106.0</ele><time>2026-04-06T16:08:43Z</time></trkpt><trkpt lat="44.882964484292124" lon="8.304110523212142"><ele>106.0</ele><time>2026-04-06T16:08:44Z</time></trkpt><trkpt lat="44.88301607634888" lon="8.303985678739307"><ele>106.0</ele><time>2026-04-06T16:08:45Z</time></trkpt><trkpt lat="44.88306732760432" lon="8.303876460547125"><ele>106.0</ele><time>2026-04-06T16:08:46Z</time></trkpt><trkpt lat="44.883121274965106" lon="8.303773757350555"><ele>106.0</ele><time>2026-04-06T16:08:47Z</time></trkpt><trkpt lat="44.883175733135126" lon="8.303678383127602"><ele>106.0</ele><time>2026-04-06T16:08:48Z</time></trkpt><trkpt lat="44.883229235981126" lon="8.303579777366549"><ele>106.0</ele><time>2026-04-06T16:08:49Z</time></trkpt><trkpt lat="44.883285982409475" lon="8.303479259029096"><ele>106.0</ele><time>2026-04-06T16:08:50Z</time></trkpt><trkpt lat="44.88335144537117" lon="8.303386066824855"><ele>106.0</ele><time>2026-04-06T16:08:51Z</time></trkpt><trkpt lat="44.88344174003485" lon="8.303286913487806"><ele>106.0</ele><time>2026-04-06T16:08:52Z</time></trkpt><trkpt lat="44.8835351585915" lon="8.303175385104923"><ele>106.0</ele><time>2026-04-06T16:08:53Z</time></trkpt><trkpt lat="44.88362823033206" lon="8.303075003923666"><ele>106.0</ele><time>2026-04-06T16:08:54Z</time></trkpt><trkpt lat="44.883737998493494" lon="8.30295240841558"><ele>106.0</ele><time>2026-04-06T16:08:55Z</time></trkpt><trkpt lat="44.88385390001923" lon="8.302842904289102"><ele>106.0</ele><time>2026-04-06T16:08:56Z</time></trkpt><trkpt lat="44.88395223329464" lon="8.302737384197558"><ele>106.0</ele><time>2026-04-06T16:08:57Z</time></trkpt><trkpt lat="44.8840335300692" lon="8.30262589035978"><ele>106.0</ele><time>2026-04-06T16:08:58Z</time></trkpt><trkpt lat="44.88383504210558" lon="8.30254004779956"><ele>106.0</ele><time>2026-04-06T16:08:59Z</time></trkpt><trkpt lat="44.88388134969233" lon="8.302446043375559"><ele>106.0</ele><time>2026-04-06T16:09:00Z</time></trkpt><trkpt lat="44.883932090214955" lon="8.302347070009818"><ele>106.0</ele><time>2026-04-06T16:09:01Z</time></trkpt><trkpt lat="44.88399027574412" lon="8.30223883144137"><ele>106.0</ele><time>2026-04-06T16:09:02Z</time></trkpt><trkpt lat="44.88405781110325" lon="8.302131060300654"><ele>106.0</ele><time>2026-04-06T16:09:03Z</time></trkpt><trkpt lat="44.88413233954286" lon="8.302021141603808"><ele>106.0</ele><time>2026-04-06T16:09:04Z</time></trkpt><trkpt lat="44.88420488132605" lon="8.301899699823487"><ele>106.0</ele><time>2026-04-06T16:09:05Z</time></trkpt><trkpt lat="44.88427083809435" lon="8.301773093950903"><ele>106.0</ele><time>2026-04-06T16:09:06Z</time></trkpt><trkpt lat="44.884335185834246" lon="8.301665772041485"><ele>105.75</ele><time>2026-04-06T16:09:07Z</time></trkpt><trkpt lat="44.88439464052749" lon="8.301570529855825"><ele>105.5</ele><time>2026-04-06T16:09:08Z</time></trkpt><trkpt lat="44.88446153898976" lon="8.301453131369398"><ele>105.25</ele><time>2026-04-06T16:09:09Z</time></trkpt><trkpt lat="44.88454899547306" lon="8.301311322681146"><ele>105.0</ele><time>2026-04-06T16:09:10Z</time></trkpt><trkpt lat="44.88464184553794" lon="8.301146674453424"><ele>105.0</ele><time>2026-04-06T16:09:11Z</time></trkpt><trkpt lat="44.88471694710589" lon="8.30101574861059"><ele>105.0</ele><time>2026-04-06T16:09:12Z</time></trkpt><trkpt lat="44.884782686516736" lon="8.300897968210304"><ele>105.0</ele><time>2026-04-06T16:09:13Z</time></trkpt><trkpt lat="44.88483842455536" lon="8.30080603800194"><ele>105.0</ele><time>2026-04-06T16:09:14Z</time></trkpt><trkpt lat="44.88491628309316" lon="8.30069862183633"><ele>105.0</ele><time>2026-04-06T16:09:16Z</time></trkpt><trkpt lat="44.885000221712474" lon="8.300656139126424"><ele>105.16666666666667</ele><time>2026-04-06T16:09:18Z</time></trkpt><trkpt lat="44.88504701470618" lon="8.300571480912074"><ele>105.33333333333334</ele><time>2026-04-06T16:09:20Z</time></trkpt><trkpt lat="44.88511316994538" lon="8.300607721112257"><ele>105.5</ele><time>2026-04-06T16:09:23Z</time></trkpt><trkpt lat="44.88517884681652" lon="8.300696035504375"><ele>105.66666666666667</ele><time>2026-04-06T16:09:26Z</time></trkpt><trkpt lat="44.88524401722748" lon="8.300773298135654"><ele>105.83333333333334</ele><time>2026-04-06T16:09:28Z</time></trkpt><trkpt lat="44.88531910890965" lon="8.300844440765555"><ele>106.0</ele><time>2026-04-06T16:09:30Z</time></trkpt><trkpt lat="44.885407869041416" lon="8.300970959483466"><ele>105.8</ele><time>2026-04-06T16:09:33Z</time></trkpt><trkpt lat="44.88553319573641" lon="8.301058074501686"><ele>105.6</ele><time>2026-04-06T16:09:35Z</time></trkpt><trkpt lat="44.885577242667075" lon="8.300968649809878"><ele>105.4</ele><time>2026-04-06T16:09:37Z</time></trkpt><trkpt lat="44.88564366272518" lon="8.300856072510207"><ele>105.2</ele><time>2026-04-06T16:09:38Z</time></trkpt><trkpt lat="44.88571820048897" lon="8.300709637607728"><ele>105.0</ele><time>2026-04-06T16:09:39Z</time></trkpt><trkpt lat="44.88580715299182" lon="8.300554897144274"><ele>105.0</ele><time>2026-04-06T16:09:40Z</time></trkpt><trkpt lat="44.88588947129829" lon="8.300411490879858"><ele>105.0</ele><time>2026-04-06T16:09:41Z</time></trkpt><trkpt lat="44.885947244904905" lon="8.300303240997927"><ele>105.0</ele><time>2026-04-06T16:09:42Z</time></trkpt><trkpt lat="44.88600245135156" lon="8.300203460096723"><ele>105.0</ele><time>2026-04-06T16:09:43Z</time></trkpt><trkpt lat="44.88605161510014" lon="8.300106425617505"><ele>105.0</ele><time>2026-04-06T16:09:44Z</time></trkpt><trkpt lat="44.88610482854634" lon="8.300009079820608"><ele>104.83333333333333</ele><time>2026-04-06T16:09:45Z</time></trkpt><trkpt lat="44.88615486485643" lon="8.299914355727648"><ele>104.66666666666666</ele><time>2026-04-06T16:09:46Z</time></trkpt><trkpt lat="44.88619286046046" lon="8.299817849735279"><ele>104.5</ele><time>2026-04-06T16:09:47Z</time></trkpt><trkpt lat="44.8862447974278" lon="8.299737895799677"><ele>104.33333333333333</ele><time>2026-04-06T16:09:48Z</time></trkpt><trkpt lat="44.886285137616994" lon="8.299657618145297"><ele>104.16666666666666</ele><time>2026-04-06T16:09:49Z</time></trkpt><trkpt lat="44.886332765781134" lon="8.299583993295442"><ele>104.0</ele><time>2026-04-06T16:09:50Z</time></trkpt><trkpt lat="44.886387550932156" lon="8.29948426395562"><ele>104.0</ele><time>2026-04-06T16:09:52Z</time></trkpt><trkpt lat="44.88644126101395" lon="8.299400558229586"><ele>104.0</ele><time>2026-04-06T16:09:54Z</time></trkpt><trkpt lat="44.886491505085914" lon="8.29929377391337"><ele>104.0</ele><time>2026-04-06T16:09:56Z</time></trkpt><trkpt lat="44.886547485528546" lon="8.299201262732161"><ele>104.0</ele><time>2026-04-06T16:09:57Z</time></trkpt><trkpt lat="44.8866231691332" lon="8.299089736707648"><ele>104.0</ele><time>2026-04-06T16:09:58Z</time></trkpt><trkpt lat="44.88668502311538" lon="8.29897804862378"><ele>104.2</ele><time>2026-04-06T16:09:59Z</time></trkpt><trkpt lat="44.88673154510291" lon="8.298882264249213"><ele>104.4</ele><time>2026-04-06T16:10:00Z</time></trkpt><trkpt lat="44.88676926963198" lon="8.298788620691036"><ele>104.6</ele><time>2026-04-06T16:10:01Z</time></trkpt><trkpt lat="44.886833379497105" lon="8.298674654143593"><ele>104.8</ele><time>2026-04-06T16:10:02Z</time></trkpt><trkpt lat="44.88689644349951" lon="8.298581407474465"><ele>105.0</ele><time>2026-04-06T16:10:03Z</time></trkpt><trkpt lat="44.88695772218327" lon="8.298455598099029"><ele>105.0</ele><time>2026-04-06T16:10:04Z</time></trkpt><trkpt lat="44.887026714569174" lon="8.298336981407527"><ele>105.0</ele><time>2026-04-06T16:10:04.999Z</time></trkpt><trkpt lat="44.8870900440221" lon="8.298222915760372"><ele>105.0</ele><time>2026-04-06T16:10:05.999Z</time></trkpt><trkpt lat="44.887157150125994" lon="8.298098732138547"><ele>105.0</ele><time>2026-04-06T16:10:06.999Z</time></trkpt><trkpt lat="44.887218604502934" lon="8.297982975873078"><ele>105.0</ele><time>2026-04-06T16:10:07.999Z</time></trkpt><trkpt lat="44.887280191990584" lon="8.29786235563375"><ele>105.2</ele><time>2026-04-06T16:10:08.999Z</time></trkpt><trkpt lat="44.88734266773098" lon="8.297740135440737"><ele>105.4</ele><time>2026-04-06T16:10:09.999Z</time></trkpt><trkpt lat="44.88740888635396" lon="8.297621207749442"><ele>105.6</ele><time>2026-04-06T16:10:10.999Z</time></trkpt><trkpt lat="44.88746320847575" lon="8.29751824722927"><ele>105.8</ele><time>2026-04-06T16:10:11.999Z</time></trkpt><trkpt lat="44.88751489760016" lon="8.297410332169806"><ele>106.0</ele><time>2026-04-06T16:10:12.999Z</time></trkpt><trkpt lat="44.88757828397175" lon="8.297295121744122"><ele>105.8</ele><time>2026-04-06T16:10:13.999Z</time></trkpt><trkpt lat="44.88764627059382" lon="8.297174208486334"><ele>105.6</ele><time>2026-04-06T16:10:14.999Z</time></trkpt><trkpt lat="44.88771570565733" lon="8.297056153718094"><ele>105.4</ele><time>2026-04-06T16:10:15.999Z</time></trkpt><trkpt lat="44.887773772234375" lon="8.296954925064128"><ele>105.2</ele><time>2026-04-06T16:10:16.999Z</time></trkpt><trkpt lat="44.88782359086518" lon="8.296862245742888"><ele>105.0</ele><time>2026-04-06T16:10:17.999Z</time></trkpt><trkpt lat="44.88786440680386" lon="8.296783441010616"><ele>105.0</ele><time>2026-04-06T16:10:18.999Z</time></trkpt><trkpt lat="44.887933300499306" lon="8.296678702514907"><ele>105.0</ele><time>2026-04-06T16:10:20.999Z</time></trkpt><trkpt lat="44.88803002702584" lon="8.29668942073698"><ele>105.0</ele><time>2026-04-06T16:10:22.999Z</time></trkpt><trkpt lat="44.88809827595573" lon="8.296738042525526"><ele>105.0</ele><time>2026-04-06T16:10:23.999Z</time></trkpt><trkpt lat="44.88818111450054" lon="8.2967894804252"><ele>105.0</ele><time>2026-04-06T16:10:24.999Z</time></trkpt><trkpt lat="44.88827593365683" lon="8.296848397444762"><ele>105.0</ele><time>2026-04-06T16:10:25.999Z</time></trkpt><trkpt lat="44.888363193718426" lon="8.296903484223803"><ele>105.0</ele><time>2026-04-06T16:10:26.999Z</time></trkpt><trkpt lat="44.88842604235445" lon="8.296936200578822"><ele>105.0</ele><time>2026-04-06T16:10:27.999Z</time></trkpt><trkpt lat="44.8884834039451" lon="8.296984872646787"><ele>105.0</ele><time>2026-04-06T16:10:28.999Z</time></trkpt><trkpt lat="44.88854182986257" lon="8.29702393534449"><ele>105.0</ele><time>2026-04-06T16:10:29.999Z</time></trkpt><trkpt lat="44.88861728032984" lon="8.297069040728404"><ele>105.0</ele><time>2026-04-06T16:10:30.999Z</time></trkpt><trkpt lat="44.88870928200363" lon="8.29712508314718"><ele>105.0</ele><time>2026-04-06T16:10:31.999Z</time></trkpt><trkpt lat="44.88881009943216" lon="8.297182510809149"><ele>105.0</ele><time>2026-04-06T16:10:32.999Z</time></trkpt><trkpt lat="44.888909116053426" lon="8.297234048238138"><ele>105.0</ele><time>2026-04-06T16:10:34Z</time></trkpt><trkpt lat="44.888996183878085" lon="8.297275649040902"><ele>105.0</ele><time>2026-04-06T16:10:35Z</time></trkpt><trkpt lat="44.88906911637693" lon="8.297316239397382"><ele>105.0</ele><time>2026-04-06T16:10:36Z</time></trkpt><trkpt lat="44.88914171500164" lon="8.297367732952914"><ele>105.0</ele><time>2026-04-06T16:10:37Z</time></trkpt><trkpt lat="44.8892341113276" lon="8.297435732570833"><ele>105.0</ele><time>2026-04-06T16:10:38Z</time></trkpt><trkpt lat="44.88932394619301" lon="8.297491346553198"><ele>105.0</ele><time>2026-04-06T16:10:39Z</time></trkpt><trkpt lat="44.88940798703318" lon="8.297529132485884"><ele>105.0</ele><time>2026-04-06T16:10:40Z</time></trkpt><trkpt lat="44.88948981045754" lon="8.297571836360099"><ele>105.0</ele><time>2026-04-06T16:10:41Z</time></trkpt><trkpt lat="44.889572941217764" lon="8.297618759732181"><ele>105.0</ele><time>2026-04-06T16:10:42Z</time></trkpt><trkpt lat="44.889661399845714" lon="8.29768012990723"><ele>105.0</ele><time>2026-04-06T16:10:43Z</time></trkpt><trkpt lat="44.8897440815537" lon="8.297737530395436"><ele>105.0</ele><time>2026-04-06T16:10:44Z</time></trkpt><trkpt lat="44.889834348139885" lon="8.297794905019943"><ele>105.0</ele><time>2026-04-06T16:10:45Z</time></trkpt><trkpt lat="44.8899259056504" lon="8.297841177138903"><ele>105.0</ele><time>2026-04-06T16:10:46Z</time></trkpt><trkpt lat="44.89001310881596" lon="8.297890279718002"><ele>105.0</ele><time>2026-04-06T16:10:47Z</time></trkpt><trkpt lat="44.89010393192999" lon="8.297949225780265"><ele>105.0</ele><time>2026-04-06T16:10:48Z</time></trkpt><trkpt lat="44.89021617903628" lon="8.29801046987991"><ele>105.0</ele><time>2026-04-06T16:10:49Z</time></trkpt><trkpt lat="44.89033598339994" lon="8.298070961905633"><ele>105.0</ele><time>2026-04-06T16:10:50Z</time></trkpt><trkpt lat="44.89043359523365" lon="8.298129576963138"><ele>105.0</ele><time>2026-04-06T16:10:51Z</time></trkpt><trkpt lat="44.890533555125806" lon="8.298191687209588"><ele>105.0</ele><time>2026-04-06T16:10:52Z</time></trkpt><trkpt lat="44.890641000051275" lon="8.298257181668843"><ele>105.0</ele><time>2026-04-06T16:10:53Z</time></trkpt><trkpt lat="44.890750522182366" lon="8.298321591937608"><ele>105.0</ele><time>2026-04-06T16:10:54Z</time></trkpt><trkpt lat="44.890850612147005" lon="8.298385690854234"><ele>105.75</ele><time>2026-04-06T16:10:55Z</time></trkpt><trkpt lat="44.89095154490256" lon="8.298441672994764"><ele>106.5</ele><time>2026-04-06T16:10:56Z</time></trkpt><trkpt lat="44.89106043058486" lon="8.298509443764406"><ele>107.25</ele><time>2026-04-06T16:10:57Z</time></trkpt><trkpt lat="44.89116618458934" lon="8.298568510218267"><ele>108.0</ele><time>2026-04-06T16:10:58Z</time></trkpt><trkpt lat="44.89127443371165" lon="8.29862891744716"><ele>108.0</ele><time>2026-04-06T16:10:59Z</time></trkpt><trkpt lat="44.89138281121489" lon="8.298690166806804"><ele>108.0</ele><time>2026-04-06T16:11:00Z</time></trkpt><trkpt lat="44.89150089369135" lon="8.298756846995182"><ele>108.0</ele><time>2026-04-06T16:11:01Z</time></trkpt><trkpt lat="44.89162432970919" lon="8.298826784753002"><ele>108.0</ele><time>2026-04-06T16:11:02Z</time></trkpt><trkpt lat="44.89174239667471" lon="8.298893123316164"><ele>108.5</ele><time>2026-04-06T16:11:03Z</time></trkpt><trkpt lat="44.89186423014256" lon="8.298961524717853"><ele>109.0</ele><time>2026-04-06T16:11:04Z</time></trkpt><trkpt lat="44.89199885340921" lon="8.299044394669563"><ele>109.5</ele><time>2026-04-06T16:11:05Z</time></trkpt><trkpt lat="44.89212767109437" lon="8.299123067340417"><ele>110.0</ele><time>2026-04-06T16:11:06Z</time></trkpt><trkpt lat="44.89225212931053" lon="8.299197293631938"><ele>110.0</ele><time>2026-04-06T16:11:07Z</time></trkpt><trkpt lat="44.892367390383754" lon="8.29927147951777"><ele>110.0</ele><time>2026-04-06T16:11:08Z</time></trkpt><trkpt lat="44.89247420060876" lon="8.299335535381388"><ele>110.0</ele><time>2026-04-06T16:11:09Z</time></trkpt><trkpt lat="44.892566395963364" lon="8.299391821504937"><ele>110.0</ele><time>2026-04-06T16:11:10Z</time></trkpt><trkpt lat="44.89265241361133" lon="8.299443218889854"><ele>110.0</ele><time>2026-04-06T16:11:11Z</time></trkpt><trkpt lat="44.89272014159594" lon="8.299495449608955"><ele>110.28571428571428</ele><time>2026-04-06T16:11:12Z</time></trkpt><trkpt lat="44.892773154031815" lon="8.299544442238746"><ele>110.57142857142857</ele><time>2026-04-06T16:11:13Z</time></trkpt><trkpt lat="44.892817907063474" lon="8.299607684091464"><ele>110.85714285714286</ele><time>2026-04-06T16:11:15Z</time></trkpt><trkpt lat="44.89287661509361" lon="8.299559299289559"><ele>111.14285714285714</ele><time>2026-04-06T16:11:17Z</time></trkpt><trkpt lat="44.89292051250191" lon="8.299487344040676"><ele>111.42857142857143</ele><time>2026-04-06T16:11:18Z</time></trkpt><trkpt lat="44.892976541724146" lon="8.29939715413568"><ele>111.71428571428571</ele><time>2026-04-06T16:11:19Z</time></trkpt><trkpt lat="44.893032375317546" lon="8.2993077928679"><ele>112.0</ele><time>2026-04-06T16:11:20Z</time></trkpt><trkpt lat="44.89309150446754" lon="8.299224061336"><ele>112.00000000000001</ele><time>2026-04-06T16:11:21Z</time></trkpt><trkpt lat="44.89314338362399" lon="8.29914125352434"><ele>112.0</ele><time>2026-04-06T16:11:22Z</time></trkpt><trkpt lat="44.89319421738219" lon="8.299061119906948"><ele>112.0</ele><time>2026-04-06T16:11:23Z</time></trkpt><trkpt lat="44.893248882091974" lon="8.298978429129724"><ele>112.0</ele><time>2026-04-06T16:11:24Z</time></trkpt><trkpt lat="44.89330333658558" lon="8.298893302416783"><ele>112.00000000000001</ele><time>2026-04-06T16:11:25Z</time></trkpt><trkpt lat="44.8933571780713" lon="8.298808471090078"><ele>112.0</ele><time>2026-04-06T16:11:26Z</time></trkpt><trkpt lat="44.89340766540491" lon="8.29872574942483"><ele>112.19999999999999</ele><time>2026-04-06T16:11:27Z</time></trkpt><trkpt lat="44.893463262694034" lon="8.298643453646536"><ele>112.39999999999999</ele><time>2026-04-06T16:11:28Z</time></trkpt><trkpt lat="44.89350660160138" lon="8.298566266916636"><ele>112.60000000000001</ele><time>2026-04-06T16:11:29Z</time></trkpt><trkpt lat="44.89356838410677" lon="8.298486218066676"><ele>112.80000000000001</ele><time>2026-04-06T16:11:30Z</time></trkpt><trkpt lat="44.89365378096178" lon="8.29840763802404"><ele>113.0</ele><time>2026-04-06T16:11:31Z</time></trkpt><trkpt lat="44.893756965221904" lon="8.298308788910171"><ele>113.0</ele><time>2026-04-06T16:11:32Z</time></trkpt><trkpt lat="44.8938665778775" lon="8.298165073951683"><ele>113.0</ele><time>2026-04-06T16:11:33Z</time></trkpt><trkpt lat="44.89396228232985" lon="8.29805006045976"><ele>113.0</ele><time>2026-04-06T16:11:34Z</time></trkpt><trkpt lat="44.894029715082006" lon="8.297943159971958"><ele>113.0</ele><time>2026-04-06T16:11:35Z</time></trkpt><trkpt lat="44.8940691474982" lon="8.297852750904427"><ele>112.80000000000001</ele><time>2026-04-06T16:11:36Z</time></trkpt><trkpt lat="44.89408976548808" lon="8.297761448463184"><ele>112.60000000000001</ele><time>2026-04-06T16:11:37Z</time></trkpt><trkpt lat="44.89409727625473" lon="8.297629965905003"><ele>112.39999999999999</ele><time>2026-04-06T16:11:38Z</time></trkpt><trkpt lat="44.894093039022536" lon="8.297457121383559"><ele>112.19999999999999</ele><time>2026-04-06T16:11:39Z</time></trkpt><trkpt lat="44.89408171853241" lon="8.297282785737485"><ele>112.0</ele><time>2026-04-06T16:11:40Z</time></trkpt><trkpt lat="44.8940649565563" lon="8.297113146543488"><ele>112.0</ele><time>2026-04-06T16:11:41Z</time></trkpt><trkpt lat="44.89404988022756" lon="8.296955580021047"><ele>111.99999999999999</ele><time>2026-04-06T16:11:42Z</time></trkpt><trkpt lat="44.894035312816335" lon="8.296820567879701"><ele>111.99999999999999</ele><time>2026-04-06T16:11:43Z</time></trkpt><trkpt lat="44.89402371871797" lon="8.296699136707836"><ele>112.0</ele><time>2026-04-06T16:11:44Z</time></trkpt><trkpt lat="44.894021844992494" lon="8.296577966809894"><ele>112.0</ele><time>2026-04-06T16:11:45Z</time></trkpt><trkpt lat="44.894028509114335" lon="8.296448022855918"><ele>112.00000000000001</ele><time>2026-04-06T16:11:46Z</time></trkpt><trkpt lat="44.89401390974992" lon="8.296347257466948"><ele>112.0</ele><time>2026-04-06T16:11:47Z</time></trkpt><trkpt lat="44.89398256408476" lon="8.296225745423154"><ele>112.0</ele><time>2026-04-06T16:11:48Z</time></trkpt><trkpt lat="44.8939468119553" lon="8.296106891051384"><ele>112.0</ele><time>2026-04-06T16:11:49Z</time></trkpt><trkpt lat="44.89390177408772" lon="8.296005276068374"><ele>112.00000000000001</ele><time>2026-04-06T16:11:50Z</time></trkpt><trkpt lat="44.89386349678686" lon="8.295894447840903"><ele>112.0</ele><time>2026-04-06T16:11:51Z</time></trkpt><trkpt lat="44.893847492416626" lon="8.295733188742236"><ele>112.0</ele><time>2026-04-06T16:11:52Z</time></trkpt><trkpt lat="44.89382401825874" lon="8.295599243869622"><ele>111.99999999999999</ele><time>2026-04-06T16:11:53Z</time></trkpt><trkpt lat="44.89380419452254" lon="8.295447673802515"><ele>111.99999999999999</ele><time>2026-04-06T16:11:54Z</time></trkpt><trkpt lat="44.893782912897244" lon="8.295305523024343"><ele>112.0</ele><time>2026-04-06T16:11:55Z</time></trkpt><trkpt lat="44.89377321509567" lon="8.295173004961352"><ele>112.0</ele><time>2026-04-06T16:11:56Z</time></trkpt><trkpt lat="44.89376731381053" lon="8.29505756449948"><ele>111.50000000000001</ele><time>2026-04-06T16:11:57Z</time></trkpt><trkpt lat="44.893755636019506" lon="8.294945884389671"><ele>111.0</ele><time>2026-04-06T16:11:58Z</time></trkpt><trkpt lat="44.8937297278248" lon="8.294827511924156"><ele>110.5</ele><time>2026-04-06T16:11:59Z</time></trkpt><trkpt lat="44.89369852867938" lon="8.294711560099763"><ele>110.0</ele><time>2026-04-06T16:12:00Z</time></trkpt><trkpt lat="44.893666990599414" lon="8.294598577565159"><ele>109.50000000000001</ele><time>2026-04-06T16:12:01Z</time></trkpt><trkpt lat="44.893634580174385" lon="8.294480627725525"><ele>109.0</ele><time>2026-04-06T16:12:02Z</time></trkpt><trkpt lat="44.89361108433203" lon="8.294365043857633"><ele>108.80000000000001</ele><time>2026-04-06T16:12:03Z</time></trkpt><trkpt lat="44.89358212499252" lon="8.294256600417684"><ele>108.60000000000001</ele><time>2026-04-06T16:12:04Z</time></trkpt><trkpt lat="44.8935559785478" lon="8.294156533695858"><ele>108.4</ele><time>2026-04-06T16:12:05Z</time></trkpt><trkpt lat="44.8935337086948" lon="8.294055751931591"><ele>108.2</ele><time>2026-04-06T16:12:06Z</time></trkpt><trkpt lat="44.893500783356174" lon="8.293867603646733"><ele>108.0</ele><time>2026-04-06T16:12:08Z</time></trkpt><trkpt lat="44.89349018558731" lon="8.293749448544759"><ele>108.0</ele><time>2026-04-06T16:12:09Z</time></trkpt><trkpt lat="44.89348004820556" lon="8.293631364770947"><ele>108.0</ele><time>2026-04-06T16:12:10Z</time></trkpt><trkpt lat="44.893465779428425" lon="8.293503141809415"><ele>108.0</ele><time>2026-04-06T16:12:10.999Z</time></trkpt><trkpt lat="44.893453959238926" lon="8.29340466241522"><ele>108.0</ele><time>2026-04-06T16:12:11.999Z</time></trkpt><trkpt lat="44.89342401008348" lon="8.293308502178157"><ele>108.0</ele><time>2026-04-06T16:12:12.999Z</time></trkpt><trkpt lat="44.89338997554956" lon="8.293214405873199"><ele>108.0</ele><time>2026-04-06T16:12:13.999Z</time></trkpt><trkpt lat="44.89335482242563" lon="8.293070928886763"><ele>108.0</ele><time>2026-04-06T16:12:14.999Z</time></trkpt><trkpt lat="44.89333039259329" lon="8.292920728530472"><ele>108.00000000000001</ele><time>2026-04-06T16:12:15.999Z</time></trkpt><trkpt lat="44.89330867346095" lon="8.292772105559221"><ele>108.00000000000001</ele><time>2026-04-06T16:12:16.999Z</time></trkpt><trkpt lat="44.89328480060264" lon="8.292630080631055"><ele>108.0</ele><time>2026-04-06T16:12:17.999Z</time></trkpt><trkpt lat="44.89325465646014" lon="8.292460532306032"><ele>108.0</ele><time>2026-04-06T16:12:18.999Z</time></trkpt><trkpt lat="44.89323200796152" lon="8.292317850561517"><ele>108.16666666666667</ele><time>2026-04-06T16:12:19.999Z</time></trkpt><trkpt lat="44.893216497114956" lon="8.292194832815108"><ele>108.33333333333334</ele><time>2026-04-06T16:12:20.999Z</time></trkpt><trkpt lat="44.89318861103991" lon="8.292030771750904"><ele>108.5</ele><time>2026-04-06T16:12:22.999Z</time></trkpt><trkpt lat="44.893206642495365" lon="8.291940531530962"><ele>108.66666666666667</ele><time>2026-04-06T16:12:24.999Z</time></trkpt><trkpt lat="44.893293281231756" lon="8.291922988217616"><ele>108.83333333333334</ele><time>2026-04-06T16:12:26.999Z</time></trkpt><trkpt lat="44.893377392847256" lon="8.291927154063723"><ele>109.0</ele><time>2026-04-06T16:12:27.999Z</time></trkpt><trkpt lat="44.893464942380504" lon="8.291930094532495"><ele>109.0</ele><time>2026-04-06T16:12:28.999Z</time></trkpt><trkpt lat="44.893542929558166" lon="8.291933161894319"><ele>109.0</ele><time>2026-04-06T16:12:29.999Z</time></trkpt><trkpt lat="44.89361180712051" lon="8.291927116732866"><ele>109.0</ele><time>2026-04-06T16:12:31Z</time></trkpt><trkpt lat="44.893690571434" lon="8.291921967758872"><ele>109.0</ele><time>2026-04-06T16:12:32Z</time></trkpt><trkpt lat="44.89376582198799" lon="8.29192019746901"><ele>109.0</ele><time>2026-04-06T16:12:33Z</time></trkpt><trkpt lat="44.89383031775066" lon="8.291918899577075"><ele>109.0</ele><time>2026-04-06T16:12:34Z</time></trkpt><trkpt lat="44.89390009844441" lon="8.291909758508634"><ele>109.0</ele><time>2026-04-06T16:12:35Z</time></trkpt><trkpt lat="44.89397917258334" lon="8.291896069592028"><ele>109.00000000000001</ele><time>2026-04-06T16:12:36Z</time></trkpt><trkpt lat="44.89406165488926" lon="8.291886104834944"><ele>109.0</ele><time>2026-04-06T16:12:37Z</time></trkpt><trkpt lat="44.89414149834575" lon="8.291884185155714"><ele>109.0</ele><time>2026-04-06T16:12:38Z</time></trkpt><trkpt lat="44.89422292267792" lon="8.29189181099352"><ele>109.0</ele><time>2026-04-06T16:12:39Z</time></trkpt><trkpt lat="44.89430309656354" lon="8.291898732908944"><ele>109.00000000000001</ele><time>2026-04-06T16:12:40Z</time></trkpt><trkpt lat="44.89438504309623" lon="8.291894236029245"><ele>109.0</ele><time>2026-04-06T16:12:41Z</time></trkpt><trkpt lat="44.8944529364054" lon="8.291895027097079"><ele>109.33333333333334</ele><time>2026-04-06T16:12:42Z</time></trkpt><trkpt lat="44.89451866235219" lon="8.291915106611029"><ele>109.66666666666667</ele><time>2026-04-06T16:12:43Z</time></trkpt><trkpt lat="44.894610009964296" lon="8.291918734542419"><ele>110.0</ele><time>2026-04-06T16:12:44Z</time></trkpt><trkpt lat="44.89468475347429" lon="8.29190524936035"><ele>110.33333333333334</ele><time>2026-04-06T16:12:45Z</time></trkpt><trkpt lat="44.89475962446603" lon="8.291901178684737"><ele>110.66666666666667</ele><time>2026-04-06T16:12:46Z</time></trkpt><trkpt lat="44.89483366295587" lon="8.29190195005513"><ele>111.0</ele><time>2026-04-06T16:12:47Z</time></trkpt><trkpt lat="44.89495651632556" lon="8.291913525948907"><ele>111.0</ele><time>2026-04-06T16:12:49Z</time></trkpt><trkpt lat="44.89502161890447" lon="8.291910013469684"><ele>111.0</ele><time>2026-04-06T16:12:50Z</time></trkpt><trkpt lat="44.895090902963915" lon="8.29191543764368"><ele>111.0</ele><time>2026-04-06T16:12:51Z</time></trkpt><trkpt lat="44.89517274844925" lon="8.291914307335798"><ele>111.0</ele><time>2026-04-06T16:12:52Z</time></trkpt><trkpt lat="44.89525373498398" lon="8.291912506173407"><ele>111.0</ele><time>2026-04-06T16:12:53Z</time></trkpt><trkpt lat="44.89533540708295" lon="8.29191933736567"><ele>111.0</ele><time>2026-04-06T16:12:55Z</time></trkpt><trkpt lat="44.89538112299206" lon="8.292017529452488"><ele>111.19999999999999</ele><time>2026-04-06T16:12:57Z</time></trkpt><trkpt lat="44.89540663129184" lon="8.29212589184913"><ele>111.39999999999999</ele><time>2026-04-06T16:12:58Z</time></trkpt><trkpt lat="44.895438118390814" lon="8.292288434610697"><ele>111.6</ele><time>2026-04-06T16:12:59Z</time></trkpt><trkpt lat="44.895473033786985" lon="8.292423249895037"><ele>111.8</ele><time>2026-04-06T16:13:00Z</time></trkpt><trkpt lat="44.895494611002704" lon="8.292535838452517"><ele>112.0</ele><time>2026-04-06T16:13:01Z</time></trkpt><trkpt lat="44.89552405076539" lon="8.292658598958257"><ele>111.8</ele><time>2026-04-06T16:13:02Z</time></trkpt><trkpt lat="44.89555664945301" lon="8.292774537578241"><ele>111.6</ele><time>2026-04-06T16:13:03Z</time></trkpt><trkpt lat="44.89560104213572" lon="8.292911082725226"><ele>111.39999999999999</ele><time>2026-04-06T16:13:04Z</time></trkpt><trkpt lat="44.895640256982574" lon="8.29300610782378"><ele>111.19999999999999</ele><time>2026-04-06T16:13:05Z</time></trkpt><trkpt lat="44.89567131011624" lon="8.293148077798438"><ele>111.0</ele><time>2026-04-06T16:13:06Z</time></trkpt><trkpt lat="44.89570366838199" lon="8.293258766859335"><ele>111.0</ele><time>2026-04-06T16:13:07Z</time></trkpt><trkpt lat="44.895751604212265" lon="8.293401900472883"><ele>111.0</ele><time>2026-04-06T16:13:09Z</time></trkpt><trkpt lat="44.89578917483848" lon="8.293519496821828"><ele>111.0</ele><time>2026-04-06T16:13:10Z</time></trkpt><trkpt lat="44.895820030518976" lon="8.293645491063435"><ele>111.0</ele><time>2026-04-06T16:13:11Z</time></trkpt><trkpt lat="44.89585735917648" lon="8.293784907946403"><ele>111.0</ele><time>2026-04-06T16:13:12Z</time></trkpt><trkpt lat="44.89591867163457" lon="8.293950093585423"><ele>112.0</ele><time>2026-04-06T16:13:13Z</time></trkpt><trkpt lat="44.895992669348274" lon="8.294119398857505"><ele>113.0</ele><time>2026-04-06T16:13:14Z</time></trkpt><trkpt lat="44.89604719409514" lon="8.29426804363415"><ele>114.0</ele><time>2026-04-06T16:13:15Z</time></trkpt><trkpt lat="44.89609022978947" lon="8.294398294446811"><ele>115.0</ele><time>2026-04-06T16:13:16Z</time></trkpt><trkpt lat="44.8961278690592" lon="8.294521888804386"><ele>115.0</ele><time>2026-04-06T16:13:17Z</time></trkpt><trkpt lat="44.896161626082616" lon="8.29462967330607"><ele>115.0</ele><time>2026-04-06T16:13:18Z</time></trkpt><trkpt lat="44.896192419704256" lon="8.294769842818589"><ele>115.0</ele><time>2026-04-06T16:13:19Z</time></trkpt><trkpt lat="44.89620898261927" lon="8.294917936458562"><ele>115.0</ele><time>2026-04-06T16:13:20Z</time></trkpt><trkpt lat="44.89623465758738" lon="8.295063120164253"><ele>115.0</ele><time>2026-04-06T16:13:21Z</time></trkpt><trkpt lat="44.896260715671296" lon="8.29522014668528"><ele>115.8</ele><time>2026-04-06T16:13:22Z</time></trkpt><trkpt lat="44.89628733255653" lon="8.295366029056217"><ele>116.6</ele><time>2026-04-06T16:13:23Z</time></trkpt><trkpt lat="44.89631075768312" lon="8.295512986606354"><ele>117.4</ele><time>2026-04-06T16:13:24Z</time></trkpt><trkpt lat="44.89633173712657" lon="8.29564352926316"><ele>118.2</ele><time>2026-04-06T16:13:25Z</time></trkpt><trkpt lat="44.896349219719106" lon="8.29576764582457"><ele>119.0</ele><time>2026-04-06T16:13:26Z</time></trkpt><trkpt lat="44.89635823817869" lon="8.29587541694662"><ele>119.0</ele><time>2026-04-06T16:13:27Z</time></trkpt><trkpt lat="44.89635766373224" lon="8.295981165572254"><ele>119.0</ele><time>2026-04-06T16:13:28Z</time></trkpt><trkpt lat="44.89635839037451" lon="8.296072547697213"><ele>119.0</ele><time>2026-04-06T16:13:29Z</time></trkpt><trkpt lat="44.89637593049113" lon="8.296166971631665"><ele>119.0</ele><time>2026-04-06T16:13:30Z</time></trkpt><trkpt lat="44.89641601575314" lon="8.29627058531606"><ele>119.0</ele><time>2026-04-06T16:13:31Z</time></trkpt><trkpt lat="44.89645122322274" lon="8.296360346687116"><ele>119.0</ele><time>2026-04-06T16:13:32Z</time></trkpt><trkpt lat="44.8964956611622" lon="8.296444121800985"><ele>119.0</ele><time>2026-04-06T16:13:34Z</time></trkpt><trkpt lat="44.89657952771751" lon="8.296457079936642"><ele>119.0</ele><time>2026-04-06T16:13:49.001Z</time></trkpt><trkpt lat="44.896640104557775" lon="8.2964146519365"><ele>119.0</ele><time>2026-04-06T16:13:50.001Z</time></trkpt><trkpt lat="44.8966965843138" lon="8.296348322804365"><ele>119.0</ele><time>2026-04-06T16:13:51.001Z</time></trkpt><trkpt lat="44.89676375659986" lon="8.296262247558612"><ele>119.0</ele><time>2026-04-06T16:13:52.001Z</time></trkpt><trkpt lat="44.89684084248258" lon="8.29616540147961"><ele>119.0</ele><time>2026-04-06T16:13:53.001Z</time></trkpt><trkpt lat="44.8969306349377" lon="8.296063363567074"><ele>118.6</ele><time>2026-04-06T16:13:54.001Z</time></trkpt><trkpt lat="44.89700751298633" lon="8.295969170924462"><ele>118.2</ele><time>2026-04-06T16:13:55.001Z</time></trkpt><trkpt lat="44.89707356432122" lon="8.295894223394875"><ele>117.79999999999998</ele><time>2026-04-06T16:13:56.001Z</time></trkpt><trkpt lat="44.89713432609981" lon="8.295830775814965"><ele>117.39999999999999</ele><time>2026-04-06T16:13:57.001Z</time></trkpt><trkpt lat="44.897230304373636" lon="8.29578787570071"><ele>117.0</ele><time>2026-04-06T16:13:59.001Z</time></trkpt><trkpt lat="44.897306642905356" lon="8.295894668295954"><ele>117.0</ele><time>2026-04-06T16:14:01.001Z</time></trkpt><trkpt lat="44.8973432408447" lon="8.295984116872866"><ele>117.0</ele><time>2026-04-06T16:14:02.001Z</time></trkpt><trkpt lat="44.89738714363114" lon="8.29607244979642"><ele>117.0</ele><time>2026-04-06T16:14:03.001Z</time></trkpt><trkpt lat="44.89743947421324" lon="8.29617747428266"><ele>117.0</ele><time>2026-04-06T16:14:04.001Z</time></trkpt><trkpt lat="44.89749407498529" lon="8.2962906155175"><ele>117.0</ele><time>2026-04-06T16:14:05.001Z</time></trkpt><trkpt lat="44.89755091274109" lon="8.296415291981948"><ele>117.0</ele><time>2026-04-06T16:14:06.001Z</time></trkpt><trkpt lat="44.89761621897875" lon="8.296543840498298"><ele>118.5</ele><time>2026-04-06T16:14:07.001Z</time></trkpt><trkpt lat="44.89768010732938" lon="8.2966759247144"><ele>120.0</ele><time>2026-04-06T16:14:08.001Z</time></trkpt><trkpt lat="44.89772731855108" lon="8.296836383066855"><ele>121.5</ele><time>2026-04-06T16:14:09.001Z</time></trkpt><trkpt lat="44.89779839230669" lon="8.296988369373327"><ele>123.0</ele><time>2026-04-06T16:14:10.001Z</time></trkpt><trkpt lat="44.89786931446473" lon="8.297140031505867"><ele>124.75</ele><time>2026-04-06T16:14:11.001Z</time></trkpt><trkpt lat="44.897941891317096" lon="8.297294648689668"><ele>126.5</ele><time>2026-04-06T16:14:12.001Z</time></trkpt><trkpt lat="44.89802863190223" lon="8.297428914407625"><ele>128.25</ele><time>2026-04-06T16:14:13.001Z</time></trkpt><trkpt lat="44.89810131562932" lon="8.297560931121449"><ele>130.0</ele><time>2026-04-06T16:14:14.001Z</time></trkpt><trkpt lat="44.898193013379284" lon="8.297679758603222"><ele>130.0</ele><time>2026-04-06T16:14:15.001Z</time></trkpt><trkpt lat="44.89829652053096" lon="8.297780423117757"><ele>130.0</ele><time>2026-04-06T16:14:16.001Z</time></trkpt><trkpt lat="44.89840134180022" lon="8.29788037568494"><ele>130.0</ele><time>2026-04-06T16:14:17Z</time></trkpt><trkpt lat="44.89849480635556" lon="8.297992356177422"><ele>130.0</ele><time>2026-04-06T16:14:18Z</time></trkpt><trkpt lat="44.89859491993902" lon="8.29808543764748"><ele>133.75</ele><time>2026-04-06T16:14:19Z</time></trkpt><trkpt lat="44.89870882744518" lon="8.298156440080206"><ele>137.5</ele><time>2026-04-06T16:14:20Z</time></trkpt><trkpt lat="44.89881540227797" lon="8.298244414377859"><ele>141.25</ele><time>2026-04-06T16:14:21Z</time></trkpt><trkpt lat="44.89892945750126" lon="8.298324744931532"><ele>145.0</ele><time>2026-04-06T16:14:22Z</time></trkpt><trkpt lat="44.89904618629796" lon="8.29840223336983"><ele>145.0</ele><time>2026-04-06T16:14:23Z</time></trkpt><trkpt lat="44.899169659230246" lon="8.298469535268467"><ele>145.0</ele><time>2026-04-06T16:14:24Z</time></trkpt><trkpt lat="44.89930316732616" lon="8.298532446295013"><ele>145.0</ele><time>2026-04-06T16:14:25Z</time></trkpt><trkpt lat="44.89942441166376" lon="8.298602998883615"><ele>145.0</ele><time>2026-04-06T16:14:26Z</time></trkpt><trkpt lat="44.89954733388021" lon="8.298676837249692"><ele>147.75</ele><time>2026-04-06T16:14:27Z</time></trkpt><trkpt lat="44.89966245678651" lon="8.298762946861688"><ele>150.5</ele><time>2026-04-06T16:14:28Z</time></trkpt><trkpt lat="44.899765294378284" lon="8.298861582916537"><ele>153.25</ele><time>2026-04-06T16:14:29Z</time></trkpt><trkpt lat="44.899854060709195" lon="8.298973225321896"><ele>156.0</ele><time>2026-04-06T16:14:30Z</time></trkpt><trkpt lat="44.89993185900549" lon="8.299077861176642"><ele>156.16666666666666</ele><time>2026-04-06T16:14:31Z</time></trkpt><trkpt lat="44.899997969465595" lon="8.29916321889709"><ele>156.33333333333334</ele><time>2026-04-06T16:14:32Z</time></trkpt><trkpt lat="44.90006113599751" lon="8.299232377627796"><ele>156.5</ele><time>2026-04-06T16:14:33Z</time></trkpt><trkpt lat="44.90013176037668" lon="8.299300016544695"><ele>156.66666666666669</ele><time>2026-04-06T16:14:34Z</time></trkpt><trkpt lat="44.90021123829568" lon="8.29935255036283"><ele>156.83333333333334</ele><time>2026-04-06T16:14:35Z</time></trkpt><trkpt lat="44.90029922516775" lon="8.29936299509119"><ele>157.0</ele><time>2026-04-06T16:14:36Z</time></trkpt><trkpt lat="44.90038036490746" lon="8.299334050089467"><ele>157.0</ele><time>2026-04-06T16:14:37Z</time></trkpt><trkpt lat="44.9004599470169" lon="8.299300093591127"><ele>157.0</ele><time>2026-04-06T16:14:38Z</time></trkpt><trkpt lat="44.90053783491272" lon="8.299291409698096"><ele>157.0</ele><time>2026-04-06T16:14:39Z</time></trkpt><trkpt lat="44.90060352521152" lon="8.299315629653062"><ele>157.0</ele><time>2026-04-06T16:14:40Z</time></trkpt><trkpt lat="44.900662413431554" lon="8.299374508072729"><ele>157.0</ele><time>2026-04-06T16:14:41Z</time></trkpt><trkpt lat="44.90070322185174" lon="8.2994633165221"><ele>157.0</ele><time>2026-04-06T16:14:42Z</time></trkpt><trkpt lat="44.900724474564875" lon="8.299572480548127"><ele>157.0</ele><time>2026-04-06T16:14:43Z</time></trkpt><trkpt lat="44.900746469809896" lon="8.299693811243282"><ele>157.0</ele><time>2026-04-06T16:14:44Z</time></trkpt><trkpt lat="44.900770459026006" lon="8.29982145132854"><ele>157.0</ele><time>2026-04-06T16:14:45Z</time></trkpt><trkpt lat="44.900802514055336" lon="8.299947842296936"><ele>157.0</ele><time>2026-04-06T16:14:46Z</time></trkpt><trkpt lat="44.90084911004912" lon="8.300079374463209"><ele>157.0</ele><time>2026-04-06T16:14:47Z</time></trkpt><trkpt lat="44.900912153729934" lon="8.300205145531537"><ele>155.5</ele><time>2026-04-06T16:14:48Z</time></trkpt><trkpt lat="44.90097891687563" lon="8.300328189805118"><ele>154.0</ele><time>2026-04-06T16:14:49Z</time></trkpt><trkpt lat="44.90104513719448" lon="8.300454074486622"><ele>152.5</ele><time>2026-04-06T16:14:50Z</time></trkpt><trkpt lat="44.90111412496892" lon="8.300579521191583"><ele>151.0</ele><time>2026-04-06T16:14:51Z</time></trkpt><trkpt lat="44.90118596979423" lon="8.30070947240952"><ele>149.75</ele><time>2026-04-06T16:14:52Z</time></trkpt><trkpt lat="44.901266050470795" lon="8.300842138435574"><ele>148.5</ele><time>2026-04-06T16:14:53Z</time></trkpt><trkpt lat="44.901341307543404" lon="8.300981151245596"><ele>147.25</ele><time>2026-04-06T16:14:54Z</time></trkpt><trkpt lat="44.901419004872814" lon="8.301116039761807"><ele>146.0</ele><time>2026-04-06T16:14:55Z</time></trkpt><trkpt lat="44.90149947613293" lon="8.301251841650512"><ele>146.0</ele><time>2026-04-06T16:14:56Z</time></trkpt><trkpt lat="44.90157821487958" lon="8.301393409590354"><ele>146.0</ele><time>2026-04-06T16:14:57Z</time></trkpt><trkpt lat="44.901660409428985" lon="8.301531159852733"><ele>146.0</ele><time>2026-04-06T16:14:58Z</time></trkpt><trkpt lat="44.901739966520346" lon="8.301674268171967"><ele>146.0</ele><time>2026-04-06T16:14:59Z</time></trkpt><trkpt lat="44.901839128789604" lon="8.301794068389952"><ele>145.25</ele><time>2026-04-06T16:15:00Z</time></trkpt><trkpt lat="44.9019406159507" lon="8.301906243172757"><ele>144.5</ele><time>2026-04-06T16:15:01Z</time></trkpt><trkpt lat="44.90203880747993" lon="8.30200755334349"><ele>143.75</ele><time>2026-04-06T16:15:02Z</time></trkpt><trkpt lat="44.90211853417149" lon="8.302103118272303"><ele>143.0</ele><time>2026-04-06T16:15:03Z</time></trkpt><trkpt lat="44.902191211279735" lon="8.302190916124301"><ele>144.16666666666666</ele><time>2026-04-06T16:15:04Z</time></trkpt><trkpt lat="44.90224260877505" lon="8.3022855699428"><ele>145.33333333333331</ele><time>2026-04-06T16:15:05Z</time></trkpt><trkpt lat="44.902265362628654" lon="8.302379672743275"><ele>146.5</ele><time>2026-04-06T16:15:06Z</time></trkpt><trkpt lat="44.90226914086954" lon="8.302484271587712"><ele>147.66666666666666</ele><time>2026-04-06T16:15:07Z</time></trkpt><trkpt lat="44.90223985695332" lon="8.302594801219985"><ele>148.83333333333334</ele><time>2026-04-06T16:15:08Z</time></trkpt><trkpt lat="44.90221023274851" lon="8.302709313231546"><ele>150.0</ele><time>2026-04-06T16:15:09Z</time></trkpt><trkpt lat="44.90221118750735" lon="8.302836435680913"><ele>150.0</ele><time>2026-04-06T16:15:10Z</time></trkpt><trkpt lat="44.9022394922852" lon="8.302960134122392"><ele>150.0</ele><time>2026-04-06T16:15:11Z</time></trkpt><trkpt lat="44.90229038849137" lon="8.303082489631096"><ele>150.0</ele><time>2026-04-06T16:15:12Z</time></trkpt><trkpt lat="44.902336149380936" lon="8.30319345010476"><ele>150.0</ele><time>2026-04-06T16:15:13Z</time></trkpt><trkpt lat="44.90237580197947" lon="8.303330201930892"><ele>150.0</ele><time>2026-04-06T16:15:15Z</time></trkpt><trkpt lat="44.90228908183509" lon="8.303390155703532"><ele>150.0</ele><time>2026-04-06T16:15:17Z</time></trkpt><trkpt lat="44.90223265283701" lon="8.30334402423157"><ele>150.0</ele><time>2026-04-06T16:15:18Z</time></trkpt><trkpt lat="44.902189047101665" lon="8.303239459659052"><ele>150.0</ele><time>2026-04-06T16:15:19Z</time></trkpt><trkpt lat="44.902151227699335" lon="8.303133282242253"><ele>150.0</ele><time>2026-04-06T16:15:20Z</time></trkpt><trkpt lat="44.902099710880286" lon="8.303057282539893"><ele>150.0</ele><time>2026-04-06T16:15:21Z</time></trkpt><trkpt lat="44.901983266526436" lon="8.303047605118381"><ele>150.0</ele><time>2026-04-06T16:15:23Z</time></trkpt><trkpt lat="44.90192863296" lon="8.303185960064484"><ele>151.66666666666666</ele><time>2026-04-06T16:15:25.001Z</time></trkpt><trkpt lat="44.90195125344681" lon="8.303272272278507"><ele>153.33333333333334</ele><time>2026-04-06T16:15:26.001Z</time></trkpt><trkpt lat="44.90199804234293" lon="8.303371180038214"><ele>155.0</ele><time>2026-04-06T16:15:27.001Z</time></trkpt><trkpt lat="44.902041734370194" lon="8.303481821667553"><ele>156.66666666666669</ele><time>2026-04-06T16:15:28.001Z</time></trkpt><trkpt lat="44.90205545689821" lon="8.303596092370494"><ele>158.33333333333334</ele><time>2026-04-06T16:15:29.001Z</time></trkpt><trkpt lat="44.90204386332435" lon="8.303697121330224"><ele>160.0</ele><time>2026-04-06T16:15:30.001Z</time></trkpt><trkpt lat="44.90201077310769" lon="8.303790844633053"><ele>160.0</ele><time>2026-04-06T16:15:31.001Z</time></trkpt><trkpt lat="44.90195856193668" lon="8.303876086669202"><ele>160.0</ele><time>2026-04-06T16:15:32.001Z</time></trkpt><trkpt lat="44.9019092406166" lon="8.303957154138065"><ele>160.0</ele><time>2026-04-06T16:15:33.001Z</time></trkpt><trkpt lat="44.9018832138135" lon="8.304039093225914"><ele>160.0</ele><time>2026-04-06T16:15:34.001Z</time></trkpt><trkpt lat="44.90188688659872" lon="8.304133013382122"><ele>160.0</ele><time>2026-04-06T16:15:35.001Z</time></trkpt><trkpt lat="44.901919868017195" lon="8.304236563612404"><ele>160.0</ele><time>2026-04-06T16:15:36.001Z</time></trkpt><trkpt lat="44.90196114231185" lon="8.30433963524226"><ele>161.4</ele><time>2026-04-06T16:15:37.001Z</time></trkpt><trkpt lat="44.90200044734929" lon="8.304448419864942"><ele>162.8</ele><time>2026-04-06T16:15:38.001Z</time></trkpt><trkpt lat="44.90203871852057" lon="8.304567421721325"><ele>164.2</ele><time>2026-04-06T16:15:39.001Z</time></trkpt><trkpt lat="44.902082815219266" lon="8.304693194506484"><ele>165.6</ele><time>2026-04-06T16:15:40.001Z</time></trkpt><trkpt lat="44.902126101563894" lon="8.304826001922152"><ele>167.0</ele><time>2026-04-06T16:15:41.001Z</time></trkpt><trkpt lat="44.90216796863413" lon="8.30496364567554"><ele>168.25</ele><time>2026-04-06T16:15:42.001Z</time></trkpt><trkpt lat="44.902207310046236" lon="8.305107162655714"><ele>169.5</ele><time>2026-04-06T16:15:43.001Z</time></trkpt><trkpt lat="44.90223844069809" lon="8.3052593411244"><ele>170.75</ele><time>2026-04-06T16:15:44.001Z</time></trkpt><trkpt lat="44.9022597068205" lon="8.305425627418881"><ele>172.0</ele><time>2026-04-06T16:15:45.001Z</time></trkpt><trkpt lat="44.90227756746865" lon="8.305578578887369"><ele>172.8</ele><time>2026-04-06T16:15:46.001Z</time></trkpt><trkpt lat="44.90229921403034" lon="8.305724720671538"><ele>173.6</ele><time>2026-04-06T16:15:47.001Z</time></trkpt><trkpt lat="44.902330177230844" lon="8.305868503660285"><ele>174.4</ele><time>2026-04-06T16:15:48.001Z</time></trkpt><trkpt lat="44.902376548346744" lon="8.30601220016014"><ele>175.20000000000002</ele><time>2026-04-06T16:15:49.001Z</time></trkpt><trkpt lat="44.90243902975534" lon="8.306150315885434"><ele>176.0</ele><time>2026-04-06T16:15:50.001Z</time></trkpt><trkpt lat="44.90250440641455" lon="8.306293457728952"><ele>175.75</ele><time>2026-04-06T16:15:51.001Z</time></trkpt><trkpt lat="44.902571874192965" lon="8.306437588685892"><ele>175.5</ele><time>2026-04-06T16:15:52.001Z</time></trkpt><trkpt lat="44.90263914764469" lon="8.306583388929804"><ele>175.25</ele><time>2026-04-06T16:15:53.001Z</time></trkpt><trkpt lat="44.90270389510954" lon="8.306725525166133"><ele>175.0</ele><time>2026-04-06T16:15:54.001Z</time></trkpt><trkpt lat="44.90277017488523" lon="8.306867065200144"><ele>174.5</ele><time>2026-04-06T16:15:55.001Z</time></trkpt><trkpt lat="44.902833603895026" lon="8.307011331019872"><ele>174.0</ele><time>2026-04-06T16:15:56.001Z</time></trkpt><trkpt lat="44.902890157727406" lon="8.307161638785592"><ele>173.5</ele><time>2026-04-06T16:15:57.001Z</time></trkpt><trkpt lat="44.9029445715476" lon="8.307319115687628"><ele>173.0</ele><time>2026-04-06T16:15:58.001Z</time></trkpt><trkpt lat="44.90299443315405" lon="8.307483001766856"><ele>173.0</ele><time>2026-04-06T16:15:59.001Z</time></trkpt><trkpt lat="44.90304075789202" lon="8.307654846654238"><ele>173.0</ele><time>2026-04-06T16:16:00.001Z</time></trkpt><trkpt lat="44.903076448931714" lon="8.307825746997564"><ele>173.0</ele><time>2026-04-06T16:16:01.001Z</time></trkpt><trkpt lat="44.90310441792" lon="8.307998994872765"><ele>173.0</ele><time>2026-04-06T16:16:02.001Z</time></trkpt><trkpt lat="44.903135857412394" lon="8.3081687998442"><ele>173.0</ele><time>2026-04-06T16:16:03.001Z</time></trkpt><trkpt lat="44.90317311860151" lon="8.308337587353975"><ele>173.0</ele><time>2026-04-06T16:16:04.001Z</time></trkpt><trkpt lat="44.90321570592253" lon="8.308504859268883"><ele>173.0</ele><time>2026-04-06T16:16:05.001Z</time></trkpt><trkpt lat="44.90326340438568" lon="8.30866797114937"><ele>173.0</ele><time>2026-04-06T16:16:06.001Z</time></trkpt><trkpt lat="44.903319798740334" lon="8.308825468372293"><ele>173.5</ele><time>2026-04-06T16:16:07.001Z</time></trkpt><trkpt lat="44.9033784162068" lon="8.308976110762021"><ele>174.0</ele><time>2026-04-06T16:16:08.001Z</time></trkpt><trkpt lat="44.90343981113917" lon="8.309126497984106"><ele>174.5</ele><time>2026-04-06T16:16:09.001Z</time></trkpt><trkpt lat="44.903499489200705" lon="8.309274931184278"><ele>175.0</ele><time>2026-04-06T16:16:10.001Z</time></trkpt><trkpt lat="44.90355480024661" lon="8.309425393870495"><ele>175.0</ele><time>2026-04-06T16:16:11.001Z</time></trkpt><trkpt lat="44.90361129742944" lon="8.309576583039965"><ele>175.0</ele><time>2026-04-06T16:16:12.001Z</time></trkpt><trkpt lat="44.90366742730222" lon="8.30972486250367"><ele>175.0</ele><time>2026-04-06T16:16:13.001Z</time></trkpt><trkpt lat="44.90372418176341" lon="8.30987416165222"><ele>175.0</ele><time>2026-04-06T16:16:14.001Z</time></trkpt><trkpt lat="44.90378094880064" lon="8.310018723065145"><ele>175.2</ele><time>2026-04-06T16:16:15.001Z</time></trkpt><trkpt lat="44.90383577012818" lon="8.310158013740608"><ele>175.4</ele><time>2026-04-06T16:16:16.001Z</time></trkpt><trkpt lat="44.90388094593369" lon="8.310295207361294"><ele>175.60000000000002</ele><time>2026-04-06T16:16:17.001Z</time></trkpt><trkpt lat="44.90393263873062" lon="8.310434746482436"><ele>175.8</ele><time>2026-04-06T16:16:18.001Z</time></trkpt><trkpt lat="44.903992300671106" lon="8.310573046163409"><ele>176.0</ele><time>2026-04-06T16:16:19.001Z</time></trkpt><trkpt lat="44.904054592064824" lon="8.310706251166174"><ele>176.0</ele><time>2026-04-06T16:16:20.001Z</time></trkpt><trkpt lat="44.90411983786675" lon="8.31083448240665"><ele>176.0</ele><time>2026-04-06T16:16:21.001Z</time></trkpt><trkpt lat="44.9041921799323" lon="8.310951936819208"><ele>176.0</ele><time>2026-04-06T16:16:22.001Z</time></trkpt><trkpt lat="44.90426572306906" lon="8.31106388212923"><ele>176.0</ele><time>2026-04-06T16:16:23Z</time></trkpt><trkpt lat="44.9043420568318" lon="8.311178286405802"><ele>176.0</ele><time>2026-04-06T16:16:24Z</time></trkpt><trkpt lat="44.90441997690343" lon="8.311298671827602"><ele>177.0</ele><time>2026-04-06T16:16:25Z</time></trkpt><trkpt lat="44.904497888738604" lon="8.31142082076711"><ele>178.0</ele><time>2026-04-06T16:16:26Z</time></trkpt><trkpt lat="44.904579788155985" lon="8.311538534463116"><ele>179.0</ele><time>2026-04-06T16:16:27Z</time></trkpt><trkpt lat="44.90466059461835" lon="8.311654273075439"><ele>180.0</ele><time>2026-04-06T16:16:28Z</time></trkpt><trkpt lat="44.90473009924229" lon="8.311778877509575"><ele>180.0</ele><time>2026-04-06T16:16:29Z</time></trkpt><trkpt lat="44.90479560474817" lon="8.31190477334372"><ele>180.0</ele><time>2026-04-06T16:16:30Z</time></trkpt><trkpt lat="44.90486450596161" lon="8.312030628315274"><ele>180.0</ele><time>2026-04-06T16:16:31Z</time></trkpt><trkpt lat="44.90492707170117" lon="8.31215958012287"><ele>180.0</ele><time>2026-04-06T16:16:32Z</time></trkpt><trkpt lat="44.90498922705553" lon="8.312292840840417"><ele>180.0</ele><time>2026-04-06T16:16:33Z</time></trkpt><trkpt lat="44.905047213312244" lon="8.312426487153386"><ele>180.2</ele><time>2026-04-06T16:16:34Z</time></trkpt><trkpt lat="44.90510144982114" lon="8.312562200388527"><ele>180.4</ele><time>2026-04-06T16:16:35Z</time></trkpt><trkpt lat="44.90515050971615" lon="8.312697585479052"><ele>180.60000000000002</ele><time>2026-04-06T16:16:36Z</time></trkpt><trkpt lat="44.90518798852188" lon="8.312840468769167"><ele>180.8</ele><time>2026-04-06T16:16:37Z</time></trkpt><trkpt lat="44.90522396209982" lon="8.312991460475665"><ele>181.0</ele><time>2026-04-06T16:16:38Z</time></trkpt><trkpt lat="44.905264246511535" lon="8.313136915354823"><ele>181.0</ele><time>2026-04-06T16:16:39Z</time></trkpt><trkpt lat="44.905305134598414" lon="8.313275467552694"><ele>181.0</ele><time>2026-04-06T16:16:40Z</time></trkpt><trkpt lat="44.90533712042502" lon="8.313425698885023"><ele>181.0</ele><time>2026-04-06T16:16:41Z</time></trkpt><trkpt lat="44.90538824631499" lon="8.3135558442719"><ele>181.0</ele><time>2026-04-06T16:16:42Z</time></trkpt><trkpt lat="44.90544377564742" lon="8.313679392738672"><ele>181.0</ele><time>2026-04-06T16:16:43Z</time></trkpt><trkpt lat="44.90549933284472" lon="8.31379586506088"><ele>182.0</ele><time>2026-04-06T16:16:44Z</time></trkpt><trkpt lat="44.90554695010824" lon="8.313915882864809"><ele>183.0</ele><time>2026-04-06T16:16:45Z</time></trkpt><trkpt lat="44.90557602124688" lon="8.314053530549337"><ele>184.0</ele><time>2026-04-06T16:16:46Z</time></trkpt><trkpt lat="44.90561167052081" lon="8.314194422282263"><ele>185.0</ele><time>2026-04-06T16:16:47Z</time></trkpt><trkpt lat="44.905654292106654" lon="8.314337615951628"><ele>186.0</ele><time>2026-04-06T16:16:48Z</time></trkpt><trkpt lat="44.90571756592708" lon="8.314456278739993"><ele>186.0</ele><time>2026-04-06T16:16:49Z</time></trkpt><trkpt lat="44.905796603617034" lon="8.314563137674272"><ele>186.0</ele><time>2026-04-06T16:16:50Z</time></trkpt><trkpt lat="44.90589970640882" lon="8.314643649600546"><ele>186.0</ele><time>2026-04-06T16:16:51Z</time></trkpt><trkpt lat="44.905990698852996" lon="8.314739967620488"><ele>186.0</ele><time>2026-04-06T16:16:52Z</time></trkpt><trkpt lat="44.906074677714564" lon="8.314839187303152"><ele>185.75</ele><time>2026-04-06T16:16:53Z</time></trkpt><trkpt lat="44.90616332400849" lon="8.314936825234053"><ele>185.5</ele><time>2026-04-06T16:16:54Z</time></trkpt><trkpt lat="44.906253694982375" lon="8.315029391066174"><ele>185.25</ele><time>2026-04-06T16:16:55Z</time></trkpt><trkpt lat="44.906342640814124" lon="8.315129850543842"><ele>185.0</ele><time>2026-04-06T16:16:56Z</time></trkpt><trkpt lat="44.90642821513584" lon="8.315240593153737"><ele>185.0</ele><time>2026-04-06T16:16:57Z</time></trkpt><trkpt lat="44.90651856333043" lon="8.315346483289847"><ele>185.0</ele><time>2026-04-06T16:16:58Z</time></trkpt><trkpt lat="44.90661091556325" lon="8.315445150297327"><ele>185.0</ele><time>2026-04-06T16:16:59Z</time></trkpt><trkpt lat="44.90670263391468" lon="8.315534142892107"><ele>185.0</ele><time>2026-04-06T16:17:00Z</time></trkpt><trkpt lat="44.90679834832698" lon="8.31560786462147"><ele>186.0</ele><time>2026-04-06T16:17:01Z</time></trkpt><trkpt lat="44.90689883578502" lon="8.315657752283107"><ele>187.0</ele><time>2026-04-06T16:17:02Z</time></trkpt><trkpt lat="44.906985061095526" lon="8.315715081965902"><ele>188.0</ele><time>2026-04-06T16:17:03Z</time></trkpt><trkpt lat="44.907064956843506" lon="8.315751402665677"><ele>189.0</ele><time>2026-04-06T16:17:04Z</time></trkpt><trkpt lat="44.90716552927281" lon="8.315785334964643"><ele>190.0</ele><time>2026-04-06T16:17:05Z</time></trkpt><trkpt lat="44.907241374298835" lon="8.31581566264644"><ele>190.0</ele><time>2026-04-06T16:17:06Z</time></trkpt><trkpt lat="44.90730847623068" lon="8.315845102812835"><ele>190.0</ele><time>2026-04-06T16:17:07Z</time></trkpt><trkpt lat="44.90736932593545" lon="8.315891911129215"><ele>190.0</ele><time>2026-04-06T16:17:08Z</time></trkpt><trkpt lat="44.90745056786488" lon="8.315846788982972"><ele>190.0</ele><time>2026-04-06T16:17:09Z</time></trkpt><trkpt lat="44.90753123998191" lon="8.31582009616479"><ele>190.0</ele><time>2026-04-06T16:17:10Z</time></trkpt><trkpt lat="44.907611167054" lon="8.315798392668048"><ele>190.0</ele><time>2026-04-06T16:17:11Z</time></trkpt><trkpt lat="44.90769806810766" lon="8.315783801651557"><ele>190.0</ele><time>2026-04-06T16:17:12Z</time></trkpt><trkpt lat="44.90778944675291" lon="8.31581176839831"><ele>190.0</ele><time>2026-04-06T16:17:13Z</time></trkpt><trkpt lat="44.90788952177422" lon="8.31581585227376"><ele>190.0</ele><time>2026-04-06T16:17:14Z</time></trkpt><trkpt lat="44.90799120274897" lon="8.315820001668305"><ele>190.0</ele><time>2026-04-06T16:17:15Z</time></trkpt><trkpt lat="44.90810334954325" lon="8.315824580128798"><ele>190.0</ele><time>2026-04-06T16:17:16Z</time></trkpt><trkpt lat="44.908207301003834" lon="8.315826720178364"><ele>190.0</ele><time>2026-04-06T16:17:17Z</time></trkpt><trkpt lat="44.908309497612656" lon="8.315828717370485"><ele>190.0</ele><time>2026-04-06T16:17:18Z</time></trkpt><trkpt lat="44.90840429983911" lon="8.31583048123442"><ele>190.0</ele><time>2026-04-06T16:17:19Z</time></trkpt><trkpt lat="44.90850696795306" lon="8.315832056732734"><ele>190.0</ele><time>2026-04-06T16:17:20Z</time></trkpt><trkpt lat="44.908606073648244" lon="8.315834784420629"><ele>190.0</ele><time>2026-04-06T16:17:21Z</time></trkpt><trkpt lat="44.9087121286935" lon="8.315839740571088"><ele>190.2</ele><time>2026-04-06T16:17:22Z</time></trkpt><trkpt lat="44.90880729023426" lon="8.315849318847372"><ele>190.4</ele><time>2026-04-06T16:17:23Z</time></trkpt><trkpt lat="44.90889381930543" lon="8.315870160759738"><ele>190.60000000000002</ele><time>2026-04-06T16:17:24Z</time></trkpt><trkpt lat="44.908988842083" lon="8.31592847415758"><ele>190.8</ele><time>2026-04-06T16:17:25Z</time></trkpt><trkpt lat="44.90906904920619" lon="8.316000988920592"><ele>191.0</ele><time>2026-04-06T16:17:26Z</time></trkpt><trkpt lat="44.90914717711083" lon="8.316075741735109"><ele>191.0</ele><time>2026-04-06T16:17:27.001Z</time></trkpt><trkpt lat="44.90921701369061" lon="8.316132287002127"><ele>191.0</ele><time>2026-04-06T16:17:28.001Z</time></trkpt><trkpt lat="44.909283727944675" lon="8.31620831563347"><ele>191.0</ele><time>2026-04-06T16:17:29.001Z</time></trkpt><trkpt lat="44.909347417523215" lon="8.316250368585441"><ele>191.0</ele><time>2026-04-06T16:17:30.001Z</time></trkpt><trkpt lat="44.9094000544148" lon="8.31630484863124"><ele>191.0</ele><time>2026-04-06T16:17:32.001Z</time></trkpt><trkpt lat="44.909321286787154" lon="8.31623451935694"><ele>191.0</ele><time>2026-04-06T16:17:35.001Z</time></trkpt><trkpt lat="44.90946908991873" lon="8.316108078881483"><ele>191.33333333333331</ele><time>2026-04-06T16:17:36.001Z</time></trkpt><trkpt lat="44.90947408753287" lon="8.316012225584231"><ele>191.66666666666666</ele><time>2026-04-06T16:17:37.001Z</time></trkpt><trkpt lat="44.90947852115147" lon="8.315917029413917"><ele>192.0</ele><time>2026-04-06T16:17:38.001Z</time></trkpt><trkpt lat="44.90948293913384" lon="8.315815417204082"><ele>192.33333333333331</ele><time>2026-04-06T16:17:39.001Z</time></trkpt><trkpt lat="44.90949263744502" lon="8.315693472294793"><ele>192.66666666666666</ele><time>2026-04-06T16:17:40.001Z</time></trkpt><trkpt lat="44.90950027467411" lon="8.315570253276595"><ele>193.0</ele><time>2026-04-06T16:17:41.001Z</time></trkpt><trkpt lat="44.909505751994864" lon="8.315431853927134"><ele>193.4</ele><time>2026-04-06T16:17:42.001Z</time></trkpt><trkpt lat="44.9095226072734" lon="8.315285360530916"><ele>193.8</ele><time>2026-04-06T16:17:43.001Z</time></trkpt><trkpt lat="44.90952655080713" lon="8.315173785268904"><ele>194.2</ele><time>2026-04-06T16:17:44.001Z</time></trkpt><trkpt lat="44.90952789094611" lon="8.315023111499789"><ele>194.6</ele><time>2026-04-06T16:17:46.001Z</time></trkpt><trkpt lat="44.90957575785775" lon="8.314947409695243"><ele>195.0</ele><time>2026-04-06T16:17:49.001Z</time></trkpt><trkpt lat="44.90968693694261" lon="8.315012664193329"><ele>195.0</ele><time>2026-04-06T16:17:51.001Z</time></trkpt><trkpt lat="44.909747513853006" lon="8.315082684064848"><ele>195.0</ele><time>2026-04-06T16:17:52.001Z</time></trkpt><trkpt lat="44.90982989992535" lon="8.315113682758147"><ele>195.0</ele><time>2026-04-06T16:17:53.001Z</time></trkpt><trkpt lat="44.9099182384608" lon="8.315158000008921"><ele>195.0</ele><time>2026-04-06T16:17:54.001Z</time></trkpt><trkpt lat="44.91001244077149" lon="8.315211163439233"><ele>195.0</ele><time>2026-04-06T16:17:55.001Z</time></trkpt><trkpt lat="44.91010711010971" lon="8.315271882854894"><ele>194.75</ele><time>2026-04-06T16:17:56.001Z</time></trkpt><trkpt lat="44.91020519931292" lon="8.315344186890988"><ele>194.5</ele><time>2026-04-06T16:17:57.001Z</time></trkpt><trkpt lat="44.910300093497874" lon="8.315432036713487"><ele>194.25</ele><time>2026-04-06T16:17:58.001Z</time></trkpt><trkpt lat="44.9104063983648" lon="8.315521643623589"><ele>194.0</ele><time>2026-04-06T16:17:59.001Z</time></trkpt><trkpt lat="44.91049256161539" lon="8.315606365476338"><ele>194.0</ele><time>2026-04-06T16:18:00.001Z</time></trkpt><trkpt lat="44.9105977246435" lon="8.31567689603022"><ele>194.0</ele><time>2026-04-06T16:18:01.001Z</time></trkpt><trkpt lat="44.9107089671438" lon="8.315738969480755"><ele>194.0</ele><time>2026-04-06T16:18:02.001Z</time></trkpt><trkpt lat="44.91080858656571" lon="8.315824940608195"><ele>194.0</ele><time>2026-04-06T16:18:03.001Z</time></trkpt><trkpt lat="44.91090716011567" lon="8.31588503649805"><ele>194.0</ele><time>2026-04-06T16:18:04.001Z</time></trkpt><trkpt lat="44.9110082745224" lon="8.315946681355687"><ele>194.0</ele><time>2026-04-06T16:18:05.001Z</time></trkpt><trkpt lat="44.91111046704632" lon="8.316010114352618"><ele>194.0</ele><time>2026-04-06T16:18:06.001Z</time></trkpt><trkpt lat="44.91121420213985" lon="8.316074982646553"><ele>194.0</ele><time>2026-04-06T16:18:07.001Z</time></trkpt><trkpt lat="44.91131741809666" lon="8.316139526254043"><ele>194.0</ele><time>2026-04-06T16:18:08.001Z</time></trkpt><trkpt lat="44.911425100381855" lon="8.31618002352707"><ele>194.0</ele><time>2026-04-06T16:18:09.001Z</time></trkpt><trkpt lat="44.91152647526211" lon="8.31624207432336"><ele>194.0</ele><time>2026-04-06T16:18:10.001Z</time></trkpt><trkpt lat="44.91162896588987" lon="8.316303753077104"><ele>194.0</ele><time>2026-04-06T16:18:11.001Z</time></trkpt><trkpt lat="44.91172862555033" lon="8.31638307077919"><ele>194.0</ele><time>2026-04-06T16:18:12.001Z</time></trkpt><trkpt lat="44.9118303278661" lon="8.316436220489836"><ele>194.0</ele><time>2026-04-06T16:18:13.001Z</time></trkpt><trkpt lat="44.911934534638775" lon="8.316477980584901"><ele>194.2</ele><time>2026-04-06T16:18:14.001Z</time></trkpt><trkpt lat="44.9120366154663" lon="8.316489105002752"><ele>194.39999999999998</ele><time>2026-04-06T16:18:15.001Z</time></trkpt><trkpt lat="44.9121359207439" lon="8.316535511208393"><ele>194.6</ele><time>2026-04-06T16:18:16.001Z</time></trkpt><trkpt lat="44.912239637136345" lon="8.316549968349337"><ele>194.8</ele><time>2026-04-06T16:18:17.001Z</time></trkpt><trkpt lat="44.91234531417438" lon="8.316554443053231"><ele>195.0</ele><time>2026-04-06T16:18:18.001Z</time></trkpt><trkpt lat="44.912448589489365" lon="8.316522399264063"><ele>195.0</ele><time>2026-04-06T16:18:19.001Z</time></trkpt><trkpt lat="44.912550435130086" lon="8.316506060662755"><ele>195.0</ele><time>2026-04-06T16:18:20.001Z</time></trkpt><trkpt lat="44.91265340858955" lon="8.316502958241623"><ele>195.0</ele><time>2026-04-06T16:18:21.001Z</time></trkpt><trkpt lat="44.91275716765179" lon="8.316473448323608"><ele>195.0</ele><time>2026-04-06T16:18:22.001Z</time></trkpt><trkpt lat="44.912864833182596" lon="8.316442829243467"><ele>195.0</ele><time>2026-04-06T16:18:23.001Z</time></trkpt><trkpt lat="44.912976221425964" lon="8.316407502675181"><ele>196.5</ele><time>2026-04-06T16:18:24.001Z</time></trkpt><trkpt lat="44.91308710145357" lon="8.316364322396604"><ele>198.0</ele><time>2026-04-06T16:18:25.001Z</time></trkpt><trkpt lat="44.91319538634933" lon="8.316321178798734"><ele>199.5</ele><time>2026-04-06T16:18:26.001Z</time></trkpt><trkpt lat="44.91330314992009" lon="8.316281110008603"><ele>201.0</ele><time>2026-04-06T16:18:27.001Z</time></trkpt><trkpt lat="44.913412233350996" lon="8.316245875829118"><ele>201.25</ele><time>2026-04-06T16:18:28.001Z</time></trkpt><trkpt lat="44.913524881416784" lon="8.316211534430096"><ele>201.5</ele><time>2026-04-06T16:18:29Z</time></trkpt><trkpt lat="44.913646594324945" lon="8.316175694350163"><ele>201.75</ele><time>2026-04-06T16:18:30Z</time></trkpt><trkpt lat="44.91376246774647" lon="8.316141573796763"><ele>202.0</ele><time>2026-04-06T16:18:31Z</time></trkpt><trkpt lat="44.913880641056984" lon="8.316106776007203"><ele>202.0</ele><time>2026-04-06T16:18:32Z</time></trkpt><trkpt lat="44.91399313756344" lon="8.316080736177064"><ele>202.0</ele><time>2026-04-06T16:18:33Z</time></trkpt><trkpt lat="44.91410795394704" lon="8.31606164899458"><ele>202.0</ele><time>2026-04-06T16:18:34Z</time></trkpt><trkpt lat="44.91422195672978" lon="8.316049633453709"><ele>202.0</ele><time>2026-04-06T16:18:35Z</time></trkpt><trkpt lat="44.914341333044874" lon="8.316043612791011"><ele>201.75</ele><time>2026-04-06T16:18:36Z</time></trkpt><trkpt lat="44.91445964904037" lon="8.316039036329117"><ele>201.5</ele><time>2026-04-06T16:18:37Z</time></trkpt><trkpt lat="44.91457775646166" lon="8.316034952073775"><ele>201.25</ele><time>2026-04-06T16:18:38Z</time></trkpt><trkpt lat="44.9146929592991" lon="8.316027971221079"><ele>201.0</ele><time>2026-04-06T16:18:39Z</time></trkpt><trkpt lat="44.91480911548863" lon="8.316011881201614"><ele>201.0</ele><time>2026-04-06T16:18:40Z</time></trkpt><trkpt lat="44.91491871509094" lon="8.315989221159464"><ele>201.0</ele><time>2026-04-06T16:18:41Z</time></trkpt><trkpt lat="44.91502347764168" lon="8.315959944249743"><ele>201.0</ele><time>2026-04-06T16:18:42Z</time></trkpt><trkpt lat="44.91512245386557" lon="8.315926369407999"><ele>201.0</ele><time>2026-04-06T16:18:43Z</time></trkpt><trkpt lat="44.91521552644999" lon="8.315891131090318"><ele>201.0</ele><time>2026-04-06T16:18:44Z</time></trkpt><trkpt lat="44.91530768056223" lon="8.315852838163805"><ele>200.60000000000002</ele><time>2026-04-06T16:18:45Z</time></trkpt><trkpt lat="44.91539357596024" lon="8.315816367637794"><ele>200.2</ele><time>2026-04-06T16:18:46Z</time></trkpt><trkpt lat="44.9154792010069" lon="8.31578001189896"><ele>199.8</ele><time>2026-04-06T16:18:47Z</time></trkpt><trkpt lat="44.915569398710346" lon="8.315741714491406"><ele>199.39999999999998</ele><time>2026-04-06T16:18:48Z</time></trkpt><trkpt lat="44.91566161351973" lon="8.315703701078665"><ele>199.0</ele><time>2026-04-06T16:18:49Z</time></trkpt><trkpt lat="44.915750111748046" lon="8.315666813756291"><ele>198.99999999999997</ele><time>2026-04-06T16:18:50Z</time></trkpt><trkpt lat="44.915831987013654" lon="8.315632686983287"><ele>199.0</ele><time>2026-04-06T16:18:51Z</time></trkpt><trkpt lat="44.91591677301513" lon="8.315596802259883"><ele>199.0</ele><time>2026-04-06T16:18:52Z</time></trkpt><trkpt lat="44.9159962359201" lon="8.315562157104154"><ele>199.0</ele><time>2026-04-06T16:18:53Z</time></trkpt><trkpt lat="44.91607610397275" lon="8.31552733529923"><ele>198.99999999999997</ele><time>2026-04-06T16:18:54Z</time></trkpt><trkpt lat="44.916156996017065" lon="8.315492067047096"><ele>199.0</ele><time>2026-04-06T16:18:55Z</time></trkpt><trkpt lat="44.91623904521324" lon="8.31545635367165"><ele>198.99999999999997</ele><time>2026-04-06T16:18:56Z</time></trkpt><trkpt lat="44.91632280745415" lon="8.315421466214522"><ele>199.0</ele><time>2026-04-06T16:18:57Z</time></trkpt><trkpt lat="44.91641215965416" lon="8.315384250503833"><ele>199.0</ele><time>2026-04-06T16:18:58Z</time></trkpt><trkpt lat="44.91649315199477" lon="8.31535051672348"><ele>199.0</ele><time>2026-04-06T16:18:59Z</time></trkpt><trkpt lat="44.9165593948374" lon="8.315300126689113"><ele>198.99999999999997</ele><time>2026-04-06T16:19:00Z</time></trkpt><trkpt lat="44.91662525191762" lon="8.315279783528421"><ele>199.0</ele><time>2026-04-06T16:19:01Z</time></trkpt><trkpt lat="44.916714336203455" lon="8.315246064508901"><ele>198.39999999999998</ele><time>2026-04-06T16:19:03Z</time></trkpt><trkpt lat="44.916794106841934" lon="8.31527486147919"><ele>197.8</ele><time>2026-04-06T16:19:04Z</time></trkpt><trkpt lat="44.916883004738544" lon="8.315237822591458"><ele>197.2</ele><time>2026-04-06T16:19:05Z</time></trkpt><trkpt lat="44.916987881342116" lon="8.315137549478962"><ele>196.60000000000002</ele><time>2026-04-06T16:19:06Z</time></trkpt><trkpt lat="44.91708211887239" lon="8.315029838882905"><ele>196.0</ele><time>2026-04-06T16:19:07Z</time></trkpt><trkpt lat="44.91717129596054" lon="8.314947311128746"><ele>196.0</ele><time>2026-04-06T16:19:08Z</time></trkpt><trkpt lat="44.91725348080229" lon="8.31488875049312"><ele>196.0</ele><time>2026-04-06T16:19:09Z</time></trkpt><trkpt lat="44.91735732361282" lon="8.314821419561955"><ele>196.0</ele><time>2026-04-06T16:19:10Z</time></trkpt><trkpt lat="44.917436279361084" lon="8.314744160124569"><ele>196.0</ele><time>2026-04-06T16:19:11Z</time></trkpt><trkpt lat="44.917518723478516" lon="8.314662435465658"><ele>196.0</ele><time>2026-04-06T16:19:12Z</time></trkpt><trkpt lat="44.91759534376984" lon="8.314556008610568"><ele>195.75</ele><time>2026-04-06T16:19:13Z</time></trkpt><trkpt lat="44.917676650371334" lon="8.31441450508753"><ele>195.5</ele><time>2026-04-06T16:19:14Z</time></trkpt><trkpt lat="44.91776284163649" lon="8.314286070070084"><ele>195.25</ele><time>2026-04-06T16:19:15Z</time></trkpt><trkpt lat="44.917839802185505" lon="8.314154577266303"><ele>195.0</ele><time>2026-04-06T16:19:16Z</time></trkpt><trkpt lat="44.91791724530144" lon="8.314040975271439"><ele>195.0</ele><time>2026-04-06T16:19:17Z</time></trkpt><trkpt lat="44.917993645812906" lon="8.313919499128032"><ele>195.0</ele><time>2026-04-06T16:19:18Z</time></trkpt><trkpt lat="44.918072282889995" lon="8.313826525001211"><ele>195.0</ele><time>2026-04-06T16:19:19Z</time></trkpt><trkpt lat="44.91814007479034" lon="8.313722365090792"><ele>195.0</ele><time>2026-04-06T16:19:20Z</time></trkpt><trkpt lat="44.9182056089324" lon="8.31363078810726"><ele>195.0</ele><time>2026-04-06T16:19:21Z</time></trkpt><trkpt lat="44.91827180669053" lon="8.313555610227587"><ele>195.16666666666666</ele><time>2026-04-06T16:19:22Z</time></trkpt><trkpt lat="44.918334512409395" lon="8.313493563199872"><ele>195.33333333333331</ele><time>2026-04-06T16:19:23Z</time></trkpt><trkpt lat="44.91839536388203" lon="8.31344022412458"><ele>195.5</ele><time>2026-04-06T16:19:24Z</time></trkpt><trkpt lat="44.91847758225729" lon="8.313379378594156"><ele>195.66666666666666</ele><time>2026-04-06T16:19:25Z</time></trkpt><trkpt lat="44.91855323747376" lon="8.313326893464467"><ele>195.83333333333331</ele><time>2026-04-06T16:19:26Z</time></trkpt><trkpt lat="44.91862832875129" lon="8.313273300859962"><ele>196.0</ele><time>2026-04-06T16:19:27Z</time></trkpt><trkpt lat="44.918704481180754" lon="8.313226662452598"><ele>194.83333333333331</ele><time>2026-04-06T16:19:28Z</time></trkpt><trkpt lat="44.91878262948628" lon="8.313196588833954"><ele>193.66666666666666</ele><time>2026-04-06T16:19:29.001Z</time></trkpt><trkpt lat="44.91885954227158" lon="8.313194088768341"><ele>192.5</ele><time>2026-04-06T16:19:30.001Z</time></trkpt><trkpt lat="44.918936279824365" lon="8.313210842517174"><ele>191.33333333333331</ele><time>2026-04-06T16:19:31.001Z</time></trkpt><trkpt lat="44.919019765786516" lon="8.31324729086688"><ele>190.16666666666666</ele><time>2026-04-06T16:19:32.001Z</time></trkpt><trkpt lat="44.91910910729003" lon="8.313290128673302"><ele>189.0</ele><time>2026-04-06T16:19:33.001Z</time></trkpt><trkpt lat="44.91919041339474" lon="8.313321832718971"><ele>186.83333333333334</ele><time>2026-04-06T16:19:34.001Z</time></trkpt><trkpt lat="44.91928376959333" lon="8.313324673150046"><ele>184.66666666666666</ele><time>2026-04-06T16:19:35.001Z</time></trkpt><trkpt lat="44.91937515641017" lon="8.31329514546308"><ele>182.5</ele><time>2026-04-06T16:19:36.001Z</time></trkpt><trkpt lat="44.919451936039664" lon="8.313291465759402"><ele>180.33333333333331</ele><time>2026-04-06T16:19:37.001Z</time></trkpt><trkpt lat="44.91953245212941" lon="8.313287293350701"><ele>178.16666666666666</ele><time>2026-04-06T16:19:38.001Z</time></trkpt><trkpt lat="44.919620688277135" lon="8.313292798791714"><ele>176.0</ele><time>2026-04-06T16:19:39.001Z</time></trkpt><trkpt lat="44.91970939761374" lon="8.313240610427126"><ele>176.0</ele><time>2026-04-06T16:19:40.001Z</time></trkpt><trkpt lat="44.91980229212491" lon="8.313176070228689"><ele>176.0</ele><time>2026-04-06T16:19:41.001Z</time></trkpt><trkpt lat="44.91990587970566" lon="8.313097798486975"><ele>176.0</ele><time>2026-04-06T16:19:42.001Z</time></trkpt><trkpt lat="44.919995895562366" lon="8.31303202776941"><ele>176.0</ele><time>2026-04-06T16:19:43.001Z</time></trkpt><trkpt lat="44.92008356442901" lon="8.312967971897884"><ele>176.0</ele><time>2026-04-06T16:19:44.001Z</time></trkpt><trkpt lat="44.92018182537041" lon="8.312898875236224"><ele>176.4</ele><time>2026-04-06T16:19:45.001Z</time></trkpt><trkpt lat="44.920285667824835" lon="8.312842220955076"><ele>176.8</ele><time>2026-04-06T16:19:46.001Z</time></trkpt><trkpt lat="44.92037057789662" lon="8.312770448847546"><ele>177.20000000000002</ele><time>2026-04-06T16:19:47.001Z</time></trkpt><trkpt lat="44.92046054271985" lon="8.312735106108857"><ele>177.60000000000002</ele><time>2026-04-06T16:19:48.001Z</time></trkpt><trkpt lat="44.920539908209186" lon="8.31268413100121"><ele>178.0</ele><time>2026-04-06T16:19:49.001Z</time></trkpt><trkpt lat="44.92062692561786" lon="8.31263536049483"><ele>178.0</ele><time>2026-04-06T16:19:50.001Z</time></trkpt><trkpt lat="44.920706144516984" lon="8.312573923660556"><ele>178.0</ele><time>2026-04-06T16:19:51.001Z</time></trkpt><trkpt lat="44.92078330580807" lon="8.312500766254617"><ele>178.0</ele><time>2026-04-06T16:19:52.001Z</time></trkpt><trkpt lat="44.920852327666324" lon="8.312425905131011"><ele>178.0</ele><time>2026-04-06T16:19:53.001Z</time></trkpt><trkpt lat="44.920915095493946" lon="8.312339312402528"><ele>178.0</ele><time>2026-04-06T16:19:54.001Z</time></trkpt><trkpt lat="44.9209697869032" lon="8.31224755205944"><ele>178.0</ele><time>2026-04-06T16:19:55.001Z</time></trkpt><trkpt lat="44.92102422807798" lon="8.312169690199424"><ele>178.0</ele><time>2026-04-06T16:19:56.001Z</time></trkpt><trkpt lat="44.92104042261254" lon="8.312077421416648"><ele>178.0</ele><time>2026-04-06T16:19:57.001Z</time></trkpt><trkpt lat="44.92104668517391" lon="8.311946656272314"><ele>178.0</ele><time>2026-04-06T16:19:59.001Z</time></trkpt><trkpt lat="44.921102108811276" lon="8.311841037630739"><ele>178.0</ele><time>2026-04-06T16:20:02.001Z</time></trkpt><trkpt lat="44.92112982646695" lon="8.312106452001247"><ele>178.0</ele><time>2026-04-06T16:20:04.001Z</time></trkpt><trkpt lat="44.92114407622793" lon="8.312250504628507"><ele>178.0</ele><time>2026-04-06T16:20:05.001Z</time></trkpt><trkpt lat="44.921167799652196" lon="8.312367610255324"><ele>178.0</ele><time>2026-04-06T16:20:06.001Z</time></trkpt><trkpt lat="44.92117064299895" lon="8.312486434512662"><ele>178.0</ele><time>2026-04-06T16:20:07.001Z</time></trkpt><trkpt lat="44.92115276258759" lon="8.312603042593842"><ele>178.0</ele><time>2026-04-06T16:20:08.001Z</time></trkpt><trkpt lat="44.92111241273283" lon="8.312711802367808"><ele>178.0</ele><time>2026-04-06T16:20:09.001Z</time></trkpt><trkpt lat="44.92105739804557" lon="8.31283812960213"><ele>178.0</ele><time>2026-04-06T16:20:10.001Z</time></trkpt><trkpt lat="44.92100455607049" lon="8.312942324639206"><ele>178.0</ele><time>2026-04-06T16:20:11.001Z</time></trkpt><trkpt lat="44.92093074419251" lon="8.313071890077868"><ele>178.0</ele><time>2026-04-06T16:20:12.001Z</time></trkpt><trkpt lat="44.92086143320241" lon="8.313196782832977"><ele>178.0</ele><time>2026-04-06T16:20:13.001Z</time></trkpt><trkpt lat="44.9208036433269" lon="8.313320284139877"><ele>178.0</ele><time>2026-04-06T16:20:14.001Z</time></trkpt><trkpt lat="44.92076272748202" lon="8.313463842601381"><ele>178.0</ele><time>2026-04-06T16:20:15.001Z</time></trkpt><trkpt lat="44.920728654984735" lon="8.313626395850841"><ele>177.25</ele><time>2026-04-06T16:20:16.001Z</time></trkpt><trkpt lat="44.92070030853509" lon="8.313795404159283"><ele>176.5</ele><time>2026-04-06T16:20:17.001Z</time></trkpt><trkpt lat="44.92067103771256" lon="8.313956648064735"><ele>175.75</ele><time>2026-04-06T16:20:18.001Z</time></trkpt><trkpt lat="44.920636769983474" lon="8.314100008107637"><ele>175.0</ele><time>2026-04-06T16:20:19.001Z</time></trkpt><trkpt lat="44.920604732187066" lon="8.31424777191203"><ele>175.0</ele><time>2026-04-06T16:20:20.001Z</time></trkpt><trkpt lat="44.92057567545733" lon="8.314382830135006"><ele>175.0</ele><time>2026-04-06T16:20:21.001Z</time></trkpt><trkpt lat="44.92054381389947" lon="8.314517082651516"><ele>175.0</ele><time>2026-04-06T16:20:22.001Z</time></trkpt><trkpt lat="44.920521418136396" lon="8.314660443794237"><ele>175.0</ele><time>2026-04-06T16:20:23.001Z</time></trkpt><trkpt lat="44.92051256124506" lon="8.31480991566987"><ele>175.0</ele><time>2026-04-06T16:20:24.001Z</time></trkpt><trkpt lat="44.92051935382558" lon="8.314961574223219"><ele>175.6</ele><time>2026-04-06T16:20:25.001Z</time></trkpt><trkpt lat="44.92052203423353" lon="8.315116208310153"><ele>176.2</ele><time>2026-04-06T16:20:26.001Z</time></trkpt><trkpt lat="44.92055536620716" lon="8.31526458524625"><ele>176.8</ele><time>2026-04-06T16:20:27.001Z</time></trkpt><trkpt lat="44.920590029501284" lon="8.315420534123955"><ele>177.4</ele><time>2026-04-06T16:20:28.001Z</time></trkpt><trkpt lat="44.92061801600573" lon="8.315561826876012"><ele>178.0</ele><time>2026-04-06T16:20:29.001Z</time></trkpt><trkpt lat="44.92062920747809" lon="8.315719565166686"><ele>178.0</ele><time>2026-04-06T16:20:30.001Z</time></trkpt><trkpt lat="44.92065243906181" lon="8.315881594590577"><ele>178.0</ele><time>2026-04-06T16:20:31.001Z</time></trkpt><trkpt lat="44.92064774240905" lon="8.316046244811503"><ele>178.0</ele><time>2026-04-06T16:20:32.001Z</time></trkpt><trkpt lat="44.920637829517844" lon="8.316218712376118"><ele>178.0</ele><time>2026-04-06T16:20:33.001Z</time></trkpt><trkpt lat="44.92063120581797" lon="8.31639550103814"><ele>177.0</ele><time>2026-04-06T16:20:34.001Z</time></trkpt><trkpt lat="44.92062738111766" lon="8.316565855595387"><ele>176.0</ele><time>2026-04-06T16:20:35Z</time></trkpt><trkpt lat="44.920623254951174" lon="8.316730683103378"><ele>175.0</ele><time>2026-04-06T16:20:36Z</time></trkpt><trkpt lat="44.92061419304748" lon="8.31690135167316"><ele>174.0</ele><time>2026-04-06T16:20:37Z</time></trkpt><trkpt lat="44.920601045526" lon="8.317069716584049"><ele>174.0</ele><time>2026-04-06T16:20:38Z</time></trkpt><trkpt lat="44.920583953222" lon="8.317232251675453"><ele>174.0</ele><time>2026-04-06T16:20:39Z</time></trkpt><trkpt lat="44.92056773239978" lon="8.317392001562569"><ele>174.0</ele><time>2026-04-06T16:20:40Z</time></trkpt><trkpt lat="44.9205461866159" lon="8.317555007885304"><ele>174.0</ele><time>2026-04-06T16:20:41Z</time></trkpt><trkpt lat="44.92052085937794" lon="8.317712677290343"><ele>174.39999999999998</ele><time>2026-04-06T16:20:42Z</time></trkpt><trkpt lat="44.920496440878004" lon="8.317865879847194"><ele>174.8</ele><time>2026-04-06T16:20:43Z</time></trkpt><trkpt lat="44.920467114568055" lon="8.318015103529673"><ele>175.2</ele><time>2026-04-06T16:20:44Z</time></trkpt><trkpt lat="44.92043745360568" lon="8.318168640551285"><ele>175.60000000000002</ele><time>2026-04-06T16:20:45Z</time></trkpt><trkpt lat="44.92040419654162" lon="8.318321220684265"><ele>176.0</ele><time>2026-04-06T16:20:46Z</time></trkpt><trkpt lat="44.920353160180625" lon="8.318455835269738"><ele>177.0</ele><time>2026-04-06T16:20:47Z</time></trkpt><trkpt lat="44.92031565145647" lon="8.318580062392485"><ele>178.0</ele><time>2026-04-06T16:20:48Z</time></trkpt><trkpt lat="44.920266759848104" lon="8.318693252937049"><ele>179.0</ele><time>2026-04-06T16:20:49Z</time></trkpt><trkpt lat="44.92023310316302" lon="8.31880952993336"><ele>180.0</ele><time>2026-04-06T16:20:50Z</time></trkpt><trkpt lat="44.920193865218124" lon="8.318939301244258"><ele>181.0</ele><time>2026-04-06T16:20:51Z</time></trkpt><trkpt lat="44.92017345378692" lon="8.31906937643561"><ele>181.0</ele><time>2026-04-06T16:20:52Z</time></trkpt><trkpt lat="44.92018009693295" lon="8.319195065114348"><ele>181.0</ele><time>2026-04-06T16:20:53Z</time></trkpt><trkpt lat="44.92020429779242" lon="8.319355192701641"><ele>181.0</ele><time>2026-04-06T16:20:54Z</time></trkpt><trkpt lat="44.92022393644171" lon="8.319525152275572"><ele>181.0</ele><time>2026-04-06T16:20:55Z</time></trkpt><trkpt lat="44.920239396233406" lon="8.31969488609368"><ele>181.0</ele><time>2026-04-06T16:20:56Z</time></trkpt><trkpt lat="44.92025782959521" lon="8.319874443475012"><ele>181.25</ele><time>2026-04-06T16:20:57Z</time></trkpt><trkpt lat="44.92026991358156" lon="8.320060738621146"><ele>181.5</ele><time>2026-04-06T16:20:58Z</time></trkpt><trkpt lat="44.92028332921236" lon="8.32024211765011"><ele>181.75</ele><time>2026-04-06T16:20:59Z</time></trkpt><trkpt lat="44.9202990248084" lon="8.320420843424056"><ele>182.0</ele><time>2026-04-06T16:21:00Z</time></trkpt><trkpt lat="44.920314325012086" lon="8.320606030434702"><ele>182.0</ele><time>2026-04-06T16:21:01Z</time></trkpt><trkpt lat="44.92032614541012" lon="8.320786355874016"><ele>182.0</ele><time>2026-04-06T16:21:02Z</time></trkpt><trkpt lat="44.920333139501636" lon="8.320961695649867"><ele>182.0</ele><time>2026-04-06T16:21:03Z</time></trkpt><trkpt lat="44.92033850403314" lon="8.321128146104682"><ele>182.0</ele><time>2026-04-06T16:21:04Z</time></trkpt><trkpt lat="44.92033608861192" lon="8.321292424313906"><ele>180.75</ele><time>2026-04-06T16:21:05Z</time></trkpt><trkpt lat="44.920322802869194" lon="8.321449313227294"><ele>179.5</ele><time>2026-04-06T16:21:06Z</time></trkpt><trkpt lat="44.92030128221324" lon="8.321608511954702"><ele>178.25</ele><time>2026-04-06T16:21:07Z</time></trkpt><trkpt lat="44.92027076986794" lon="8.321787293341002"><ele>177.0</ele><time>2026-04-06T16:21:08Z</time></trkpt><trkpt lat="44.920246451029634" lon="8.321978907351925"><ele>177.0</ele><time>2026-04-06T16:21:09Z</time></trkpt><trkpt lat="44.920223578284755" lon="8.322157088550801"><ele>177.0</ele><time>2026-04-06T16:21:10Z</time></trkpt><trkpt lat="44.920196367265376" lon="8.322327054966687"><ele>177.0</ele><time>2026-04-06T16:21:11Z</time></trkpt><trkpt lat="44.920163358252914" lon="8.322489781655294"><ele>177.0</ele><time>2026-04-06T16:21:12Z</time></trkpt><trkpt lat="44.92012644529619" lon="8.322654470024892"><ele>176.0</ele><time>2026-04-06T16:21:13Z</time></trkpt><trkpt lat="44.9200844742129" lon="8.322823240466835"><ele>175.0</ele><time>2026-04-06T16:21:14Z</time></trkpt><trkpt lat="44.920043614737374" lon="8.322997005357486"><ele>174.0</ele><time>2026-04-06T16:21:15Z</time></trkpt><trkpt lat="44.9200049710909" lon="8.32316517922508"><ele>173.0</ele><time>2026-04-06T16:21:16Z</time></trkpt><trkpt lat="44.91996369037909" lon="8.323331811333256"><ele>171.0</ele><time>2026-04-06T16:21:17Z</time></trkpt><trkpt lat="44.919920433769164" lon="8.323493533593576"><ele>169.0</ele><time>2026-04-06T16:21:18Z</time></trkpt><trkpt lat="44.91987691597651" lon="8.323647244782583"><ele>167.0</ele><time>2026-04-06T16:21:19Z</time></trkpt><trkpt lat="44.91983079091333" lon="8.32379635959122"><ele>165.0</ele><time>2026-04-06T16:21:20Z</time></trkpt><trkpt lat="44.919794982183966" lon="8.323944363109742"><ele>164.8</ele><time>2026-04-06T16:21:21Z</time></trkpt><trkpt lat="44.919769771774796" lon="8.324090522250076"><ele>164.6</ele><time>2026-04-06T16:21:22Z</time></trkpt><trkpt lat="44.91975158882175" lon="8.324237269327453"><ele>164.39999999999998</ele><time>2026-04-06T16:21:23Z</time></trkpt><trkpt lat="44.91974794289538" lon="8.324377352907568"><ele>164.2</ele><time>2026-04-06T16:21:24Z</time></trkpt><trkpt lat="44.91975153122453" lon="8.324515001950584"><ele>164.0</ele><time>2026-04-06T16:21:25Z</time></trkpt><trkpt lat="44.91977473396748" lon="8.324653981857832"><ele>163.5</ele><time>2026-04-06T16:21:26Z</time></trkpt><trkpt lat="44.91980992777241" lon="8.324803923359575"><ele>163.0</ele><time>2026-04-06T16:21:27Z</time></trkpt><trkpt lat="44.91984882150445" lon="8.324968426898945"><ele>162.5</ele><time>2026-04-06T16:21:28Z</time></trkpt><trkpt lat="44.91988981747584" lon="8.325128809090643"><ele>162.0</ele><time>2026-04-06T16:21:29Z</time></trkpt><trkpt lat="44.91992405474108" lon="8.325280662770364"><ele>162.0</ele><time>2026-04-06T16:21:30Z</time></trkpt><trkpt lat="44.91995153669627" lon="8.325433601289237"><ele>162.0</ele><time>2026-04-06T16:21:31Z</time></trkpt><trkpt lat="44.919977943055734" lon="8.325591742473152"><ele>162.0</ele><time>2026-04-06T16:21:32Z</time></trkpt><trkpt lat="44.92000236831645" lon="8.325751525644538"><ele>162.0</ele><time>2026-04-06T16:21:33Z</time></trkpt><trkpt lat="44.920018076491836" lon="8.325913896705512"><ele>162.0</ele><time>2026-04-06T16:21:34Z</time></trkpt><trkpt lat="44.92004039481722" lon="8.32606125356145"><ele>162.0</ele><time>2026-04-06T16:21:35Z</time></trkpt><trkpt lat="44.92001503031726" lon="8.326267460296389"><ele>162.0</ele><time>2026-04-06T16:21:36.001Z</time></trkpt><trkpt lat="44.92001232176643" lon="8.326438851806001"><ele>162.0</ele><time>2026-04-06T16:21:37.001Z</time></trkpt><trkpt lat="44.920001427455894" lon="8.326608612866465"><ele>162.0</ele><time>2026-04-06T16:21:38.001Z</time></trkpt><trkpt lat="44.91997375403303" lon="8.326785217962785"><ele>162.0</ele><time>2026-04-06T16:21:39.001Z</time></trkpt><trkpt lat="44.91994222771747" lon="8.32695564463131"><ele>162.0</ele><time>2026-04-06T16:21:40.001Z</time></trkpt><trkpt lat="44.919918296640574" lon="8.32710372804017"><ele>162.0</ele><time>2026-04-06T16:21:41.001Z</time></trkpt><trkpt lat="44.91990823062178" lon="8.327275063481743"><ele>162.5</ele><time>2026-04-06T16:21:42.001Z</time></trkpt><trkpt lat="44.919911270385455" lon="8.327440363332782"><ele>163.0</ele><time>2026-04-06T16:21:43.001Z</time></trkpt><trkpt lat="44.91991541984757" lon="8.3276031929721"><ele>163.5</ele><time>2026-04-06T16:21:44.001Z</time></trkpt><trkpt lat="44.91991394021356" lon="8.327762648250914"><ele>164.0</ele><time>2026-04-06T16:21:45.001Z</time></trkpt><trkpt lat="44.9199004882619" lon="8.327927050639207"><ele>163.0</ele><time>2026-04-06T16:21:46.001Z</time></trkpt><trkpt lat="44.91987523325081" lon="8.328095938003607"><ele>162.0</ele><time>2026-04-06T16:21:47.001Z</time></trkpt><trkpt lat="44.919850560988415" lon="8.328273584955511"><ele>161.0</ele><time>2026-04-06T16:21:48.001Z</time></trkpt><trkpt lat="44.919824567074755" lon="8.328457490831475"><ele>160.0</ele><time>2026-04-06T16:21:49.001Z</time></trkpt><trkpt lat="44.91980315862179" lon="8.328622406153553"><ele>160.0</ele><time>2026-04-06T16:21:50.001Z</time></trkpt><trkpt lat="44.919781837302835" lon="8.328789569582698"><ele>160.0</ele><time>2026-04-06T16:21:51.001Z</time></trkpt><trkpt lat="44.91976395347876" lon="8.328984164661863"><ele>160.0</ele><time>2026-04-06T16:21:52.001Z</time></trkpt><trkpt lat="44.919749421249314" lon="8.329196008862695"><ele>160.0</ele><time>2026-04-06T16:21:53.001Z</time></trkpt><trkpt lat="44.91972903661036" lon="8.329426765066907"><ele>160.75</ele><time>2026-04-06T16:21:54.001Z</time></trkpt><trkpt lat="44.91969728678378" lon="8.329623229154635"><ele>161.5</ele><time>2026-04-06T16:21:55.001Z</time></trkpt><trkpt lat="44.9196787966148" lon="8.329791870071515"><ele>162.25</ele><time>2026-04-06T16:21:56.001Z</time></trkpt><trkpt lat="44.91965968565663" lon="8.329961100128212"><ele>163.0</ele><time>2026-04-06T16:21:57.001Z</time></trkpt><trkpt lat="44.91963999757476" lon="8.33011815760332"><ele>163.2</ele><time>2026-04-06T16:21:58.001Z</time></trkpt><trkpt lat="44.919623052350055" lon="8.330281635622612"><ele>163.4</ele><time>2026-04-06T16:21:59.001Z</time></trkpt><trkpt lat="44.919606782476116" lon="8.33042672426047"><ele>163.6</ele><time>2026-04-06T16:22:00.001Z</time></trkpt><trkpt lat="44.919584579223496" lon="8.330557405772725"><ele>163.79999999999998</ele><time>2026-04-06T16:22:01.001Z</time></trkpt><trkpt lat="44.91956584543598" lon="8.330704991975583"><ele>164.0</ele><time>2026-04-06T16:22:02.001Z</time></trkpt><trkpt lat="44.91952799124657" lon="8.330855270967545"><ele>164.0</ele><time>2026-04-06T16:22:03.001Z</time></trkpt><trkpt lat="44.9194959300103" lon="8.330968352203106"><ele>164.0</ele><time>2026-04-06T16:22:04.001Z</time></trkpt><trkpt lat="44.919463919329566" lon="8.33112776726212"><ele>164.0</ele><time>2026-04-06T16:22:05.001Z</time></trkpt><trkpt lat="44.91940300188763" lon="8.331284639191223"><ele>164.0</ele><time>2026-04-06T16:22:06.001Z</time></trkpt><trkpt lat="44.91936518273675" lon="8.331412191056152"><ele>164.0</ele><time>2026-04-06T16:22:07.001Z</time></trkpt><trkpt lat="44.91932610045398" lon="8.331521909670728"><ele>163.75</ele><time>2026-04-06T16:22:08.001Z</time></trkpt><trkpt lat="44.91929354207107" lon="8.331647807162335"><ele>163.5</ele><time>2026-04-06T16:22:09.001Z</time></trkpt><trkpt lat="44.919273848693265" lon="8.331811968188164"><ele>163.25</ele><time>2026-04-06T16:22:10.001Z</time></trkpt><trkpt lat="44.91927737237372" lon="8.331989596180039"><ele>163.0</ele><time>2026-04-06T16:22:11.001Z</time></trkpt><trkpt lat="44.91927424036168" lon="8.332175957428971"><ele>163.0</ele><time>2026-04-06T16:22:12.001Z</time></trkpt><trkpt lat="44.91927176830538" lon="8.332380146492888"><ele>163.0</ele><time>2026-04-06T16:22:13.001Z</time></trkpt><trkpt lat="44.91924276300466" lon="8.332541315878794"><ele>163.0</ele><time>2026-04-06T16:22:15.001Z</time></trkpt><trkpt lat="44.91926689316392" lon="8.332623686268638"><ele>163.0</ele><time>2026-04-06T16:22:16.001Z</time></trkpt><trkpt lat="44.91931596148814" lon="8.332821715118186"><ele>163.0</ele><time>2026-04-06T16:22:17.001Z</time></trkpt><trkpt lat="44.919375870241645" lon="8.332947246592626"><ele>163.0</ele><time>2026-04-06T16:22:18.001Z</time></trkpt><trkpt lat="44.91945516731396" lon="8.333068799160795"><ele>163.0</ele><time>2026-04-06T16:22:19.001Z</time></trkpt><trkpt lat="44.91954964349189" lon="8.33320786967632"><ele>163.0</ele><time>2026-04-06T16:22:20.001Z</time></trkpt><trkpt lat="44.91963389937017" lon="8.333349803485884"><ele>164.0</ele><time>2026-04-06T16:22:21.001Z</time></trkpt><trkpt lat="44.91967907180027" lon="8.333476528026804"><ele>165.0</ele><time>2026-04-06T16:22:22.001Z</time></trkpt><trkpt lat="44.919744440272076" lon="8.333575939334803"><ele>166.0</ele><time>2026-04-06T16:22:23.001Z</time></trkpt><trkpt lat="44.91983631146465" lon="8.33362970663969"><ele>167.0</ele><time>2026-04-06T16:22:24.001Z</time></trkpt><trkpt lat="44.91993017590107" lon="8.333685422776176"><ele>168.0</ele><time>2026-04-06T16:22:25.001Z</time></trkpt><trkpt lat="44.92003136825711" lon="8.333758268941027"><ele>169.0</ele><time>2026-04-06T16:22:26.001Z</time></trkpt><trkpt lat="44.920130609794064" lon="8.333763121574592"><ele>170.0</ele><time>2026-04-06T16:22:27.001Z</time></trkpt><trkpt lat="44.920225665315286" lon="8.333777272240953"><ele>171.0</ele><time>2026-04-06T16:22:29.001Z</time></trkpt><trkpt lat="44.92023185637407" lon="8.333540590613437"><ele>172.0</ele><time>2026-04-06T16:22:35.001Z</time></trkpt><trkpt lat="44.92022961490506" lon="8.333446012023943"><ele>173.0</ele><time>2026-04-06T16:22:36.001Z</time></trkpt><trkpt lat="44.92027873856528" lon="8.33337873058768"><ele>173.0</ele><time>2026-04-06T16:22:37.001Z</time></trkpt><trkpt lat="44.92031898674056" lon="8.333309085688303"><ele>173.0</ele><time>2026-04-06T16:22:38.001Z</time></trkpt><trkpt lat="44.92038257776826" lon="8.33324819913033"><ele>173.0</ele><time>2026-04-06T16:22:39.001Z</time></trkpt><trkpt lat="44.92045844082039" lon="8.333187233039132"><ele>173.0</ele><time>2026-04-06T16:22:40.001Z</time></trkpt><trkpt lat="44.920545519396185" lon="8.333130862426584"><ele>173.0</ele><time>2026-04-06T16:22:41Z</time></trkpt><trkpt lat="44.92062990687408" lon="8.333091558515147"><ele>173.0</ele><time>2026-04-06T16:22:42Z</time></trkpt><trkpt lat="44.92070672781973" lon="8.333061959294023"><ele>173.5</ele><time>2026-04-06T16:22:43Z</time></trkpt><trkpt lat="44.920774511577235" lon="8.333035852518693"><ele>174.0</ele><time>2026-04-06T16:22:44Z</time></trkpt><trkpt lat="44.92085676654" lon="8.332993683107459"><ele>174.5</ele><time>2026-04-06T16:22:45Z</time></trkpt><trkpt lat="44.92093336524999" lon="8.33293664209842"><ele>175.0</ele><time>2026-04-06T16:22:46Z</time></trkpt><trkpt lat="44.920977419334136" lon="8.332835064050887"><ele>175.5</ele><time>2026-04-06T16:22:47Z</time></trkpt><trkpt lat="44.92102260412087" lon="8.332732238082638"><ele>176.0</ele><time>2026-04-06T16:22:48Z</time></trkpt><trkpt lat="44.92107182653638" lon="8.332622538634245"><ele>176.0</ele><time>2026-04-06T16:22:49Z</time></trkpt><trkpt lat="44.92111101693343" lon="8.332502331216853"><ele>176.0</ele><time>2026-04-06T16:22:50Z</time></trkpt><trkpt lat="44.92114463371319" lon="8.33239014396197"><ele>176.0</ele><time>2026-04-06T16:22:51Z</time></trkpt><trkpt lat="44.92117356278571" lon="8.332288795855517"><ele>176.0</ele><time>2026-04-06T16:22:52Z</time></trkpt><trkpt lat="44.921187146876925" lon="8.332124464005577"><ele>176.0</ele><time>2026-04-06T16:22:54Z</time></trkpt><trkpt lat="44.921130624799126" lon="8.331971914856474"><ele>176.0</ele><time>2026-04-06T16:22:56Z</time></trkpt><trkpt lat="44.921076612151516" lon="8.331872007910842"><ele>176.0</ele><time>2026-04-06T16:22:57Z</time></trkpt><trkpt lat="44.92102628049523" lon="8.331776567384468"><ele>176.0</ele><time>2026-04-06T16:22:58Z</time></trkpt><trkpt lat="44.92101029108886" lon="8.331672759874168"><ele>176.0</ele><time>2026-04-06T16:22:59Z</time></trkpt><trkpt lat="44.92098887086523" lon="8.331566761680609"><ele>176.0</ele><time>2026-04-06T16:23:00Z</time></trkpt><trkpt lat="44.92098319488805" lon="8.331457240793414"><ele>176.0</ele><time>2026-04-06T16:23:01Z</time></trkpt><trkpt lat="44.920987682574754" lon="8.331336182978903"><ele>176.20000000000002</ele><time>2026-04-06T16:23:02Z</time></trkpt><trkpt lat="44.92099991735595" lon="8.331204860202948"><ele>176.4</ele><time>2026-04-06T16:23:03Z</time></trkpt><trkpt lat="44.92101451995251" lon="8.33106813482693"><ele>176.6</ele><time>2026-04-06T16:23:04Z</time></trkpt><trkpt lat="44.92103164453521" lon="8.330929046649782"><ele>176.8</ele><time>2026-04-06T16:23:05Z</time></trkpt><trkpt lat="44.92105184425286" lon="8.330792025842992"><ele>177.0</ele><time>2026-04-06T16:23:06Z</time></trkpt><trkpt lat="44.92107495738925" lon="8.330657348260381"><ele>178.0</ele><time>2026-04-06T16:23:07Z</time></trkpt><trkpt lat="44.921098019863216" lon="8.33053046681698"><ele>179.0</ele><time>2026-04-06T16:23:08Z</time></trkpt><trkpt lat="44.92112002890078" lon="8.330413786813734"><ele>180.0</ele><time>2026-04-06T16:23:09Z</time></trkpt><trkpt lat="44.92114404877472" lon="8.330286446579347"><ele>181.0</ele><time>2026-04-06T16:23:10Z</time></trkpt><trkpt lat="44.92117157902933" lon="8.330156523361827"><ele>182.0</ele><time>2026-04-06T16:23:11Z</time></trkpt><trkpt lat="44.921207523887844" lon="8.330014643476543"><ele>182.0</ele><time>2026-04-06T16:23:12Z</time></trkpt><trkpt lat="44.921249893675714" lon="8.329867743167963"><ele>182.0</ele><time>2026-04-06T16:23:13Z</time></trkpt><trkpt lat="44.921293001520695" lon="8.329718265334389"><ele>182.0</ele><time>2026-04-06T16:23:14Z</time></trkpt><trkpt lat="44.921322643522174" lon="8.329560518074997"><ele>182.0</ele><time>2026-04-06T16:23:15Z</time></trkpt><trkpt lat="44.92137203689801" lon="8.329413269876852"><ele>182.2</ele><time>2026-04-06T16:23:16Z</time></trkpt><trkpt lat="44.92141273758384" lon="8.329265790850014"><ele>182.39999999999998</ele><time>2026-04-06T16:23:17Z</time></trkpt><trkpt lat="44.921444845223014" lon="8.329120252142125"><ele>182.60000000000002</ele><time>2026-04-06T16:23:18Z</time></trkpt><trkpt lat="44.921468925963126" lon="8.328974603276105"><ele>182.8</ele><time>2026-04-06T16:23:19Z</time></trkpt><trkpt lat="44.921489654606596" lon="8.328839715123776"><ele>183.0</ele><time>2026-04-06T16:23:20Z</time></trkpt><trkpt lat="44.92150778376841" lon="8.328715560272105"><ele>183.33333333333334</ele><time>2026-04-06T16:23:21Z</time></trkpt><trkpt lat="44.92152805494216" lon="8.328589140718961"><ele>183.66666666666666</ele><time>2026-04-06T16:23:22Z</time></trkpt><trkpt lat="44.92154095471857" lon="8.328460242974659"><ele>184.0</ele><time>2026-04-06T16:23:23Z</time></trkpt><trkpt lat="44.92153828793955" lon="8.32833161312741"><ele>184.33333333333331</ele><time>2026-04-06T16:23:24Z</time></trkpt><trkpt lat="44.92153656242113" lon="8.32821814076636"><ele>184.66666666666666</ele><time>2026-04-06T16:23:25Z</time></trkpt><trkpt lat="44.92153475540849" lon="8.328095412520488"><ele>185.0</ele><time>2026-04-06T16:23:26Z</time></trkpt><trkpt lat="44.921539043656644" lon="8.327973556711736"><ele>185.5</ele><time>2026-04-06T16:23:27Z</time></trkpt><trkpt lat="44.92154152339862" lon="8.327853020294103"><ele>186.0</ele><time>2026-04-06T16:23:28Z</time></trkpt><trkpt lat="44.92153894153401" lon="8.32772934219168"><ele>186.5</ele><time>2026-04-06T16:23:29Z</time></trkpt><trkpt lat="44.92154635961179" lon="8.32760193086511"><ele>187.0</ele><time>2026-04-06T16:23:30Z</time></trkpt><trkpt lat="44.92156596745518" lon="8.327478410881168"><ele>187.5</ele><time>2026-04-06T16:23:31.001Z</time></trkpt><trkpt lat="44.92159559325023" lon="8.327359093258902"><ele>188.0</ele><time>2026-04-06T16:23:32.001Z</time></trkpt><trkpt lat="44.92163478786089" lon="8.327230558184612"><ele>188.0</ele><time>2026-04-06T16:23:33.001Z</time></trkpt><trkpt lat="44.92166895100637" lon="8.327080503642778"><ele>188.0</ele><time>2026-04-06T16:23:34.001Z</time></trkpt><trkpt lat="44.921710720561336" lon="8.326911359489394"><ele>188.0</ele><time>2026-04-06T16:23:35.001Z</time></trkpt><trkpt lat="44.92176431310312" lon="8.326721015997501"><ele>188.0</ele><time>2026-04-06T16:23:36.001Z</time></trkpt><trkpt lat="44.92181834260218" lon="8.326564585241977"><ele>188.0</ele><time>2026-04-06T16:23:37.001Z</time></trkpt><trkpt lat="44.921866642008794" lon="8.326437759218754"><ele>188.0</ele><time>2026-04-06T16:23:38.001Z</time></trkpt><trkpt lat="44.92190962997532" lon="8.326324771135031"><ele>188.0</ele><time>2026-04-06T16:23:39.001Z</time></trkpt><trkpt lat="44.92195273711383" lon="8.326218140601336"><ele>188.0</ele><time>2026-04-06T16:23:40.001Z</time></trkpt><trkpt lat="44.921987607993124" lon="8.326119740406421"><ele>188.0</ele><time>2026-04-06T16:23:41.001Z</time></trkpt><trkpt lat="44.92200827942385" lon="8.326023245343515"><ele>188.0</ele><time>2026-04-06T16:23:42.001Z</time></trkpt><trkpt lat="44.922017528807835" lon="8.325915864549529"><ele>188.0</ele><time>2026-04-06T16:23:43.001Z</time></trkpt><trkpt lat="44.92201736126533" lon="8.325807331128308"><ele>188.0</ele><time>2026-04-06T16:23:44.001Z</time></trkpt><trkpt lat="44.922025191959136" lon="8.32570003569203"><ele>188.0</ele><time>2026-04-06T16:23:45.001Z</time></trkpt><trkpt lat="44.9220411785289" lon="8.32560061821279"><ele>188.0</ele><time>2026-04-06T16:23:46.001Z</time></trkpt><trkpt lat="44.92206689294326" lon="8.325512198339982"><ele>188.0</ele><time>2026-04-06T16:23:47.001Z</time></trkpt><trkpt lat="44.92211238812977" lon="8.325412656577878"><ele>188.0</ele><time>2026-04-06T16:23:48.001Z</time></trkpt><trkpt lat="44.92215849390765" lon="8.325304613577293"><ele>188.16666666666666</ele><time>2026-04-06T16:23:49.001Z</time></trkpt><trkpt lat="44.92220163323948" lon="8.325171626583316"><ele>188.33333333333331</ele><time>2026-04-06T16:23:50.001Z</time></trkpt><trkpt lat="44.922242052431116" lon="8.325046470761077"><ele>188.5</ele><time>2026-04-06T16:23:51.001Z</time></trkpt><trkpt lat="44.922279340622005" lon="8.324940572502937"><ele>188.66666666666666</ele><time>2026-04-06T16:23:52.001Z</time></trkpt><trkpt lat="44.92232100068164" lon="8.324834856342498"><ele>188.83333333333334</ele><time>2026-04-06T16:23:53.001Z</time></trkpt><trkpt lat="44.9223533642742" lon="8.32475767512822"><ele>189.0</ele><time>2026-04-06T16:23:54.001Z</time></trkpt><trkpt lat="44.922377939074494" lon="8.324654361144672"><ele>189.0</ele><time>2026-04-06T16:23:55.001Z</time></trkpt><trkpt lat="44.92238865009864" lon="8.324543431448223"><ele>189.0</ele><time>2026-04-06T16:23:56.001Z</time></trkpt><trkpt lat="44.92240950220005" lon="8.324377217748438"><ele>189.0</ele><time>2026-04-06T16:23:57.001Z</time></trkpt><trkpt lat="44.9224216890285" lon="8.324276137634065"><ele>189.0</ele><time>2026-04-06T16:23:58.001Z</time></trkpt><trkpt lat="44.92241990063951" lon="8.324167674943205"><ele>189.0</ele><time>2026-04-06T16:23:59.001Z</time></trkpt><trkpt lat="44.92241387087724" lon="8.324040650681013"><ele>189.0</ele><time>2026-04-06T16:24:00.001Z</time></trkpt><trkpt lat="44.92239995294659" lon="8.32389783606806"><ele>189.0</ele><time>2026-04-06T16:24:01.001Z</time></trkpt><trkpt lat="44.92237965856003" lon="8.323755565397459"><ele>189.0</ele><time>2026-04-06T16:24:02.001Z</time></trkpt><trkpt lat="44.922365121668925" lon="8.323640213771927"><ele>189.0</ele><time>2026-04-06T16:24:03.001Z</time></trkpt><trkpt lat="44.922351210297414" lon="8.323532055688913"><ele>189.0</ele><time>2026-04-06T16:24:04.001Z</time></trkpt><trkpt lat="44.92233048926757" lon="8.323428820321885"><ele>189.0</ele><time>2026-04-06T16:24:05.001Z</time></trkpt><trkpt lat="44.92230989692601" lon="8.323329751183628"><ele>189.0</ele><time>2026-04-06T16:24:06.001Z</time></trkpt><trkpt lat="44.92226900636276" lon="8.323239006541256"><ele>189.0</ele><time>2026-04-06T16:24:07.001Z</time></trkpt><trkpt lat="44.92222433664297" lon="8.323131738674656"><ele>189.0</ele><time>2026-04-06T16:24:08.001Z</time></trkpt><trkpt lat="44.922190570460344" lon="8.323048136756803"><ele>189.0</ele><time>2026-04-06T16:24:09.001Z</time></trkpt><trkpt lat="44.922206739504766" lon="8.322875210613175"><ele>189.0</ele><time>2026-04-06T16:24:11.001Z</time></trkpt><trkpt lat="44.92223084558185" lon="8.322736670232462"><ele>189.0</ele><time>2026-04-06T16:24:12.001Z</time></trkpt><trkpt lat="44.92224339550627" lon="8.32264321952594"><ele>189.0</ele><time>2026-04-06T16:24:13.001Z</time></trkpt><trkpt lat="44.92224546091396" lon="8.322547775800277"><ele>189.16666666666666</ele><time>2026-04-06T16:24:14.001Z</time></trkpt><trkpt lat="44.92225367607322" lon="8.322447434091963"><ele>189.33333333333334</ele><time>2026-04-06T16:24:15.001Z</time></trkpt><trkpt lat="44.92227534494117" lon="8.322337462828608"><ele>189.5</ele><time>2026-04-06T16:24:16.001Z</time></trkpt><trkpt lat="44.922304918061066" lon="8.322249146015483"><ele>189.66666666666669</ele><time>2026-04-06T16:24:17.001Z</time></trkpt><trkpt lat="44.922314243118834" lon="8.322160874349136"><ele>189.83333333333334</ele><time>2026-04-06T16:24:18.001Z</time></trkpt><trkpt lat="44.922315382179875" lon="8.322016253617942"><ele>190.0</ele><time>2026-04-06T16:24:19.001Z</time></trkpt><trkpt lat="44.92232915877122" lon="8.321887642299693"><ele>190.0</ele><time>2026-04-06T16:24:20.001Z</time></trkpt><trkpt lat="44.922335133286715" lon="8.32178779758417"><ele>190.0</ele><time>2026-04-06T16:24:21.001Z</time></trkpt><trkpt lat="44.92233928756588" lon="8.321661593261254"><ele>190.0</ele><time>2026-04-06T16:24:22.001Z</time></trkpt><trkpt lat="44.922347840398466" lon="8.32151084185925"><ele>190.0</ele><time>2026-04-06T16:24:23.001Z</time></trkpt><trkpt lat="44.922354860833565" lon="8.321379376625668"><ele>190.0</ele><time>2026-04-06T16:24:24.001Z</time></trkpt><trkpt lat="44.922357972622414" lon="8.321251295847677"><ele>190.0</ele><time>2026-04-06T16:24:25.001Z</time></trkpt><trkpt lat="44.92236259872029" lon="8.321143772804698"><ele>190.0</ele><time>2026-04-06T16:24:26.001Z</time></trkpt><trkpt lat="44.92237667197862" lon="8.321021186897472"><ele>190.0</ele><time>2026-04-06T16:24:27.001Z</time></trkpt><trkpt lat="44.92239681877411" lon="8.32091633903313"><ele>190.0</ele><time>2026-04-06T16:24:28.001Z</time></trkpt><trkpt lat="44.922419527760205" lon="8.320811145379468"><ele>190.0</ele><time>2026-04-06T16:24:29.001Z</time></trkpt><trkpt lat="44.922426163788046" lon="8.32071529769063"><ele>190.0</ele><time>2026-04-06T16:24:30.001Z</time></trkpt><trkpt lat="44.922386293841484" lon="8.320534461045465"><ele>190.16666666666669</ele><time>2026-04-06T16:24:32.001Z</time></trkpt><trkpt lat="44.92234323253056" lon="8.320457387403595"><ele>190.33333333333334</ele><time>2026-04-06T16:24:33.001Z</time></trkpt><trkpt lat="44.922287961731385" lon="8.320394502552148"><ele>190.5</ele><time>2026-04-06T16:24:34.001Z</time></trkpt><trkpt lat="44.92221283460247" lon="8.320330012096997"><ele>190.66666666666666</ele><time>2026-04-06T16:24:35.001Z</time></trkpt><trkpt lat="44.92211874722295" lon="8.320272204241517"><ele>190.83333333333331</ele><time>2026-04-06T16:24:37.001Z</time></trkpt><trkpt lat="44.922088731257396" lon="8.320189243305448"><ele>191.0</ele><time>2026-04-06T16:24:39.001Z</time></trkpt><trkpt lat="44.922052603067286" lon="8.32001638547306"><ele>191.0</ele><time>2026-04-06T16:24:41.002Z</time></trkpt><trkpt lat="44.922027095634775" lon="8.319911720919913"><ele>191.0</ele><time>2026-04-06T16:24:42.002Z</time></trkpt><trkpt lat="44.922015430272694" lon="8.31980671034909"><ele>191.0</ele><time>2026-04-06T16:24:43.002Z</time></trkpt><trkpt lat="44.922022209769786" lon="8.319688363203111"><ele>191.0</ele><time>2026-04-06T16:24:44.002Z</time></trkpt><trkpt lat="44.9220318180233" lon="8.319571296929007"><ele>191.0</ele><time>2026-04-06T16:24:45.002Z</time></trkpt><trkpt lat="44.92204333912865" lon="8.319449439574205"><ele>191.0</ele><time>2026-04-06T16:24:46.002Z</time></trkpt><trkpt lat="44.92205687316878" lon="8.319350996213167"><ele>191.8</ele><time>2026-04-06T16:24:47Z</time></trkpt><trkpt lat="44.92209397314478" lon="8.319238763481415"><ele>192.60000000000002</ele><time>2026-04-06T16:24:49Z</time></trkpt><trkpt lat="44.92220083093919" lon="8.319188779579111"><ele>193.4</ele><time>2026-04-06T16:24:51Z</time></trkpt><trkpt lat="44.92227297845006" lon="8.319155183936347"><ele>194.2</ele><time>2026-04-06T16:24:52Z</time></trkpt><trkpt lat="44.92236679449658" lon="8.319108328800302"><ele>195.0</ele><time>2026-04-06T16:24:53Z</time></trkpt><trkpt lat="44.92244621348599" lon="8.319072104009486"><ele>195.0</ele><time>2026-04-06T16:24:54Z</time></trkpt><trkpt lat="44.922507865731646" lon="8.319032008268499"><ele>195.0</ele><time>2026-04-06T16:24:55Z</time></trkpt><trkpt lat="44.92261107484647" lon="8.318971920745641"><ele>195.0</ele><time>2026-04-06T16:24:57Z</time></trkpt><trkpt lat="44.922691903863154" lon="8.318917631120689"><ele>195.0</ele><time>2026-04-06T16:24:59Z</time></trkpt><trkpt lat="44.92279803628483" lon="8.318884149443484"><ele>195.0</ele><time>2026-04-06T16:25:30Z</time></trkpt><trkpt lat="44.92287389814502" lon="8.318847487048041"><ele>195.25</ele><time>2026-04-06T16:25:31Z</time></trkpt><trkpt lat="44.922969799709946" lon="8.31879722519654"><ele>195.5</ele><time>2026-04-06T16:25:32Z</time></trkpt><trkpt lat="44.923076308815986" lon="8.318745986238081"><ele>195.75</ele><time>2026-04-06T16:25:33Z</time></trkpt><trkpt lat="44.92318844342334" lon="8.318687507773227"><ele>196.0</ele><time>2026-04-06T16:25:34Z</time></trkpt><trkpt lat="44.923329406428245" lon="8.318635459635702"><ele>196.0</ele><time>2026-04-06T16:25:35Z</time></trkpt><trkpt lat="44.92344949121505" lon="8.318591653543384"><ele>196.0</ele><time>2026-04-06T16:25:36Z</time></trkpt><trkpt lat="44.92355464208537" lon="8.318546111625588"><ele>196.0</ele><time>2026-04-06T16:25:37.001Z</time></trkpt><trkpt lat="44.92366194270903" lon="8.318496894775663"><ele>196.0</ele><time>2026-04-06T16:25:38.001Z</time></trkpt><trkpt lat="44.92376424718589" lon="8.318438572878566"><ele>196.0</ele><time>2026-04-06T16:25:39.001Z</time></trkpt><trkpt lat="44.92386576129255" lon="8.31837349096464"><ele>196.0</ele><time>2026-04-06T16:25:40.001Z</time></trkpt><trkpt lat="44.92395189744497" lon="8.318277551804123"><ele>196.0</ele><time>2026-04-06T16:25:41.001Z</time></trkpt><trkpt lat="44.92405582280751" lon="8.318169763011182"><ele>196.0</ele><time>2026-04-06T16:25:42.001Z</time></trkpt><trkpt lat="44.92414521747037" lon="8.318079991495582"><ele>196.4</ele><time>2026-04-06T16:25:43.001Z</time></trkpt><trkpt lat="44.9242247919392" lon="8.317986515633223"><ele>196.8</ele><time>2026-04-06T16:25:44.001Z</time></trkpt><trkpt lat="44.924323493108695" lon="8.317909586763577"><ele>197.20000000000002</ele><time>2026-04-06T16:25:45.001Z</time></trkpt><trkpt lat="44.92441820945704" lon="8.317812762298134"><ele>197.60000000000002</ele><time>2026-04-06T16:25:46.001Z</time></trkpt><trkpt lat="44.924508823961226" lon="8.317724613011036"><ele>198.0</ele><time>2026-04-06T16:25:47.001Z</time></trkpt><trkpt lat="44.92459099736744" lon="8.317646446868435"><ele>198.0</ele><time>2026-04-06T16:25:48.001Z</time></trkpt><trkpt lat="44.9246650500014" lon="8.317576769634368"><ele>198.0</ele><time>2026-04-06T16:25:49.001Z</time></trkpt><trkpt lat="44.924731508760516" lon="8.317504216244043"><ele>198.0</ele><time>2026-04-06T16:25:50.001Z</time></trkpt><trkpt lat="44.924801675660476" lon="8.317455629008288"><ele>198.0</ele><time>2026-04-06T16:25:51.001Z</time></trkpt><trkpt lat="44.92486584714988" lon="8.317411837574515"><ele>198.0</ele><time>2026-04-06T16:25:52.001Z</time></trkpt><trkpt lat="44.92498944816205" lon="8.317368626541112"><ele>199.4</ele><time>2026-04-06T16:25:54.001Z</time></trkpt><trkpt lat="44.925070038185" lon="8.31735342297543"><ele>200.8</ele><time>2026-04-06T16:25:55.001Z</time></trkpt><trkpt lat="44.92516316779711" lon="8.317315457403417"><ele>202.2</ele><time>2026-04-06T16:25:56.001Z</time></trkpt><trkpt lat="44.925249440050656" lon="8.317277740129805"><ele>203.6</ele><time>2026-04-06T16:25:57.001Z</time></trkpt><trkpt lat="44.92534572070579" lon="8.317295354684406"><ele>205.0</ele><time>2026-04-06T16:25:58.001Z</time></trkpt><trkpt lat="44.92544472963274" lon="8.31735929934386"><ele>205.0</ele><time>2026-04-06T16:25:59.001Z</time></trkpt><trkpt lat="44.92553278793146" lon="8.317404731021151"><ele>205.0</ele><time>2026-04-06T16:26:00.001Z</time></trkpt><trkpt lat="44.92563103267237" lon="8.317416504873458"><ele>205.0</ele><time>2026-04-06T16:26:01.001Z</time></trkpt><trkpt lat="44.92573441886122" lon="8.317415699013486"><ele>205.0</ele><time>2026-04-06T16:26:02.001Z</time></trkpt><trkpt lat="44.9258402377478" lon="8.31736462134625"><ele>205.0</ele><time>2026-04-06T16:26:03.001Z</time></trkpt><trkpt lat="44.925964805851926" lon="8.317314797622908"><ele>204.75</ele><time>2026-04-06T16:26:04.001Z</time></trkpt><trkpt lat="44.92607269270372" lon="8.317278299401256"><ele>204.5</ele><time>2026-04-06T16:26:05.001Z</time></trkpt><trkpt lat="44.92619463438313" lon="8.317252136507525"><ele>204.25</ele><time>2026-04-06T16:26:06.001Z</time></trkpt><trkpt lat="44.92630896243273" lon="8.317246759207967"><ele>204.0</ele><time>2026-04-06T16:26:07.001Z</time></trkpt><trkpt lat="44.92641685656703" lon="8.317229168255112"><ele>204.0</ele><time>2026-04-06T16:26:08.001Z</time></trkpt><trkpt lat="44.926530150232885" lon="8.317215960020116"><ele>204.0</ele><time>2026-04-06T16:26:09.001Z</time></trkpt><trkpt lat="44.926632227375784" lon="8.317201953809398"><ele>204.0</ele><time>2026-04-06T16:26:10.001Z</time></trkpt><trkpt lat="44.92673019162286" lon="8.31718427928248"><ele>204.0</ele><time>2026-04-06T16:26:11.001Z</time></trkpt><trkpt lat="44.92682121564468" lon="8.317171503937063"><ele>204.0</ele><time>2026-04-06T16:26:12.001Z</time></trkpt><trkpt lat="44.92690285513982" lon="8.317162156036485"><ele>205.2</ele><time>2026-04-06T16:26:13.001Z</time></trkpt><trkpt lat="44.926995970072426" lon="8.317147278750868"><ele>206.39999999999998</ele><time>2026-04-06T16:26:14.001Z</time></trkpt><trkpt lat="44.927090901735205" lon="8.317116168721785"><ele>207.6</ele><time>2026-04-06T16:26:15.001Z</time></trkpt><trkpt lat="44.927176519025146" lon="8.317068153573308"><ele>208.8</ele><time>2026-04-06T16:26:16.001Z</time></trkpt><trkpt lat="44.927270333315505" lon="8.317016166979446"><ele>210.0</ele><time>2026-04-06T16:26:17.001Z</time></trkpt><trkpt lat="44.92737405122831" lon="8.316947878012416"><ele>210.0</ele><time>2026-04-06T16:26:18.001Z</time></trkpt><trkpt lat="44.92747529584702" lon="8.316867855683618"><ele>210.0</ele><time>2026-04-06T16:26:19.001Z</time></trkpt><trkpt lat="44.9275580468714" lon="8.31681186155191"><ele>210.0</ele><time>2026-04-06T16:26:20.001Z</time></trkpt><trkpt lat="44.92762804317391" lon="8.31676645934998"><ele>210.0</ele><time>2026-04-06T16:26:21.001Z</time></trkpt><trkpt lat="44.92768607812941" lon="8.316719878541965"><ele>210.0</ele><time>2026-04-06T16:26:22.001Z</time></trkpt><trkpt lat="44.927772832794716" lon="8.316678913089337"><ele>210.0</ele><time>2026-04-06T16:26:24.001Z</time></trkpt><trkpt lat="44.92785260317914" lon="8.316716364124263"><ele>210.0</ele><time>2026-04-06T16:26:27.001Z</time></trkpt><trkpt lat="44.92789998828604" lon="8.316780913961482"><ele>210.0</ele><time>2026-04-06T16:26:28.001Z</time></trkpt><trkpt lat="44.92794550553807" lon="8.316880098720775"><ele>210.0</ele><time>2026-04-06T16:26:29.001Z</time></trkpt><trkpt lat="44.92800566630309" lon="8.316983068975604"><ele>210.0</ele><time>2026-04-06T16:26:30.001Z</time></trkpt><trkpt lat="44.9280600351347" lon="8.31707680203638"><ele>210.0</ele><time>2026-04-06T16:26:31.001Z</time></trkpt><trkpt lat="44.92810056731563" lon="8.317146381821267"><ele>210.0</ele><time>2026-04-06T16:26:32.001Z</time></trkpt><trkpt lat="44.9282227496167" lon="8.317061623568408"><ele>210.0</ele><time>2026-04-06T16:26:36.001Z</time></trkpt><trkpt lat="44.92826021303087" lon="8.316978166921093"><ele>210.0</ele><time>2026-04-06T16:26:37.001Z</time></trkpt><trkpt lat="44.92831587275443" lon="8.316860484505812"><ele>210.0</ele><time>2026-04-06T16:26:38.001Z</time></trkpt><trkpt lat="44.928388001849775" lon="8.316728564415529"><ele>210.0</ele><time>2026-04-06T16:26:39.001Z</time></trkpt><trkpt lat="44.928461886522975" lon="8.316570940218513"><ele>210.0</ele><time>2026-04-06T16:26:40.001Z</time></trkpt><trkpt lat="44.928532259978724" lon="8.316454579480089"><ele>210.0</ele><time>2026-04-06T16:26:41.001Z</time></trkpt><trkpt lat="44.92858160003727" lon="8.316365283237237"><ele>210.0</ele><time>2026-04-06T16:26:42.001Z</time></trkpt><trkpt lat="44.92865564863192" lon="8.316292355472491"><ele>210.0</ele><time>2026-04-06T16:26:43.001Z</time></trkpt><trkpt lat="44.928732911881546" lon="8.31624612311145"><ele>210.0</ele><time>2026-04-06T16:26:44.001Z</time></trkpt><trkpt lat="44.92882090601751" lon="8.31620818519561"><ele>210.0</ele><time>2026-04-06T16:26:45.002Z</time></trkpt><trkpt lat="44.928918035448525" lon="8.316164260434972"><ele>210.0</ele><time>2026-04-06T16:26:46.002Z</time></trkpt><trkpt lat="44.92899381076139" lon="8.316116559225499"><ele>210.0</ele><time>2026-04-06T16:26:47.002Z</time></trkpt><trkpt lat="44.92905883620575" lon="8.316048002399448"><ele>210.0</ele><time>2026-04-06T16:26:48.002Z</time></trkpt><trkpt lat="44.92911060948892" lon="8.31597530928533"><ele>210.0</ele><time>2026-04-06T16:26:49.002Z</time></trkpt><trkpt lat="44.929161832470946" lon="8.31582727304575"><ele>210.0</ele><time>2026-04-06T16:26:51.002Z</time></trkpt><trkpt lat="44.92915764106574" lon="8.315738254758816"><ele>210.0</ele><time>2026-04-06T16:26:52.002Z</time></trkpt><trkpt lat="44.92913483374588" lon="8.315625883372787"><ele>210.0</ele><time>2026-04-06T16:26:53Z</time></trkpt><trkpt lat="44.92910336517016" lon="8.315492613843631"><ele>209.66666666666666</ele><time>2026-04-06T16:26:54Z</time></trkpt><trkpt lat="44.929071505276525" lon="8.315407598811163"><ele>209.33333333333331</ele><time>2026-04-06T16:26:55Z</time></trkpt><trkpt lat="44.92903225806073" lon="8.315337680464935"><ele>209.0</ele><time>2026-04-06T16:26:58Z</time></trkpt><trkpt lat="44.92899818620117" lon="8.315238115391308"><ele>208.66666666666666</ele><time>2026-04-06T16:27:00Z</time></trkpt><trkpt lat="44.928951174357" lon="8.315132311657436"><ele>208.33333333333331</ele><time>2026-04-06T16:27:02Z</time></trkpt><trkpt lat="44.92889488842211" lon="8.314998671893203"><ele>208.0</ele><time>2026-04-06T16:27:04Z</time></trkpt><trkpt lat="44.92886416867582" lon="8.31490945935301"><ele>207.99999999999997</ele><time>2026-04-06T16:27:05Z</time></trkpt><trkpt lat="44.92883578067823" lon="8.314804514687358"><ele>208.0</ele><time>2026-04-06T16:27:06Z</time></trkpt><trkpt lat="44.92880449360613" lon="8.314701374984766"><ele>208.0</ele><time>2026-04-06T16:27:07Z</time></trkpt><trkpt lat="44.92877197138626" lon="8.314583793544296"><ele>208.0</ele><time>2026-04-06T16:27:08Z</time></trkpt><trkpt lat="44.92874695724134" lon="8.314470046894485"><ele>207.99999999999997</ele><time>2026-04-06T16:27:09Z</time></trkpt><trkpt lat="44.92872905575998" lon="8.314363488960865"><ele>208.0</ele><time>2026-04-06T16:27:10Z</time></trkpt><trkpt lat="44.9287157254276" lon="8.31426943684209"><ele>207.99999999999997</ele><time>2026-04-06T16:27:11Z</time></trkpt><trkpt lat="44.92871263625814" lon="8.314160959875032"><ele>208.0</ele><time>2026-04-06T16:27:12Z</time></trkpt><trkpt lat="44.928720083555426" lon="8.314040572264453"><ele>208.0</ele><time>2026-04-06T16:27:13Z</time></trkpt><trkpt lat="44.92873327781611" lon="8.313927021855486"><ele>208.0</ele><time>2026-04-06T16:27:14Z</time></trkpt><trkpt lat="44.92875557160225" lon="8.313807353614322"><ele>207.99999999999997</ele><time>2026-04-06T16:27:15Z</time></trkpt><trkpt lat="44.928780333817635" lon="8.313684425598076"><ele>208.0</ele><time>2026-04-06T16:27:16Z</time></trkpt><trkpt lat="44.928812961309696" lon="8.313563037153678"><ele>208.8</ele><time>2026-04-06T16:27:17Z</time></trkpt><trkpt lat="44.9288493305072" lon="8.313416342006844"><ele>209.60000000000002</ele><time>2026-04-06T16:27:18Z</time></trkpt><trkpt lat="44.928897325003874" lon="8.313277142281212"><ele>210.39999999999998</ele><time>2026-04-06T16:27:19Z</time></trkpt><trkpt lat="44.92894425819228" lon="8.313136758669206"><ele>211.2</ele><time>2026-04-06T16:27:20Z</time></trkpt><trkpt lat="44.92898829222698" lon="8.312999058785584"><ele>212.0</ele><time>2026-04-06T16:27:21Z</time></trkpt><trkpt lat="44.92902660847139" lon="8.31286918199059"><ele>212.16666666666669</ele><time>2026-04-06T16:27:22Z</time></trkpt><trkpt lat="44.929060443607" lon="8.31274935544896"><ele>212.33333333333334</ele><time>2026-04-06T16:27:23Z</time></trkpt><trkpt lat="44.92909617761988" lon="8.312622130156951"><ele>212.5</ele><time>2026-04-06T16:27:24Z</time></trkpt><trkpt lat="44.9291336419256" lon="8.312516275442341"><ele>212.66666666666669</ele><time>2026-04-06T16:27:25Z</time></trkpt><trkpt lat="44.929179101695055" lon="8.312402707994021"><ele>212.83333333333334</ele><time>2026-04-06T16:27:26Z</time></trkpt><trkpt lat="44.929226141413885" lon="8.312304614023184"><ele>213.0</ele><time>2026-04-06T16:27:27Z</time></trkpt><trkpt lat="44.92926842317872" lon="8.312222397291615"><ele>212.5</ele><time>2026-04-06T16:27:28Z</time></trkpt><trkpt lat="44.92931875791203" lon="8.312160661752115"><ele>212.0</ele><time>2026-04-06T16:27:29Z</time></trkpt><trkpt lat="44.92943363628611" lon="8.312095293579397"><ele>211.5</ele><time>2026-04-06T16:27:31Z</time></trkpt><trkpt lat="44.929500495275214" lon="8.312045711417193"><ele>211.0</ele><time>2026-04-06T16:27:32Z</time></trkpt><trkpt lat="44.929572816754906" lon="8.311978923440728"><ele>210.5</ele><time>2026-04-06T16:27:33Z</time></trkpt><trkpt lat="44.929643577047344" lon="8.311899465945373"><ele>210.0</ele><time>2026-04-06T16:27:34Z</time></trkpt><trkpt lat="44.92973178653261" lon="8.311814538832847"><ele>210.0</ele><time>2026-04-06T16:27:35Z</time></trkpt><trkpt lat="44.92979105343979" lon="8.311758658022256"><ele>210.0</ele><time>2026-04-06T16:27:36Z</time></trkpt><trkpt lat="44.92985610075018" lon="8.311713630903377"><ele>210.0</ele><time>2026-04-06T16:27:37Z</time></trkpt><trkpt lat="44.92992798249431" lon="8.311650278576142"><ele>210.0</ele><time>2026-04-06T16:27:38.001Z</time></trkpt><trkpt lat="44.930016096742875" lon="8.311611986239583"><ele>210.0</ele><time>2026-04-06T16:27:39.001Z</time></trkpt><trkpt lat="44.930102201625346" lon="8.31155454048003"><ele>210.0</ele><time>2026-04-06T16:27:40.001Z</time></trkpt><trkpt lat="44.93018530902952" lon="8.311515340267848"><ele>210.2</ele><time>2026-04-06T16:27:41.001Z</time></trkpt><trkpt lat="44.93027907196396" lon="8.311453037588572"><ele>210.4</ele><time>2026-04-06T16:27:42.001Z</time></trkpt><trkpt lat="44.93034207220355" lon="8.31138747874146"><ele>210.60000000000002</ele><time>2026-04-06T16:27:43.001Z</time></trkpt><trkpt lat="44.930370481540294" lon="8.311216076517704"><ele>210.8</ele><time>2026-04-06T16:27:45.001Z</time></trkpt><trkpt lat="44.930396791901394" lon="8.311086421867088"><ele>211.0</ele><time>2026-04-06T16:27:46.001Z</time></trkpt><trkpt lat="44.93042597316686" lon="8.31100104139447"><ele>211.0</ele><time>2026-04-06T16:27:47.001Z</time></trkpt><trkpt lat="44.930515145598896" lon="8.310909808062556"><ele>211.0</ele><time>2026-04-06T16:27:49.001Z</time></trkpt><trkpt lat="44.93057839406811" lon="8.310884609215188"><ele>211.0</ele><time>2026-04-06T16:27:50.001Z</time></trkpt><trkpt lat="44.930680958438145" lon="8.31088244385302"><ele>211.0</ele><time>2026-04-06T16:27:51.001Z</time></trkpt><trkpt lat="44.93077592820874" lon="8.310880485245498"><ele>211.0</ele><time>2026-04-06T16:27:52.001Z</time></trkpt><trkpt lat="44.930876030672714" lon="8.310880355885548"><ele>210.33333333333331</ele><time>2026-04-06T16:27:53.001Z</time></trkpt><trkpt lat="44.93095566678399" lon="8.3108613130811"><ele>209.66666666666666</ele><time>2026-04-06T16:27:54.001Z</time></trkpt><trkpt lat="44.9310383757853" lon="8.310839104173068"><ele>209.0</ele><time>2026-04-06T16:27:55.001Z</time></trkpt><trkpt lat="44.931112048863305" lon="8.310775390087292"><ele>208.33333333333331</ele><time>2026-04-06T16:27:56.001Z</time></trkpt><trkpt lat="44.93119933826322" lon="8.310700880020216"><ele>207.66666666666666</ele><time>2026-04-06T16:27:57.001Z</time></trkpt><trkpt lat="44.93127546863748" lon="8.310619364993764"><ele>207.0</ele><time>2026-04-06T16:27:58.001Z</time></trkpt><trkpt lat="44.931342190710865" lon="8.310544522481274"><ele>206.8</ele><time>2026-04-06T16:27:59.001Z</time></trkpt><trkpt lat="44.93140222893125" lon="8.310488988150466"><ele>206.6</ele><time>2026-04-06T16:28:00.001Z</time></trkpt><trkpt lat="44.93147697979095" lon="8.31034223870165"><ele>206.4</ele><time>2026-04-06T16:28:02.001Z</time></trkpt><trkpt lat="44.93148767672259" lon="8.310205905752357"><ele>206.20000000000002</ele><time>2026-04-06T16:28:03.001Z</time></trkpt><trkpt lat="44.93150297394385" lon="8.310050656882492"><ele>206.0</ele><time>2026-04-06T16:28:04.001Z</time></trkpt><trkpt lat="44.93152205488931" lon="8.309920048644335"><ele>206.00000000000003</ele><time>2026-04-06T16:28:05.001Z</time></trkpt><trkpt lat="44.93153682527009" lon="8.309807274276526"><ele>206.0</ele><time>2026-04-06T16:28:06.001Z</time></trkpt><trkpt lat="44.93155679068194" lon="8.309705973721346"><ele>206.0</ele><time>2026-04-06T16:28:07.001Z</time></trkpt><trkpt lat="44.931588032020095" lon="8.309616031910338"><ele>206.0</ele><time>2026-04-06T16:28:08.001Z</time></trkpt><trkpt lat="44.93163865952218" lon="8.309510558042788"><ele>206.00000000000003</ele><time>2026-04-06T16:28:09.001Z</time></trkpt><trkpt lat="44.9317072231686" lon="8.309390358637275"><ele>206.0</ele><time>2026-04-06T16:28:10.001Z</time></trkpt><trkpt lat="44.931775993698835" lon="8.309252190796055"><ele>205.20000000000002</ele><time>2026-04-06T16:28:11.001Z</time></trkpt><trkpt lat="44.93183538353962" lon="8.309118280984205"><ele>204.4</ele><time>2026-04-06T16:28:12.001Z</time></trkpt><trkpt lat="44.931889517086965" lon="8.309011897355335"><ele>203.6</ele><time>2026-04-06T16:28:13.001Z</time></trkpt><trkpt lat="44.93193197620026" lon="8.308906245540122"><ele>202.8</ele><time>2026-04-06T16:28:14.001Z</time></trkpt><trkpt lat="44.93199077901245" lon="8.308829276601717"><ele>202.0</ele><time>2026-04-06T16:28:15.001Z</time></trkpt><trkpt lat="44.932060821444814" lon="8.308757111068116"><ele>203.6</ele><time>2026-04-06T16:28:16.001Z</time></trkpt><trkpt lat="44.932149246876314" lon="8.30870490937205"><ele>205.2</ele><time>2026-04-06T16:28:17.001Z</time></trkpt><trkpt lat="44.93223056071013" lon="8.308634246849312"><ele>206.8</ele><time>2026-04-06T16:28:18.001Z</time></trkpt><trkpt lat="44.93229557394954" lon="8.308583256015558"><ele>208.4</ele><time>2026-04-06T16:28:19.001Z</time></trkpt><trkpt lat="44.932371229009625" lon="8.308536434253288"><ele>210.0</ele><time>2026-04-06T16:28:20.001Z</time></trkpt><trkpt lat="44.93247980511087" lon="8.308482637224367"><ele>210.16666666666666</ele><time>2026-04-06T16:28:21.001Z</time></trkpt><trkpt lat="44.93256474340754" lon="8.308467360657488"><ele>210.33333333333331</ele><time>2026-04-06T16:28:22.001Z</time></trkpt><trkpt lat="44.932649992705585" lon="8.30847251015451"><ele>210.5</ele><time>2026-04-06T16:28:23.001Z</time></trkpt><trkpt lat="44.932722424568944" lon="8.30844221619101"><ele>210.66666666666666</ele><time>2026-04-06T16:28:24.001Z</time></trkpt><trkpt lat="44.932802479094065" lon="8.308428377855854"><ele>210.83333333333331</ele><time>2026-04-06T16:28:25.001Z</time></trkpt><trkpt lat="44.932881650631366" lon="8.308399980880035"><ele>211.0</ele><time>2026-04-06T16:28:26.001Z</time></trkpt><trkpt lat="44.93295619097578" lon="8.308378521925572"><ele>210.99999999999997</ele><time>2026-04-06T16:28:27.001Z</time></trkpt><trkpt lat="44.93303260095091" lon="8.308366217175863"><ele>211.0</ele><time>2026-04-06T16:28:28.001Z</time></trkpt><trkpt lat="44.933093914499224" lon="8.308339614871308"><ele>211.0</ele><time>2026-04-06T16:28:29.001Z</time></trkpt><trkpt lat="44.9331715086135" lon="8.3083537851948"><ele>211.0</ele><time>2026-04-06T16:28:30.001Z</time></trkpt><trkpt lat="44.93326913043173" lon="8.30838334525232"><ele>210.99999999999997</ele><time>2026-04-06T16:28:31.001Z</time></trkpt><trkpt lat="44.93335560397215" lon="8.308419744987994"><ele>211.0</ele><time>2026-04-06T16:28:32.001Z</time></trkpt><trkpt lat="44.93344328097435" lon="8.30843581650955"><ele>210.20000000000002</ele><time>2026-04-06T16:28:33.001Z</time></trkpt><trkpt lat="44.9335364708866" lon="8.308445689011956"><ele>209.4</ele><time>2026-04-06T16:28:34.001Z</time></trkpt><trkpt lat="44.93364486588472" lon="8.308447761972976"><ele>208.6</ele><time>2026-04-06T16:28:35.001Z</time></trkpt><trkpt lat="44.93374291974789" lon="8.30844816181432"><ele>207.8</ele><time>2026-04-06T16:28:36.001Z</time></trkpt><trkpt lat="44.93384165102279" lon="8.308432755567948"><ele>207.0</ele><time>2026-04-06T16:28:37.001Z</time></trkpt><trkpt lat="44.93391757200579" lon="8.30840676563333"><ele>207.0</ele><time>2026-04-06T16:28:38.001Z</time></trkpt><trkpt lat="44.93399814302649" lon="8.30838639040762"><ele>207.0</ele><time>2026-04-06T16:28:39.001Z</time></trkpt><trkpt lat="44.9340884660772" lon="8.308391610667547"><ele>207.0</ele><time>2026-04-06T16:28:40.001Z</time></trkpt><trkpt lat="44.934182184272906" lon="8.308409334559263"><ele>207.0</ele><time>2026-04-06T16:28:41.001Z</time></trkpt><trkpt lat="44.93425641419874" lon="8.30843260313785"><ele>207.0</ele><time>2026-04-06T16:28:42.001Z</time></trkpt><trkpt lat="44.93432283457627" lon="8.308456109111267"><ele>207.0</ele><time>2026-04-06T16:28:43.001Z</time></trkpt><trkpt lat="44.93442327383105" lon="8.308548262392613"><ele>207.16666666666666</ele><time>2026-04-06T16:28:45.001Z</time></trkpt><trkpt lat="44.93447108089036" lon="8.308622497077014"><ele>207.33333333333331</ele><time>2026-04-06T16:28:46.002Z</time></trkpt><trkpt lat="44.93451933952061" lon="8.30873271971631"><ele>207.5</ele><time>2026-04-06T16:28:47.002Z</time></trkpt><trkpt lat="44.93457390827961" lon="8.308868759810263"><ele>207.66666666666666</ele><time>2026-04-06T16:28:48.002Z</time></trkpt><trkpt lat="44.93462129986656" lon="8.308968012845188"><ele>207.83333333333331</ele><time>2026-04-06T16:28:49.002Z</time></trkpt><trkpt lat="44.934663799315736" lon="8.30905129226712"><ele>208.0</ele><time>2026-04-06T16:28:50.002Z</time></trkpt><trkpt lat="44.93470686511039" lon="8.309129106993947"><ele>209.8</ele><time>2026-04-06T16:28:51.002Z</time></trkpt><trkpt lat="44.93475377704257" lon="8.309214994357452"><ele>211.60000000000002</ele><time>2026-04-06T16:28:52.002Z</time></trkpt><trkpt lat="44.93487051131939" lon="8.30933048371252"><ele>213.39999999999998</ele><time>2026-04-06T16:28:54.002Z</time></trkpt><trkpt lat="44.93495541902717" lon="8.30939645270791"><ele>215.2</ele><time>2026-04-06T16:28:55.002Z</time></trkpt><trkpt lat="44.93503637575783" lon="8.309424508183247"><ele>217.0</ele><time>2026-04-06T16:28:56.002Z</time></trkpt><trkpt lat="44.93510505734728" lon="8.309438294701113"><ele>217.49999999999997</ele><time>2026-04-06T16:28:57.002Z</time></trkpt><trkpt lat="44.93517958631843" lon="8.309406281773267"><ele>218.0</ele><time>2026-04-06T16:28:58.002Z</time></trkpt><trkpt lat="44.93524497352887" lon="8.309347682610388"><ele>218.5</ele><time>2026-04-06T16:28:59Z</time></trkpt><trkpt lat="44.93531005447425" lon="8.309254155939442"><ele>219.0</ele><time>2026-04-06T16:29:00Z</time></trkpt><trkpt lat="44.935365906209576" lon="8.309147161915401"><ele>219.49999999999997</ele><time>2026-04-06T16:29:01Z</time></trkpt><trkpt lat="44.93541896845205" lon="8.309021669270217"><ele>220.0</ele><time>2026-04-06T16:29:02Z</time></trkpt><trkpt lat="44.93546165254218" lon="8.308923185387508"><ele>219.99999999999997</ele><time>2026-04-06T16:29:03Z</time></trkpt><trkpt lat="44.93549243800283" lon="8.308836567054737"><ele>220.0</ele><time>2026-04-06T16:29:04Z</time></trkpt><trkpt lat="44.935533024812315" lon="8.308733829185355"><ele>220.0</ele><time>2026-04-06T16:29:05Z</time></trkpt><trkpt lat="44.93556066265713" lon="8.308623854574225"><ele>220.0</ele><time>2026-04-06T16:29:06Z</time></trkpt><trkpt lat="44.93558176515209" lon="8.308536782303106"><ele>219.99999999999997</ele><time>2026-04-06T16:29:07Z</time></trkpt><trkpt lat="44.93566729468377" lon="8.308417680811594"><ele>220.0</ele><time>2026-04-06T16:29:09Z</time></trkpt><trkpt lat="44.935759327299635" lon="8.308374970098141"><ele>219.99999999999997</ele><time>2026-04-06T16:29:10Z</time></trkpt><trkpt lat="44.93584537621966" lon="8.30835401697016"><ele>220.0</ele><time>2026-04-06T16:29:11Z</time></trkpt><trkpt lat="44.9359222279487" lon="8.30833229829012"><ele>220.0</ele><time>2026-04-06T16:29:12Z</time></trkpt><trkpt lat="44.93598487639998" lon="8.308262948826796"><ele>220.0</ele><time>2026-04-06T16:29:13Z</time></trkpt><trkpt lat="44.93604019464592" lon="8.308191870006032"><ele>219.99999999999997</ele><time>2026-04-06T16:29:14Z</time></trkpt><trkpt lat="44.93608207272419" lon="8.308106435047502"><ele>220.0</ele><time>2026-04-06T16:29:15Z</time></trkpt><trkpt lat="44.936180358342384" lon="8.308005824667077"><ele>217.8</ele><time>2026-04-06T16:29:17Z</time></trkpt><trkpt lat="44.93625379220219" lon="8.30798662610453"><ele>215.6</ele><time>2026-04-06T16:29:18Z</time></trkpt><trkpt lat="44.93636035578121" lon="8.307991961744728"><ele>213.39999999999998</ele><time>2026-04-06T16:29:19Z</time></trkpt><trkpt lat="44.936473020721635" lon="8.307985142783954"><ele>211.2</ele><time>2026-04-06T16:29:20Z</time></trkpt><trkpt lat="44.93659043944566" lon="8.30795565500721"><ele>209.0</ele><time>2026-04-06T16:29:21Z</time></trkpt><trkpt lat="44.936694678075426" lon="8.307939255989146"><ele>210.39999999999998</ele><time>2026-04-06T16:29:22Z</time></trkpt><trkpt lat="44.93678687259824" lon="8.307934759926642"><ele>211.8</ele><time>2026-04-06T16:29:23Z</time></trkpt><trkpt lat="44.936861949708764" lon="8.307931836996257"><ele>213.20000000000002</ele><time>2026-04-06T16:29:24Z</time></trkpt><trkpt lat="44.936992123082035" lon="8.30797667079313"><ele>214.60000000000002</ele><time>2026-04-06T16:29:26Z</time></trkpt><trkpt lat="44.937069464273605" lon="8.30803065420023"><ele>216.0</ele><time>2026-04-06T16:29:27Z</time></trkpt><trkpt lat="44.93713817073703" lon="8.308049312450345"><ele>216.0</ele><time>2026-04-06T16:29:28Z</time></trkpt><trkpt lat="44.93722420712344" lon="8.308024205628868"><ele>216.00000000000003</ele><time>2026-04-06T16:29:29Z</time></trkpt><trkpt lat="44.93731248544666" lon="8.30796721486818"><ele>216.00000000000003</ele><time>2026-04-06T16:29:30Z</time></trkpt><trkpt lat="44.93739625174694" lon="8.307919226564449"><ele>216.0</ele><time>2026-04-06T16:29:31Z</time></trkpt><trkpt lat="44.93745758033623" lon="8.307874130701599"><ele>216.0</ele><time>2026-04-06T16:29:32Z</time></trkpt><trkpt lat="44.93756947349484" lon="8.307884159740508"><ele>215.8</ele><time>2026-04-06T16:29:34Z</time></trkpt><trkpt lat="44.937617972363675" lon="8.307823653684165"><ele>215.60000000000002</ele><time>2026-04-06T16:29:35Z</time></trkpt><trkpt lat="44.93766780017733" lon="8.307724509180135"><ele>215.4</ele><time>2026-04-06T16:29:36Z</time></trkpt><trkpt lat="44.93771392048579" lon="8.307587546984685"><ele>215.2</ele><time>2026-04-06T16:29:37Z</time></trkpt><trkpt lat="44.93773266507622" lon="8.307480364413555"><ele>215.0</ele><time>2026-04-06T16:29:38Z</time></trkpt><trkpt lat="44.937825890135414" lon="8.307379799948162"><ele>215.0</ele><time>2026-04-06T16:29:40Z</time></trkpt><trkpt lat="44.93794345404443" lon="8.307257675772716"><ele>215.0</ele><time>2026-04-06T16:29:41Z</time></trkpt><trkpt lat="44.9380188643502" lon="8.307174994039729"><ele>215.0</ele><time>2026-04-06T16:29:42Z</time></trkpt><trkpt lat="44.9380769590343" lon="8.307116310271832"><ele>215.0</ele><time>2026-04-06T16:29:43Z</time></trkpt><trkpt lat="44.938136154893755" lon="8.307025236831715"><ele>215.0</ele><time>2026-04-06T16:29:44Z</time></trkpt><trkpt lat="44.938199548367535" lon="8.306918312955453"><ele>215.83333333333334</ele><time>2026-04-06T16:29:45Z</time></trkpt><trkpt lat="44.93825782811174" lon="8.306831878965442"><ele>216.66666666666669</ele><time>2026-04-06T16:29:46Z</time></trkpt><trkpt lat="44.938305519249816" lon="8.306748680660993"><ele>217.5</ele><time>2026-04-06T16:29:47.001Z</time></trkpt><trkpt lat="44.938362891373444" lon="8.306670125273504"><ele>218.33333333333331</ele><time>2026-04-06T16:29:48.001Z</time></trkpt><trkpt lat="44.93845707071734" lon="8.306688418313774"><ele>219.16666666666666</ele><time>2026-04-06T16:29:49.001Z</time></trkpt><trkpt lat="44.93854916521409" lon="8.306652643474662"><ele>220.0</ele><time>2026-04-06T16:29:50.001Z</time></trkpt><trkpt lat="44.93863433148977" lon="8.306630393350526"><ele>220.0</ele><time>2026-04-06T16:29:51.001Z</time></trkpt><trkpt lat="44.93873773823855" lon="8.306637112349524"><ele>220.0</ele><time>2026-04-06T16:29:52.001Z</time></trkpt><trkpt lat="44.938841760239065" lon="8.306648620024019"><ele>220.0</ele><time>2026-04-06T16:29:53.001Z</time></trkpt><trkpt lat="44.93894459916467" lon="8.306648947751402"><ele>220.0</ele><time>2026-04-06T16:29:54.001Z</time></trkpt><trkpt lat="44.93903646210896" lon="8.306644263096018"><ele>220.0</ele><time>2026-04-06T16:29:55.001Z</time></trkpt><trkpt lat="44.93911732244236" lon="8.30663896783424"><ele>220.0</ele><time>2026-04-06T16:29:56.001Z</time></trkpt><trkpt lat="44.93919797510748" lon="8.306622542829308"><ele>220.0</ele><time>2026-04-06T16:29:57.001Z</time></trkpt><trkpt lat="44.939300733283766" lon="8.306626486571513"><ele>220.0</ele><time>2026-04-06T16:29:58.001Z</time></trkpt><trkpt lat="44.93939418386614" lon="8.306614687332624"><ele>220.0</ele><time>2026-04-06T16:29:59.001Z</time></trkpt><trkpt lat="44.93949058181764" lon="8.306595497452998"><ele>220.0</ele><time>2026-04-06T16:30:00.001Z</time></trkpt><trkpt lat="44.93959782961577" lon="8.306571993322095"><ele>220.2</ele><time>2026-04-06T16:30:01.001Z</time></trkpt><trkpt lat="44.93969894298735" lon="8.306564560309901"><ele>220.4</ele><time>2026-04-06T16:30:02.001Z</time></trkpt><trkpt lat="44.93978028166455" lon="8.306517952887946"><ele>220.60000000000002</ele><time>2026-04-06T16:30:03.001Z</time></trkpt><trkpt lat="44.939875801099326" lon="8.306478926159775"><ele>220.8</ele><time>2026-04-06T16:30:04.001Z</time></trkpt><trkpt lat="44.939984281544916" lon="8.30643163424007"><ele>221.0</ele><time>2026-04-06T16:30:05.001Z</time></trkpt><trkpt lat="44.94009073345183" lon="8.306425206328628"><ele>221.20000000000002</ele><time>2026-04-06T16:30:06.001Z</time></trkpt><trkpt lat="44.94020074075862" lon="8.3064184872633"><ele>221.40000000000003</ele><time>2026-04-06T16:30:07.001Z</time></trkpt><trkpt lat="44.94030127320786" lon="8.30639179623009"><ele>221.6</ele><time>2026-04-06T16:30:08.001Z</time></trkpt><trkpt lat="44.940406151456386" lon="8.306352804954805"><ele>221.8</ele><time>2026-04-06T16:30:09.001Z</time></trkpt><trkpt lat="44.94047467179692" lon="8.306298593023245"><ele>222.0</ele><time>2026-04-06T16:30:10.001Z</time></trkpt><trkpt lat="44.94052345420897" lon="8.306238680126024"><ele>222.0</ele><time>2026-04-06T16:30:12.001Z</time></trkpt><trkpt lat="44.94058995545103" lon="8.30620486359199"><ele>222.0</ele><time>2026-04-06T16:30:14.001Z</time></trkpt><trkpt lat="44.94067693477618" lon="8.306143907814473"><ele>222.0</ele><time>2026-04-06T16:30:16.001Z</time></trkpt><trkpt lat="44.940744037894085" lon="8.306085793319067"><ele>222.0</ele><time>2026-04-06T16:30:17.001Z</time></trkpt><trkpt lat="44.94081986000565" lon="8.30603000930251"><ele>222.0</ele><time>2026-04-06T16:30:18.001Z</time></trkpt><trkpt lat="44.940907100067086" lon="8.305954937868343"><ele>222.0</ele><time>2026-04-06T16:30:19.001Z</time></trkpt><trkpt lat="44.940978190801424" lon="8.305878834358086"><ele>222.0</ele><time>2026-04-06T16:30:20.001Z</time></trkpt><trkpt lat="44.9410311509399" lon="8.305783297546554"><ele>222.0</ele><time>2026-04-06T16:30:21.001Z</time></trkpt><trkpt lat="44.94108886035922" lon="8.305661589805265"><ele>222.0</ele><time>2026-04-06T16:30:22.001Z</time></trkpt><trkpt lat="44.94113003749545" lon="8.305547522133105"><ele>222.0</ele><time>2026-04-06T16:30:23.001Z</time></trkpt><trkpt lat="44.94119058874" lon="8.305426426194543"><ele>222.0</ele><time>2026-04-06T16:30:24.001Z</time></trkpt><trkpt lat="44.941243122754045" lon="8.305315485349066"><ele>222.0</ele><time>2026-04-06T16:30:25.001Z</time></trkpt><trkpt lat="44.941278723576865" lon="8.305215359562178"><ele>222.0</ele><time>2026-04-06T16:30:26.001Z</time></trkpt><trkpt lat="44.9413163580572" lon="8.305098698520803"><ele>222.0</ele><time>2026-04-06T16:30:27.001Z</time></trkpt><trkpt lat="44.9413565882569" lon="8.304991936083441"><ele>222.0</ele><time>2026-04-06T16:30:28.001Z</time></trkpt><trkpt lat="44.94140811374322" lon="8.304891158533676"><ele>222.0</ele><time>2026-04-06T16:30:29.001Z</time></trkpt><trkpt lat="44.941458929475516" lon="8.304798640967801"><ele>222.0</ele><time>2026-04-06T16:30:30.001Z</time></trkpt><trkpt lat="44.941496329362586" lon="8.304718687674585"><ele>221.66666666666666</ele><time>2026-04-06T16:30:31.001Z</time></trkpt><trkpt lat="44.94154291221658" lon="8.30463750510853"><ele>221.33333333333331</ele><time>2026-04-06T16:30:32.001Z</time></trkpt><trkpt lat="44.94160140162778" lon="8.304562052983695"><ele>221.0</ele><time>2026-04-06T16:30:33.001Z</time></trkpt><trkpt lat="44.94167180473996" lon="8.304484956068894"><ele>220.66666666666666</ele><time>2026-04-06T16:30:34.001Z</time></trkpt><trkpt lat="44.94174668354548" lon="8.304415152337704"><ele>220.33333333333331</ele><time>2026-04-06T16:30:35.001Z</time></trkpt><trkpt lat="44.94182411258297" lon="8.304344312783337"><ele>220.0</ele><time>2026-04-06T16:30:36.001Z</time></trkpt><trkpt lat="44.94190086723579" lon="8.304275033751695"><ele>219.83333333333331</ele><time>2026-04-06T16:30:37.001Z</time></trkpt><trkpt lat="44.94198277134467" lon="8.304214165179193"><ele>219.66666666666666</ele><time>2026-04-06T16:30:38.001Z</time></trkpt><trkpt lat="44.94204629859918" lon="8.304145958830407"><ele>219.5</ele><time>2026-04-06T16:30:39.001Z</time></trkpt><trkpt lat="44.94211062204584" lon="8.304085124966518"><ele>219.33333333333331</ele><time>2026-04-06T16:30:40.001Z</time></trkpt><trkpt lat="44.94217267720105" lon="8.304001070726292"><ele>219.16666666666666</ele><time>2026-04-06T16:30:41.001Z</time></trkpt><trkpt lat="44.94222440665458" lon="8.3039168381131"><ele>219.0</ele><time>2026-04-06T16:30:42.001Z</time></trkpt><trkpt lat="44.942259298166086" lon="8.303837913705427"><ele>219.0</ele><time>2026-04-06T16:30:43.001Z</time></trkpt><trkpt lat="44.94231451051679" lon="8.303775276576308"><ele>218.99999999999997</ele><time>2026-04-06T16:30:44.001Z</time></trkpt><trkpt lat="44.9423741716319" lon="8.303745200841538"><ele>218.99999999999997</ele><time>2026-04-06T16:30:45.001Z</time></trkpt><trkpt lat="44.94233079613843" lon="8.303597513458545"><ele>219.0</ele><time>2026-04-06T16:30:49.001Z</time></trkpt><trkpt lat="44.942247266034435" lon="8.303498185983534"><ele>219.0</ele><time>2026-04-06T16:30:50.001Z</time></trkpt><trkpt lat="44.9421694295667" lon="8.303401524357074"><ele>219.0</ele><time>2026-04-06T16:30:51.001Z</time></trkpt><trkpt lat="44.94206256912724" lon="8.303289779803075"><ele>218.99999999999997</ele><time>2026-04-06T16:30:52.001Z</time></trkpt><trkpt lat="44.94198683726412" lon="8.30319415095641"><ele>218.99999999999997</ele><time>2026-04-06T16:30:53.001Z</time></trkpt><trkpt lat="44.94191446950354" lon="8.30312581577998"><ele>219.0</ele><time>2026-04-06T16:30:54.001Z</time></trkpt><trkpt lat="44.941848741239234" lon="8.303046055345243"><ele>219.0</ele><time>2026-04-06T16:30:55.002Z</time></trkpt><trkpt lat="44.94179615433707" lon="8.302971034196794"><ele>218.83333333333334</ele><time>2026-04-06T16:30:56.002Z</time></trkpt><trkpt lat="44.941734741999205" lon="8.302881467183955"><ele>218.66666666666669</ele><time>2026-04-06T16:30:57.002Z</time></trkpt><trkpt lat="44.941665933880245" lon="8.302794021435473"><ele>218.5</ele><time>2026-04-06T16:30:58.002Z</time></trkpt><trkpt lat="44.94159487208783" lon="8.302733396763696"><ele>218.33333333333334</ele><time>2026-04-06T16:30:59.002Z</time></trkpt><trkpt lat="44.941527677027665" lon="8.30266892794874"><ele>218.16666666666669</ele><time>2026-04-06T16:31:00.002Z</time></trkpt><trkpt lat="44.941460662030174" lon="8.302599024893404"><ele>218.0</ele><time>2026-04-06T16:31:01.002Z</time></trkpt><trkpt lat="44.94139000382483" lon="8.302533565151148"><ele>218.00000000000003</ele><time>2026-04-06T16:31:02.002Z</time></trkpt><trkpt lat="44.9413240203896" lon="8.30248051673044"><ele>218.0</ele><time>2026-04-06T16:31:03.002Z</time></trkpt><trkpt lat="44.94125511278308" lon="8.302428293842755"><ele>218.0</ele><time>2026-04-06T16:31:04.002Z</time></trkpt><trkpt lat="44.94118840764437" lon="8.302378055041807"><ele>218.0</ele><time>2026-04-06T16:31:05Z</time></trkpt><trkpt lat="44.9411111376859" lon="8.302313373050804"><ele>218.00000000000003</ele><time>2026-04-06T16:31:06Z</time></trkpt><trkpt lat="44.94103660554779" lon="8.302251551009585"><ele>218.0</ele><time>2026-04-06T16:31:07Z</time></trkpt><trkpt lat="44.9409449353545" lon="8.302237161207614"><ele>218.00000000000003</ele><time>2026-04-06T16:31:08Z</time></trkpt><trkpt lat="44.940867504842366" lon="8.302226561791745"><ele>218.0</ele><time>2026-04-06T16:31:09Z</time></trkpt><trkpt lat="44.94077548988735" lon="8.302203650927702"><ele>218.0</ele><time>2026-04-06T16:31:10Z</time></trkpt><trkpt lat="44.9406907289215" lon="8.30219292211805"><ele>218.0</ele><time>2026-04-06T16:31:11Z</time></trkpt><trkpt lat="44.94060216167696" lon="8.302169421116504"><ele>218.00000000000003</ele><time>2026-04-06T16:31:12Z</time></trkpt><trkpt lat="44.94051930296914" lon="8.302152311440283"><ele>218.0</ele><time>2026-04-06T16:31:13Z</time></trkpt><trkpt lat="44.94044178321401" lon="8.302148512897615"><ele>218.00000000000003</ele><time>2026-04-06T16:31:14Z</time></trkpt><trkpt lat="44.9403477125476" lon="8.302152593715418"><ele>218.0</ele><time>2026-04-06T16:31:15Z</time></trkpt><trkpt lat="44.94027552588961" lon="8.302143805536685"><ele>218.0</ele><time>2026-04-06T16:31:16Z</time></trkpt><trkpt lat="44.94017947239663" lon="8.302119303326313"><ele>218.0</ele><time>2026-04-06T16:31:17Z</time></trkpt><trkpt lat="44.940103308821506" lon="8.302095038083111"><ele>218.00000000000003</ele><time>2026-04-06T16:31:18Z</time></trkpt><trkpt lat="44.940022765983215" lon="8.302091077894243"><ele>218.0</ele><time>2026-04-06T16:31:19Z</time></trkpt><trkpt lat="44.93994478418604" lon="8.302074944733738"><ele>217.4</ele><time>2026-04-06T16:31:20Z</time></trkpt><trkpt lat="44.939871383188304" lon="8.302043694509484"><ele>216.8</ele><time>2026-04-06T16:31:21Z</time></trkpt><trkpt lat="44.9397892549778" lon="8.302002024623146"><ele>216.2</ele><time>2026-04-06T16:31:22Z</time></trkpt><trkpt lat="44.93971673836608" lon="8.301927557647495"><ele>215.6</ele><time>2026-04-06T16:31:23Z</time></trkpt><trkpt lat="44.93962865252369" lon="8.301847009947206"><ele>215.0</ele><time>2026-04-06T16:31:24Z</time></trkpt><trkpt lat="44.93953956383081" lon="8.301782688751075"><ele>215.0</ele><time>2026-04-06T16:31:25Z</time></trkpt><trkpt lat="44.93945965858529" lon="8.301727510060584"><ele>215.0</ele><time>2026-04-06T16:31:26Z</time></trkpt><trkpt lat="44.93937705642777" lon="8.30167259960155"><ele>215.0</ele><time>2026-04-06T16:31:27Z</time></trkpt><trkpt lat="44.939291215039795" lon="8.301618296122315"><ele>215.0</ele><time>2026-04-06T16:31:28Z</time></trkpt><trkpt lat="44.93921210421702" lon="8.301584577004549"><ele>215.0</ele><time>2026-04-06T16:31:29Z</time></trkpt><trkpt lat="44.939125160301764" lon="8.301522543170623"><ele>214.83333333333334</ele><time>2026-04-06T16:31:30Z</time></trkpt><trkpt lat="44.93903933827577" lon="8.301475881053573"><ele>214.66666666666669</ele><time>2026-04-06T16:31:31Z</time></trkpt><trkpt lat="44.93895791101416" lon="8.301415312032793"><ele>214.5</ele><time>2026-04-06T16:31:32Z</time></trkpt><trkpt lat="44.938891125517124" lon="8.301364731187979"><ele>214.33333333333331</ele><time>2026-04-06T16:31:33Z</time></trkpt><trkpt lat="44.938821206604665" lon="8.3013162360965"><ele>214.16666666666666</ele><time>2026-04-06T16:31:34Z</time></trkpt><trkpt lat="44.93875429651684" lon="8.301255485287626"><ele>214.0</ele><time>2026-04-06T16:31:35Z</time></trkpt><trkpt lat="44.93867923832141" lon="8.301192139367991"><ele>213.83333333333331</ele><time>2026-04-06T16:31:36Z</time></trkpt><trkpt lat="44.93861919586815" lon="8.301137460891537"><ele>213.66666666666666</ele><time>2026-04-06T16:31:37Z</time></trkpt><trkpt lat="44.93853500812064" lon="8.301049810157789"><ele>213.5</ele><time>2026-04-06T16:31:38Z</time></trkpt><trkpt lat="44.93847800494907" lon="8.300970305479254"><ele>213.33333333333331</ele><time>2026-04-06T16:31:39Z</time></trkpt><trkpt lat="44.93843203317089" lon="8.3009060468304"><ele>213.16666666666666</ele><time>2026-04-06T16:31:40Z</time></trkpt><trkpt lat="44.93837304781195" lon="8.300831106262185"><ele>213.0</ele><time>2026-04-06T16:31:41Z</time></trkpt><trkpt lat="44.93831875903965" lon="8.300756630057782"><ele>212.99999999999997</ele><time>2026-04-06T16:31:42Z</time></trkpt><trkpt lat="44.938259045139255" lon="8.300691817026511"><ele>213.0</ele><time>2026-04-06T16:31:43Z</time></trkpt><trkpt lat="44.938195393818404" lon="8.30064645883862"><ele>213.0</ele><time>2026-04-06T16:31:44Z</time></trkpt><trkpt lat="44.93813241436486" lon="8.300603275974183"><ele>213.0</ele><time>2026-04-06T16:31:45Z</time></trkpt><trkpt lat="44.93806776103287" lon="8.300546094689773"><ele>213.0</ele><time>2026-04-06T16:31:46Z</time></trkpt><trkpt lat="44.938002284997786" lon="8.300515793349135"><ele>212.99999999999997</ele><time>2026-04-06T16:31:47.001Z</time></trkpt><trkpt lat="44.937919490544026" lon="8.300522815465552"><ele>213.0</ele><time>2026-04-06T16:31:48.001Z</time></trkpt><trkpt lat="44.93782641684016" lon="8.30058039717187"><ele>213.0</ele><time>2026-04-06T16:31:49.001Z</time></trkpt><trkpt lat="44.937761778044795" lon="8.30062722223474"><ele>213.0</ele><time>2026-04-06T16:31:50.001Z</time></trkpt><trkpt lat="44.9376816034275" lon="8.300682917771033"><ele>213.0</ele><time>2026-04-06T16:31:51.001Z</time></trkpt><trkpt lat="44.937592889339015" lon="8.300762615355977"><ele>213.0</ele><time>2026-04-06T16:31:52.001Z</time></trkpt><trkpt lat="44.937510541894696" lon="8.30084101006416"><ele>213.0</ele><time>2026-04-06T16:31:53.001Z</time></trkpt><trkpt lat="44.93743214941424" lon="8.300931702633399"><ele>210.83333333333334</ele><time>2026-04-06T16:31:54.001Z</time></trkpt><trkpt lat="44.937372976022544" lon="8.301017977006698"><ele>208.66666666666669</ele><time>2026-04-06T16:31:55.001Z</time></trkpt><trkpt lat="44.937303568227414" lon="8.301078973217974"><ele>206.5</ele><time>2026-04-06T16:31:56.001Z</time></trkpt><trkpt lat="44.93725201216335" lon="8.301145927063493"><ele>204.33333333333334</ele><time>2026-04-06T16:31:57.001Z</time></trkpt><trkpt lat="44.93717386096348" lon="8.301208035124407"><ele>202.16666666666669</ele><time>2026-04-06T16:31:58.001Z</time></trkpt><trkpt lat="44.93710465814793" lon="8.301247687602249"><ele>200.0</ele><time>2026-04-06T16:31:59.001Z</time></trkpt><trkpt lat="44.937041250126754" lon="8.301294675521099"><ele>198.66666666666669</ele><time>2026-04-06T16:32:00.001Z</time></trkpt><trkpt lat="44.93697260419373" lon="8.301427227174498"><ele>197.33333333333334</ele><time>2026-04-06T16:32:02.001Z</time></trkpt><trkpt lat="44.93693379372054" lon="8.301501014610075"><ele>196.0</ele><time>2026-04-06T16:32:03.001Z</time></trkpt><trkpt lat="44.93688630437144" lon="8.301567505326283"><ele>194.66666666666669</ele><time>2026-04-06T16:32:04.001Z</time></trkpt><trkpt lat="44.9368327146157" lon="8.30161603758331"><ele>193.33333333333334</ele><time>2026-04-06T16:32:05.001Z</time></trkpt><trkpt lat="44.93677446214488" lon="8.30165825960583"><ele>192.0</ele><time>2026-04-06T16:32:06.001Z</time></trkpt><trkpt lat="44.93670637550739" lon="8.30170925375432"><ele>192.0</ele><time>2026-04-06T16:32:07.001Z</time></trkpt><trkpt lat="44.93662900242624" lon="8.301752781002612"><ele>192.0</ele><time>2026-04-06T16:32:08.001Z</time></trkpt><trkpt lat="44.93655319221492" lon="8.301781250428467"><ele>192.0</ele><time>2026-04-06T16:32:09.001Z</time></trkpt><trkpt lat="44.9364817276988" lon="8.301816819172199"><ele>192.0</ele><time>2026-04-06T16:32:10.001Z</time></trkpt><trkpt lat="44.93639604403893" lon="8.301878060527395"><ele>192.0</ele><time>2026-04-06T16:32:11.001Z</time></trkpt><trkpt lat="44.936307699614105" lon="8.301953404787955"><ele>192.0</ele><time>2026-04-06T16:32:12.001Z</time></trkpt><trkpt lat="44.936231627545666" lon="8.302009707584569"><ele>192.0</ele><time>2026-04-06T16:32:13.001Z</time></trkpt><trkpt lat="44.93615691613238" lon="8.30204997395821"><ele>192.0</ele><time>2026-04-06T16:32:14.001Z</time></trkpt><trkpt lat="44.93608892568919" lon="8.302077051771786"><ele>192.0</ele><time>2026-04-06T16:32:15.001Z</time></trkpt><trkpt lat="44.93601545734547" lon="8.302073771461588"><ele>192.0</ele><time>2026-04-06T16:32:16.001Z</time></trkpt><trkpt lat="44.935900985218545" lon="8.30202889191362"><ele>192.0</ele><time>2026-04-06T16:32:18.001Z</time></trkpt><trkpt lat="44.93582083425447" lon="8.301927637442436"><ele>191.8</ele><time>2026-04-06T16:32:20.001Z</time></trkpt><trkpt lat="44.93574272111469" lon="8.301794974227823"><ele>191.6</ele><time>2026-04-06T16:32:22.001Z</time></trkpt><trkpt lat="44.9357111764204" lon="8.301641790751082"><ele>191.4</ele><time>2026-04-06T16:32:26.001Z</time></trkpt><trkpt lat="44.93567978060156" lon="8.301541259605607"><ele>191.20000000000002</ele><time>2026-04-06T16:32:27.001Z</time></trkpt><trkpt lat="44.93565239249302" lon="8.301434771988252"><ele>191.0</ele><time>2026-04-06T16:32:28.001Z</time></trkpt><trkpt lat="44.93559465427242" lon="8.301282059916447"><ele>191.0</ele><time>2026-04-06T16:32:30.001Z</time></trkpt><trkpt lat="44.935516227430966" lon="8.301194714380976"><ele>191.0</ele><time>2026-04-06T16:32:32.001Z</time></trkpt><trkpt lat="44.93539945840837" lon="8.301152537104457"><ele>191.0</ele><time>2026-04-06T16:32:34.001Z</time></trkpt><trkpt lat="44.9352991967116" lon="8.301104452565882"><ele>191.0</ele><time>2026-04-06T16:32:36.001Z</time></trkpt><trkpt lat="44.93520809195696" lon="8.30102989046915"><ele>191.0</ele><time>2026-04-06T16:32:38.001Z</time></trkpt><trkpt lat="44.935131292984046" lon="8.300930117953724"><ele>191.0</ele><time>2026-04-06T16:32:40.001Z</time></trkpt><trkpt lat="44.93506659949927" lon="8.300814278496068"><ele>191.0</ele><time>2026-04-06T16:32:42.001Z</time></trkpt><trkpt lat="44.935002831388466" lon="8.30071323161035"><ele>191.0</ele><time>2026-04-06T16:32:44.001Z</time></trkpt><trkpt lat="44.934950048754054" lon="8.300623657493063"><ele>191.0</ele><time>2026-04-06T16:32:46.001Z</time></trkpt><trkpt lat="44.934890197148995" lon="8.300575103182913"><ele>191.0</ele><time>2026-04-06T16:33:11Z</time></trkpt><trkpt lat="44.93485458423411" lon="8.300497890915837"><ele>191.0</ele><time>2026-04-06T16:33:12Z</time></trkpt><trkpt lat="44.93480284288724" lon="8.300392579555444"><ele>186.75</ele><time>2026-04-06T16:33:13Z</time></trkpt><trkpt lat="44.93472347399915" lon="8.300261871497613"><ele>182.5</ele><time>2026-04-06T16:33:14Z</time></trkpt><trkpt lat="44.93463475682133" lon="8.300118571844619"><ele>178.25</ele><time>2026-04-06T16:33:15Z</time></trkpt><trkpt lat="44.93454788000069" lon="8.299978776396857"><ele>174.0</ele><time>2026-04-06T16:33:16Z</time></trkpt><trkpt lat="44.93446977009287" lon="8.299851288681763"><ele>172.6</ele><time>2026-04-06T16:33:17Z</time></trkpt><trkpt lat="44.93439441476232" lon="8.299729370244368"><ele>171.2</ele><time>2026-04-06T16:33:18Z</time></trkpt><trkpt lat="44.93432408148133" lon="8.299612920055901"><ele>169.79999999999998</ele><time>2026-04-06T16:33:19Z</time></trkpt><trkpt lat="44.93424184372202" lon="8.29949060175545"><ele>168.39999999999998</ele><time>2026-04-06T16:33:20Z</time></trkpt><trkpt lat="44.93417854501238" lon="8.299371617993218"><ele>167.0</ele><time>2026-04-06T16:33:21Z</time></trkpt><trkpt lat="44.93412068340402" lon="8.299243435223111"><ele>165.25</ele><time>2026-04-06T16:33:22Z</time></trkpt><trkpt lat="44.93405269918329" lon="8.299088556013626"><ele>163.5</ele><time>2026-04-06T16:33:23Z</time></trkpt><trkpt lat="44.93399181384368" lon="8.298916774161922"><ele>161.75</ele><time>2026-04-06T16:33:24Z</time></trkpt><trkpt lat="44.93393401067549" lon="8.298749807944604"><ele>160.0</ele><time>2026-04-06T16:33:25Z</time></trkpt><trkpt lat="44.93387733934449" lon="8.298593971049925"><ele>160.0</ele><time>2026-04-06T16:33:26Z</time></trkpt><trkpt lat="44.933820126996544" lon="8.298453290790073"><ele>160.0</ele><time>2026-04-06T16:33:27Z</time></trkpt><trkpt lat="44.933764389860954" lon="8.298345035316828"><ele>160.0</ele><time>2026-04-06T16:33:28Z</time></trkpt><trkpt lat="44.93369702558756" lon="8.298283220442642"><ele>160.0</ele><time>2026-04-06T16:33:29Z</time></trkpt><trkpt lat="44.93363131965953" lon="8.298232944494794"><ele>160.0</ele><time>2026-04-06T16:33:30Z</time></trkpt><trkpt lat="44.93356458191808" lon="8.298163264366318"><ele>160.0</ele><time>2026-04-06T16:33:31Z</time></trkpt><trkpt lat="44.93350901001116" lon="8.298074085652845"><ele>161.75</ele><time>2026-04-06T16:33:32Z</time></trkpt><trkpt lat="44.933378990492486" lon="8.298081639856743"><ele>163.5</ele><time>2026-04-06T16:33:33Z</time></trkpt><trkpt lat="44.9332985379894" lon="8.297950170995234"><ele>165.25</ele><time>2026-04-06T16:33:34Z</time></trkpt><trkpt lat="44.93322002129204" lon="8.297824916995769"><ele>167.0</ele><time>2026-04-06T16:33:35Z</time></trkpt><trkpt lat="44.93314410447105" lon="8.297707026995761"><ele>167.0</ele><time>2026-04-06T16:33:36Z</time></trkpt><trkpt lat="44.93305551783794" lon="8.297572853326047"><ele>167.0</ele><time>2026-04-06T16:33:37Z</time></trkpt><trkpt lat="44.932968583351546" lon="8.297452860201208"><ele>167.0</ele><time>2026-04-06T16:33:38Z</time></trkpt><trkpt lat="44.93289087806094" lon="8.297337664805198"><ele>167.0</ele><time>2026-04-06T16:33:39Z</time></trkpt><trkpt lat="44.932796559595175" lon="8.297231984879948"><ele>165.25</ele><time>2026-04-06T16:33:40Z</time></trkpt><trkpt lat="44.932665503592894" lon="8.297127968797703"><ele>163.5</ele><time>2026-04-06T16:33:41Z</time></trkpt><trkpt lat="44.932526927037124" lon="8.29703027102649"><ele>161.75</ele><time>2026-04-06T16:33:42Z</time></trkpt><trkpt lat="44.93240420740175" lon="8.29693972393279"><ele>160.0</ele><time>2026-04-06T16:33:43Z</time></trkpt><trkpt lat="44.932293491978896" lon="8.296854597285357"><ele>160.0</ele><time>2026-04-06T16:33:44Z</time></trkpt><trkpt lat="44.93218906745947" lon="8.296774356139755"><ele>160.0</ele><time>2026-04-06T16:33:45Z</time></trkpt><trkpt lat="44.93209170543641" lon="8.296694909783357"><ele>160.0</ele><time>2026-04-06T16:33:46Z</time></trkpt><trkpt lat="44.931999023022975" lon="8.296613602531556"><ele>160.0</ele><time>2026-04-06T16:33:47Z</time></trkpt><trkpt lat="44.931915878303805" lon="8.296524415033382"><ele>160.0</ele><time>2026-04-06T16:33:48Z</time></trkpt><trkpt lat="44.93183420952334" lon="8.296417429190566"><ele>161.4</ele><time>2026-04-06T16:33:49Z</time></trkpt><trkpt lat="44.93175999480203" lon="8.296313879069224"><ele>162.8</ele><time>2026-04-06T16:33:50Z</time></trkpt><trkpt lat="44.9316906690503" lon="8.296224599048365"><ele>164.2</ele><time>2026-04-06T16:33:51Z</time></trkpt><trkpt lat="44.931615649005096" lon="8.296163268379834"><ele>165.6</ele><time>2026-04-06T16:33:52Z</time></trkpt><trkpt lat="44.93153169961812" lon="8.296103915698225"><ele>167.0</ele><time>2026-04-06T16:33:53Z</time></trkpt><trkpt lat="44.93143914873437" lon="8.296072896558284"><ele>163.6</ele><time>2026-04-06T16:33:54.001Z</time></trkpt><trkpt lat="44.93133361400071" lon="8.296044655992944"><ele>160.2</ele><time>2026-04-06T16:33:55.001Z</time></trkpt><trkpt lat="44.93121901462424" lon="8.296029280614635"><ele>156.8</ele><time>2026-04-06T16:33:56.001Z</time></trkpt><trkpt lat="44.93111182875307" lon="8.296016176852056"><ele>153.4</ele><time>2026-04-06T16:33:57.001Z</time></trkpt><trkpt lat="44.9310066059232" lon="8.296008278333135"><ele>150.0</ele><time>2026-04-06T16:33:58.001Z</time></trkpt><trkpt lat="44.93090385006767" lon="8.296002759780173"><ele>149.0</ele><time>2026-04-06T16:33:59.001Z</time></trkpt><trkpt lat="44.930797923609816" lon="8.296021161392257"><ele>148.0</ele><time>2026-04-06T16:34:00.001Z</time></trkpt><trkpt lat="44.93068482016866" lon="8.29602789676525"><ele>147.0</ele><time>2026-04-06T16:34:01.001Z</time></trkpt><trkpt lat="44.93057316651376" lon="8.296035489042486"><ele>146.0</ele><time>2026-04-06T16:34:02.001Z</time></trkpt><trkpt lat="44.93046238512618" lon="8.296050812391814"><ele>145.0</ele><time>2026-04-06T16:34:03.001Z</time></trkpt><trkpt lat="44.93036108991247" lon="8.296070449512538"><ele>145.0</ele><time>2026-04-06T16:34:04.001Z</time></trkpt><trkpt lat="44.93027092188571" lon="8.296075090050104"><ele>145.0</ele><time>2026-04-06T16:34:05.001Z</time></trkpt><trkpt lat="44.93018938374271" lon="8.296080061241657"><ele>145.0</ele><time>2026-04-06T16:34:06.001Z</time></trkpt><trkpt lat="44.930124074325356" lon="8.296082337967192"><ele>145.0</ele><time>2026-04-06T16:34:07.001Z</time></trkpt><trkpt lat="44.93004429774568" lon="8.296033979674245"><ele>145.0</ele><time>2026-04-06T16:34:09.001Z</time></trkpt><trkpt lat="44.929986982243896" lon="8.295858108714134"><ele>144.83333333333334</ele><time>2026-04-06T16:34:11.001Z</time></trkpt><trkpt lat="44.92996609014886" lon="8.29575024017092"><ele>144.66666666666669</ele><time>2026-04-06T16:34:12.001Z</time></trkpt><trkpt lat="44.929968452737405" lon="8.295659433153675"><ele>144.5</ele><time>2026-04-06T16:34:14.001Z</time></trkpt><trkpt lat="44.93005334445905" lon="8.295572855612857"><ele>144.33333333333334</ele><time>2026-04-06T16:34:16.001Z</time></trkpt><trkpt lat="44.930126744808994" lon="8.295535185858684"><ele>144.16666666666666</ele><time>2026-04-06T16:34:17.001Z</time></trkpt><trkpt lat="44.93021918066081" lon="8.295483667401687"><ele>144.0</ele><time>2026-04-06T16:34:18.001Z</time></trkpt><trkpt lat="44.9303173830869" lon="8.29541566992226"><ele>145.0</ele><time>2026-04-06T16:34:19.001Z</time></trkpt><trkpt lat="44.93042923448925" lon="8.295345908134234"><ele>146.0</ele><time>2026-04-06T16:34:20.001Z</time></trkpt><trkpt lat="44.93054795389428" lon="8.295268225488796"><ele>147.0</ele><time>2026-04-06T16:34:21.001Z</time></trkpt><trkpt lat="44.93067070446528" lon="8.29518896738227"><ele>148.0</ele><time>2026-04-06T16:34:22.001Z</time></trkpt><trkpt lat="44.93079762024492" lon="8.295112777176723"><ele>148.0</ele><time>2026-04-06T16:34:23.001Z</time></trkpt><trkpt lat="44.930923056137516" lon="8.295035181420062"><ele>148.0</ele><time>2026-04-06T16:34:24.001Z</time></trkpt><trkpt lat="44.93104211287924" lon="8.29495677553886"><ele>148.0</ele><time>2026-04-06T16:34:25.001Z</time></trkpt><trkpt lat="44.931164256137386" lon="8.294878259361775"><ele>148.0</ele><time>2026-04-06T16:34:26.001Z</time></trkpt><trkpt lat="44.93128851778932" lon="8.294797036209637"><ele>147.75</ele><time>2026-04-06T16:34:27.001Z</time></trkpt><trkpt lat="44.93141362539621" lon="8.294713839355017"><ele>147.5</ele><time>2026-04-06T16:34:28.001Z</time></trkpt><trkpt lat="44.93153933203901" lon="8.294635716649752"><ele>147.25</ele><time>2026-04-06T16:34:29.001Z</time></trkpt><trkpt lat="44.93166473718653" lon="8.294557610806516"><ele>147.0</ele><time>2026-04-06T16:34:30.001Z</time></trkpt><trkpt lat="44.93178956908578" lon="8.294483531451736"><ele>147.75</ele><time>2026-04-06T16:34:31.001Z</time></trkpt><trkpt lat="44.931909939543225" lon="8.294410897334968"><ele>148.5</ele><time>2026-04-06T16:34:32.001Z</time></trkpt><trkpt lat="44.932030863211146" lon="8.294337790780725"><ele>149.25</ele><time>2026-04-06T16:34:33.001Z</time></trkpt><trkpt lat="44.932155029984365" lon="8.294265194540873"><ele>150.0</ele><time>2026-04-06T16:34:34.001Z</time></trkpt><trkpt lat="44.93227865187109" lon="8.294190369380011"><ele>150.0</ele><time>2026-04-06T16:34:35.001Z</time></trkpt><trkpt lat="44.9324012569297" lon="8.294112417550904"><ele>150.0</ele><time>2026-04-06T16:34:36.001Z</time></trkpt><trkpt lat="44.93252492471497" lon="8.294034201679002"><ele>150.0</ele><time>2026-04-06T16:34:37.001Z</time></trkpt><trkpt lat="44.93265244780585" lon="8.293954556678985"><ele>150.0</ele><time>2026-04-06T16:34:38.001Z</time></trkpt><trkpt lat="44.932780174743854" lon="8.293877305769728"><ele>149.75</ele><time>2026-04-06T16:34:39.001Z</time></trkpt><trkpt lat="44.93290779968047" lon="8.29379919923189"><ele>149.5</ele><time>2026-04-06T16:34:40.001Z</time></trkpt><trkpt lat="44.93303599270188" lon="8.293717605095068"><ele>149.25</ele><time>2026-04-06T16:34:41.001Z</time></trkpt><trkpt lat="44.933163768505324" lon="8.293635448386175"><ele>149.0</ele><time>2026-04-06T16:34:42.001Z</time></trkpt><trkpt lat="44.93329195736661" lon="8.293557323797971"><ele>151.25</ele><time>2026-04-06T16:34:43.001Z</time></trkpt><trkpt lat="44.93342036950844" lon="8.293476952043028"><ele>153.5</ele><time>2026-04-06T16:34:44.001Z</time></trkpt><trkpt lat="44.933548317803705" lon="8.293393339669176"><ele>155.75</ele><time>2026-04-06T16:34:45.001Z</time></trkpt><trkpt lat="44.93367823719581" lon="8.293316234033178"><ele>158.0</ele><time>2026-04-06T16:34:46.001Z</time></trkpt><trkpt lat="44.93380822618847" lon="8.293234504677729"><ele>158.0</ele><time>2026-04-06T16:34:47.001Z</time></trkpt><trkpt lat="44.93393577616062" lon="8.293155703600759"><ele>158.0</ele><time>2026-04-06T16:34:48.001Z</time></trkpt><trkpt lat="44.934064368221996" lon="8.293081628797523"><ele>158.0</ele><time>2026-04-06T16:34:49.001Z</time></trkpt><trkpt lat="44.93419538371923" lon="8.29300679946784"><ele>158.0</ele><time>2026-04-06T16:34:50.001Z</time></trkpt><trkpt lat="44.934326895289345" lon="8.292939528715678"><ele>156.0</ele><time>2026-04-06T16:34:51.001Z</time></trkpt><trkpt lat="44.9344597324401" lon="8.292876908806472"><ele>154.0</ele><time>2026-04-06T16:34:52.001Z</time></trkpt><trkpt lat="44.93459463414231" lon="8.292823962427555"><ele>152.0</ele><time>2026-04-06T16:34:53.001Z</time></trkpt><trkpt lat="44.93473527735043" lon="8.29279850230636"><ele>150.0</ele><time>2026-04-06T16:34:54.001Z</time></trkpt><trkpt lat="44.93486965221014" lon="8.292747831754868"><ele>150.0</ele><time>2026-04-06T16:34:55.001Z</time></trkpt><trkpt lat="44.93500554547224" lon="8.292696588641942"><ele>150.0</ele><time>2026-04-06T16:34:56.001Z</time></trkpt><trkpt lat="44.935142098742816" lon="8.292645096688274"><ele>150.0</ele><time>2026-04-06T16:34:57.001Z</time></trkpt><trkpt lat="44.935277482872394" lon="8.292594816801902"><ele>150.0</ele><time>2026-04-06T16:34:58.001Z</time></trkpt><trkpt lat="44.93541308347597" lon="8.292544756681265"><ele>151.0</ele><time>2026-04-06T16:34:59.001Z</time></trkpt><trkpt lat="44.93554732515235" lon="8.292495198303412"><ele>152.0</ele><time>2026-04-06T16:35:00.001Z</time></trkpt><trkpt lat="44.935681209632385" lon="8.292445483131742"><ele>153.0</ele><time>2026-04-06T16:35:01.001Z</time></trkpt><trkpt lat="44.9358063598595" lon="8.292398695059122"><ele>154.0</ele><time>2026-04-06T16:35:02.001Z</time></trkpt><trkpt lat="44.93593196419149" lon="8.29235173719077"><ele>153.5</ele><time>2026-04-06T16:35:03.001Z</time></trkpt><trkpt lat="44.936058423462796" lon="8.292291177596898"><ele>153.0</ele><time>2026-04-06T16:35:04.001Z</time></trkpt><trkpt lat="44.93619109882299" lon="8.292237439821214"><ele>152.5</ele><time>2026-04-06T16:35:05.001Z</time></trkpt><trkpt lat="44.936323868474965" lon="8.29218760060136"><ele>152.0</ele><time>2026-04-06T16:35:06.002Z</time></trkpt><trkpt lat="44.936461661075164" lon="8.292146197155233"><ele>152.0</ele><time>2026-04-06T16:35:07.002Z</time></trkpt><trkpt lat="44.93659642072426" lon="8.292089015532953"><ele>152.0</ele><time>2026-04-06T16:35:08.002Z</time></trkpt><trkpt lat="44.93673124782101" lon="8.292038790288006"><ele>152.0</ele><time>2026-04-06T16:35:09.002Z</time></trkpt><trkpt lat="44.93686302484121" lon="8.291989749964644"><ele>152.0</ele><time>2026-04-06T16:35:10.002Z</time></trkpt><trkpt lat="44.93699283560633" lon="8.291942866071526"><ele>152.5</ele><time>2026-04-06T16:35:11.002Z</time></trkpt><trkpt lat="44.9371231816282" lon="8.291894879828186"><ele>153.0</ele><time>2026-04-06T16:35:12.002Z</time></trkpt><trkpt lat="44.93724488263969" lon="8.291847159486721"><ele>153.5</ele><time>2026-04-06T16:35:13.002Z</time></trkpt><trkpt lat="44.93736826308211" lon="8.29179931753584"><ele>154.0</ele><time>2026-04-06T16:35:14.002Z</time></trkpt><trkpt lat="44.93749747898956" lon="8.29175435418466"><ele>154.25</ele><time>2026-04-06T16:35:15.002Z</time></trkpt><trkpt lat="44.93762574857003" lon="8.29170344929608"><ele>154.5</ele><time>2026-04-06T16:35:16.002Z</time></trkpt><trkpt lat="44.93775666172326" lon="8.29165412369616"><ele>154.75</ele><time>2026-04-06T16:35:17Z</time></trkpt><trkpt lat="44.93789004448101" lon="8.291613534628903"><ele>155.0</ele><time>2026-04-06T16:35:18Z</time></trkpt><trkpt lat="44.93802414110159" lon="8.291557392043565"><ele>155.0</ele><time>2026-04-06T16:35:19Z</time></trkpt><trkpt lat="44.93815648063337" lon="8.291502855172965"><ele>155.0</ele><time>2026-04-06T16:35:20Z</time></trkpt><trkpt lat="44.93829093101188" lon="8.291456050720956"><ele>155.0</ele><time>2026-04-06T16:35:21Z</time></trkpt><trkpt lat="44.93842246435103" lon="8.29140646523827"><ele>155.0</ele><time>2026-04-06T16:35:22Z</time></trkpt><trkpt lat="44.938552669564736" lon="8.291356346857144"><ele>155.25</ele><time>2026-04-06T16:35:23Z</time></trkpt><trkpt lat="44.93868441503299" lon="8.29130500736782"><ele>155.5</ele><time>2026-04-06T16:35:24Z</time></trkpt><trkpt lat="44.93881861077359" lon="8.291257205354366"><ele>155.75</ele><time>2026-04-06T16:35:25Z</time></trkpt><trkpt lat="44.93894934146664" lon="8.291206069232432"><ele>156.0</ele><time>2026-04-06T16:35:26Z</time></trkpt><trkpt lat="44.939081292223314" lon="8.291155836918733"><ele>156.0</ele><time>2026-04-06T16:35:27Z</time></trkpt><trkpt lat="44.93921165738145" lon="8.29110588997978"><ele>156.0</ele><time>2026-04-06T16:35:28Z</time></trkpt><trkpt lat="44.93934380636325" lon="8.291057559337553"><ele>156.0</ele><time>2026-04-06T16:35:29Z</time></trkpt><trkpt lat="44.93947426548377" lon="8.291007032020465"><ele>156.0</ele><time>2026-04-06T16:35:30Z</time></trkpt><trkpt lat="44.93960695072041" lon="8.290976341408522"><ele>157.0</ele><time>2026-04-06T16:35:31Z</time></trkpt><trkpt lat="44.939733338014186" lon="8.290928195264604"><ele>158.0</ele><time>2026-04-06T16:35:32Z</time></trkpt><trkpt lat="44.93986509555676" lon="8.290878003344552"><ele>159.0</ele><time>2026-04-06T16:35:33Z</time></trkpt><trkpt lat="44.93999492580259" lon="8.290829122510429"><ele>160.0</ele><time>2026-04-06T16:35:34Z</time></trkpt><trkpt lat="44.94012192467589" lon="8.290781379987145"><ele>159.25</ele><time>2026-04-06T16:35:35Z</time></trkpt><trkpt lat="44.94025221290462" lon="8.290732400658426"><ele>158.5</ele><time>2026-04-06T16:35:36Z</time></trkpt><trkpt lat="44.94037541984324" lon="8.290662938718189"><ele>157.75</ele><time>2026-04-06T16:35:37Z</time></trkpt><trkpt lat="44.94050912944869" lon="8.290631405262365"><ele>157.0</ele><time>2026-04-06T16:35:38Z</time></trkpt><trkpt lat="44.94063349059472" lon="8.29057553173809"><ele>157.0</ele><time>2026-04-06T16:35:39Z</time></trkpt><trkpt lat="44.94075305538686" lon="8.290526805317777"><ele>157.0</ele><time>2026-04-06T16:35:40Z</time></trkpt><trkpt lat="44.94087389998583" lon="8.290479559261902"><ele>157.0</ele><time>2026-04-06T16:35:41Z</time></trkpt><trkpt lat="44.940997778800735" lon="8.290441952511413"><ele>157.0</ele><time>2026-04-06T16:35:42Z</time></trkpt><trkpt lat="44.941117220927296" lon="8.290408644885492"><ele>157.0</ele><time>2026-04-06T16:35:43Z</time></trkpt><trkpt lat="44.94124124095005" lon="8.290368834475464"><ele>157.0</ele><time>2026-04-06T16:35:44Z</time></trkpt><trkpt lat="44.9413715358827" lon="8.290347337246686"><ele>157.0</ele><time>2026-04-06T16:35:45Z</time></trkpt><trkpt lat="44.94150613492582" lon="8.29033945281426"><ele>157.0</ele><time>2026-04-06T16:35:46Z</time></trkpt><trkpt lat="44.9416416108925" lon="8.290369352503227"><ele>157.5</ele><time>2026-04-06T16:35:47Z</time></trkpt><trkpt lat="44.9417781450953" lon="8.290368744693483"><ele>158.0</ele><time>2026-04-06T16:35:48Z</time></trkpt><trkpt lat="44.94191031039825" lon="8.290393818749793"><ele>158.5</ele><time>2026-04-06T16:35:49Z</time></trkpt><trkpt lat="44.94203886180878" lon="8.290424234470798"><ele>159.0</ele><time>2026-04-06T16:35:50Z</time></trkpt><trkpt lat="44.94216644370739" lon="8.290444230993842"><ele>159.0</ele><time>2026-04-06T16:35:51Z</time></trkpt><trkpt lat="44.94229377177328" lon="8.290460565872541"><ele>159.0</ele><time>2026-04-06T16:35:52Z</time></trkpt><trkpt lat="44.94241962500394" lon="8.290481966431038"><ele>159.0</ele><time>2026-04-06T16:35:53Z</time></trkpt><trkpt lat="44.942543873466846" lon="8.29050165552647"><ele>159.0</ele><time>2026-04-06T16:35:54Z</time></trkpt><trkpt lat="44.94266673781347" lon="8.290518336190013"><ele>159.25</ele><time>2026-04-06T16:35:55Z</time></trkpt><trkpt lat="44.942791089315286" lon="8.290538975574613"><ele>159.5</ele><time>2026-04-06T16:35:56Z</time></trkpt><trkpt lat="44.94291353668893" lon="8.290558863279513"><ele>159.75</ele><time>2026-04-06T16:35:57Z</time></trkpt><trkpt lat="44.943035759897654" lon="8.290581972212985"><ele>160.0</ele><time>2026-04-06T16:35:58Z</time></trkpt><trkpt lat="44.94315728241861" lon="8.290603579523147"><ele>160.75</ele><time>2026-04-06T16:35:59Z</time></trkpt><trkpt lat="44.943280728924975" lon="8.290624649182845"><ele>161.5</ele><time>2026-04-06T16:36:00Z</time></trkpt><trkpt lat="44.94339549057324" lon="8.290647910134933"><ele>162.25</ele><time>2026-04-06T16:36:01Z</time></trkpt><trkpt lat="44.94350994034463" lon="8.29066759092201"><ele>163.0</ele><time>2026-04-06T16:36:02Z</time></trkpt><trkpt lat="44.94362411971388" lon="8.290683625026574"><ele>163.0</ele><time>2026-04-06T16:36:03.001Z</time></trkpt><trkpt lat="44.94373474336254" lon="8.290695823617401"><ele>163.0</ele><time>2026-04-06T16:36:04.001Z</time></trkpt><trkpt lat="44.94385425960979" lon="8.290721724688492"><ele>163.0</ele><time>2026-04-06T16:36:05.001Z</time></trkpt><trkpt lat="44.94397878425455" lon="8.290735860082275"><ele>163.0</ele><time>2026-04-06T16:36:06.001Z</time></trkpt><trkpt lat="44.94410291200613" lon="8.290763493855769"><ele>162.25</ele><time>2026-04-06T16:36:07.001Z</time></trkpt><trkpt lat="44.94422516592523" lon="8.290790041457676"><ele>161.5</ele><time>2026-04-06T16:36:08.001Z</time></trkpt><trkpt lat="44.9443480500248" lon="8.290808953161337"><ele>160.75</ele><time>2026-04-06T16:36:09.001Z</time></trkpt><trkpt lat="44.94447197801872" lon="8.290828115355668"><ele>160.0</ele><time>2026-04-06T16:36:10.001Z</time></trkpt><trkpt lat="44.94459253768007" lon="8.290846829100053"><ele>160.0</ele><time>2026-04-06T16:36:11.001Z</time></trkpt><trkpt lat="44.94471610722848" lon="8.290874714096875"><ele>160.0</ele><time>2026-04-06T16:36:12.001Z</time></trkpt><trkpt lat="44.944837550246085" lon="8.290892953898622"><ele>160.0</ele><time>2026-04-06T16:36:13.001Z</time></trkpt><trkpt lat="44.944956994392285" lon="8.290911389801796"><ele>160.0</ele><time>2026-04-06T16:36:14.001Z</time></trkpt><trkpt lat="44.94507604315068" lon="8.290931065632154"><ele>161.0</ele><time>2026-04-06T16:36:15.001Z</time></trkpt><trkpt lat="44.94519656139598" lon="8.290948352408142"><ele>162.0</ele><time>2026-04-06T16:36:16.001Z</time></trkpt><trkpt lat="44.94531618594257" lon="8.290966520388563"><ele>163.0</ele><time>2026-04-06T16:36:17.001Z</time></trkpt><trkpt lat="44.9454357012329" lon="8.290983164718257"><ele>164.0</ele><time>2026-04-06T16:36:18.001Z</time></trkpt><trkpt lat="44.94555464274505" lon="8.291004663301571"><ele>164.0</ele><time>2026-04-06T16:36:19.001Z</time></trkpt><trkpt lat="44.94567283044264" lon="8.291028194279047"><ele>164.0</ele><time>2026-04-06T16:36:20.001Z</time></trkpt><trkpt lat="44.945790844066025" lon="8.291049632549319"><ele>164.0</ele><time>2026-04-06T16:36:21.001Z</time></trkpt><trkpt lat="44.94590982595886" lon="8.291070744487318"><ele>164.0</ele><time>2026-04-06T16:36:22.001Z</time></trkpt><trkpt lat="44.946030468414286" lon="8.291090178775818"><ele>164.25</ele><time>2026-04-06T16:36:23.001Z</time></trkpt><trkpt lat="44.946151772364225" lon="8.291111804665638"><ele>164.5</ele><time>2026-04-06T16:36:24.001Z</time></trkpt><trkpt lat="44.94627538184143" lon="8.291130283776724"><ele>164.75</ele><time>2026-04-06T16:36:25.001Z</time></trkpt><trkpt lat="44.94639450863749" lon="8.291142212633565"><ele>165.0</ele><time>2026-04-06T16:36:26.001Z</time></trkpt><trkpt lat="44.94651813439015" lon="8.291163674913587"><ele>165.0</ele><time>2026-04-06T16:36:27.001Z</time></trkpt><trkpt lat="44.94664206899303" lon="8.29118633209754"><ele>165.0</ele><time>2026-04-06T16:36:28.001Z</time></trkpt><trkpt lat="44.94676778359891" lon="8.291208944296772"><ele>165.0</ele><time>2026-04-06T16:36:29.001Z</time></trkpt><trkpt lat="44.946896563368675" lon="8.291228905799558"><ele>165.0</ele><time>2026-04-06T16:36:30.001Z</time></trkpt><trkpt lat="44.94702309312561" lon="8.291251172332185"><ele>165.0</ele><time>2026-04-06T16:36:31.001Z</time></trkpt><trkpt lat="44.94714724226773" lon="8.291269920858795"><ele>165.0</ele><time>2026-04-06T16:36:32.001Z</time></trkpt><trkpt lat="44.94726969711773" lon="8.291287058450585"><ele>165.0</ele><time>2026-04-06T16:36:33.001Z</time></trkpt><trkpt lat="44.94738990429905" lon="8.291309039518834"><ele>165.0</ele><time>2026-04-06T16:36:34.001Z</time></trkpt><trkpt lat="44.94751075422079" lon="8.291327925303248"><ele>164.75</ele><time>2026-04-06T16:36:35.001Z</time></trkpt><trkpt lat="44.94762962654226" lon="8.291345060219532"><ele>164.5</ele><time>2026-04-06T16:36:36.001Z</time></trkpt><trkpt lat="44.94774864373439" lon="8.291369255401257"><ele>164.25</ele><time>2026-04-06T16:36:37.001Z</time></trkpt><trkpt lat="44.947867633668686" lon="8.29138930529897"><ele>164.0</ele><time>2026-04-06T16:36:38.001Z</time></trkpt><trkpt lat="44.94798623229699" lon="8.291408002457274"><ele>164.2</ele><time>2026-04-06T16:36:39.001Z</time></trkpt><trkpt lat="44.94810042788059" lon="8.291429168265672"><ele>164.39999999999998</ele><time>2026-04-06T16:36:40.001Z</time></trkpt><trkpt lat="44.948198594842296" lon="8.291451208783148"><ele>164.6</ele><time>2026-04-06T16:36:41.001Z</time></trkpt><trkpt lat="44.94829271522022" lon="8.291473115032767"><ele>164.8</ele><time>2026-04-06T16:36:42.001Z</time></trkpt><trkpt lat="44.94838438295854" lon="8.291502440340135"><ele>165.0</ele><time>2026-04-06T16:36:43.001Z</time></trkpt><trkpt lat="44.94846419732294" lon="8.29152785571202"><ele>165.33333333333334</ele><time>2026-04-06T16:36:44.001Z</time></trkpt><trkpt lat="44.94853835577086" lon="8.291563321468459"><ele>165.66666666666666</ele><time>2026-04-06T16:36:45.001Z</time></trkpt><trkpt lat="44.948605894330434" lon="8.29160763330671"><ele>166.0</ele><time>2026-04-06T16:36:46.001Z</time></trkpt><trkpt lat="44.94866363305834" lon="8.291646932931286"><ele>166.33333333333331</ele><time>2026-04-06T16:36:47.001Z</time></trkpt><trkpt lat="44.94871583847011" lon="8.291718624830645"><ele>166.66666666666666</ele><time>2026-04-06T16:36:49.001Z</time></trkpt><trkpt lat="44.94882203050648" lon="8.291593840461346"><ele>167.0</ele><time>2026-04-06T16:36:50.001Z</time></trkpt><trkpt lat="44.94889160893618" lon="8.291519328989727"><ele>167.0</ele><time>2026-04-06T16:36:51.001Z</time></trkpt><trkpt lat="44.94896899799079" lon="8.29144767066645"><ele>167.0</ele><time>2026-04-06T16:36:52.001Z</time></trkpt><trkpt lat="44.949050530663456" lon="8.291373178914336"><ele>167.0</ele><time>2026-04-06T16:36:53.001Z</time></trkpt><trkpt lat="44.9491345591024" lon="8.291293302441977"><ele>167.0</ele><time>2026-04-06T16:36:54.001Z</time></trkpt><trkpt lat="44.949206118103945" lon="8.291223131423164"><ele>167.0</ele><time>2026-04-06T16:36:55.001Z</time></trkpt><trkpt lat="44.94927416581633" lon="8.291150159427984"><ele>167.16666666666666</ele><time>2026-04-06T16:36:56.001Z</time></trkpt><trkpt lat="44.94933700838843" lon="8.291070160996169"><ele>167.33333333333331</ele><time>2026-04-06T16:36:57.001Z</time></trkpt><trkpt lat="44.949377612890515" lon="8.29096776399897"><ele>167.5</ele><time>2026-04-06T16:36:58.001Z</time></trkpt><trkpt lat="44.94939916436247" lon="8.290853343610307"><ele>167.66666666666666</ele><time>2026-04-06T16:36:59.001Z</time></trkpt><trkpt lat="44.94939230359063" lon="8.290721680744117"><ele>167.83333333333334</ele><time>2026-04-06T16:37:00.001Z</time></trkpt><trkpt lat="44.94938313745796" lon="8.290596670401246"><ele>168.0</ele><time>2026-04-06T16:37:01.001Z</time></trkpt><trkpt lat="44.94937138854397" lon="8.290467959837306"><ele>168.0</ele><time>2026-04-06T16:37:02.001Z</time></trkpt><trkpt lat="44.94936084799988" lon="8.290355286746362"><ele>168.0</ele><time>2026-04-06T16:37:03.001Z</time></trkpt><trkpt lat="44.94935177185041" lon="8.290253348385228"><ele>168.0</ele><time>2026-04-06T16:37:04.001Z</time></trkpt><trkpt lat="44.94933866411653" lon="8.290162182122826"><ele>168.0</ele><time>2026-04-06T16:37:05.001Z</time></trkpt><trkpt lat="44.9493479185503" lon="8.290068613008371"><ele>168.0</ele><time>2026-04-06T16:37:06.001Z</time></trkpt><trkpt lat="44.94937745359104" lon="8.289976789464784"><ele>168.0</ele><time>2026-04-06T16:37:07.001Z</time></trkpt><trkpt lat="44.94940519389361" lon="8.289894077682066"><ele>168.0</ele><time>2026-04-06T16:37:08.001Z</time></trkpt><trkpt lat="44.949507638668514" lon="8.289863965679874"><ele>168.0</ele><time>2026-04-06T16:37:09.001Z</time></trkpt><trkpt lat="44.94958748246329" lon="8.289819164176762"><ele>168.0</ele><time>2026-04-06T16:37:10.001Z</time></trkpt><trkpt lat="44.949678729643985" lon="8.289771514390903"><ele>168.0</ele><time>2026-04-06T16:37:11.001Z</time></trkpt><trkpt lat="44.949770829965054" lon="8.289689686649227"><ele>168.0</ele><time>2026-04-06T16:37:12.001Z</time></trkpt><trkpt lat="44.94987744525203" lon="8.289636859762357"><ele>168.0</ele><time>2026-04-06T16:37:13.001Z</time></trkpt><trkpt lat="44.94998714488588" lon="8.289573129534771"><ele>170.0</ele><time>2026-04-06T16:37:14.001Z</time></trkpt><trkpt lat="44.95009989385417" lon="8.289506744502575"><ele>172.0</ele><time>2026-04-06T16:37:15.001Z</time></trkpt><trkpt lat="44.95022542234147" lon="8.289472937054008"><ele>174.0</ele><time>2026-04-06T16:37:16.001Z</time></trkpt><trkpt lat="44.95034302429296" lon="8.289407408818688"><ele>176.0</ele><time>2026-04-06T16:37:17.001Z</time></trkpt><trkpt lat="44.950450732396526" lon="8.289347940415135"><ele>176.0</ele><time>2026-04-06T16:37:18.002Z</time></trkpt><trkpt lat="44.950552354405126" lon="8.289291832237721"><ele>176.0</ele><time>2026-04-06T16:37:19.002Z</time></trkpt><trkpt lat="44.95065043763832" lon="8.289237677866643"><ele>176.0</ele><time>2026-04-06T16:37:20.002Z</time></trkpt><trkpt lat="44.95074986375695" lon="8.28918278184512"><ele>176.0</ele><time>2026-04-06T16:37:21.002Z</time></trkpt><trkpt lat="44.950848585337205" lon="8.289128274984902"><ele>176.0</ele><time>2026-04-06T16:37:22.002Z</time></trkpt><trkpt lat="44.9509533843572" lon="8.289070412754299"><ele>174.75</ele><time>2026-04-06T16:37:23Z</time></trkpt><trkpt lat="44.95106103562705" lon="8.28901097545821"><ele>173.5</ele><time>2026-04-06T16:37:24Z</time></trkpt><trkpt lat="44.95117210622113" lon="8.288949650473146"><ele>172.25</ele><time>2026-04-06T16:37:25Z</time></trkpt><trkpt lat="44.951283559996476" lon="8.288891180099405"><ele>171.0</ele><time>2026-04-06T16:37:26Z</time></trkpt><trkpt lat="44.951394208112795" lon="8.288836805406072"><ele>173.4</ele><time>2026-04-06T16:37:27Z</time></trkpt><trkpt lat="44.95148799904145" lon="8.288783489938336"><ele>175.8</ele><time>2026-04-06T16:37:28Z</time></trkpt><trkpt lat="44.951573763089925" lon="8.288711101160295"><ele>178.20000000000002</ele><time>2026-04-06T16:37:29Z</time></trkpt><trkpt lat="44.95164949559338" lon="8.28860212644449"><ele>180.60000000000002</ele><time>2026-04-06T16:37:30Z</time></trkpt><trkpt lat="44.95169829313995" lon="8.288469288989926"><ele>183.0</ele><time>2026-04-06T16:37:31Z</time></trkpt><trkpt lat="44.951716348337534" lon="8.288314533264302"><ele>183.8</ele><time>2026-04-06T16:37:32Z</time></trkpt><trkpt lat="44.95173583405146" lon="8.28817644285128"><ele>184.60000000000002</ele><time>2026-04-06T16:37:33Z</time></trkpt><trkpt lat="44.95174265936316" lon="8.28802960369978"><ele>185.39999999999998</ele><time>2026-04-06T16:37:34Z</time></trkpt><trkpt lat="44.95173722150552" lon="8.287888815353115"><ele>186.2</ele><time>2026-04-06T16:37:35Z</time></trkpt><trkpt lat="44.95170864376165" lon="8.287750687628085"><ele>187.0</ele><time>2026-04-06T16:37:36Z</time></trkpt><trkpt lat="44.95165844943406" lon="8.287618465809404"><ele>188.5</ele><time>2026-04-06T16:37:37Z</time></trkpt><trkpt lat="44.951597384541095" lon="8.287492358848468"><ele>190.0</ele><time>2026-04-06T16:37:38Z</time></trkpt><trkpt lat="44.95154886764931" lon="8.287389285390532"><ele>191.5</ele><time>2026-04-06T16:37:39Z</time></trkpt><trkpt lat="44.95151602392522" lon="8.287295681221567"><ele>193.0</ele><time>2026-04-06T16:37:40Z</time></trkpt><trkpt lat="44.95150039475605" lon="8.287188667524891"><ele>194.49999999999997</ele><time>2026-04-06T16:37:41Z</time></trkpt><trkpt lat="44.951510208467454" lon="8.287082698039566"><ele>196.0</ele><time>2026-04-06T16:37:42Z</time></trkpt><trkpt lat="44.95156320575533" lon="8.287017672842945"><ele>195.49999999999997</ele><time>2026-04-06T16:37:43Z</time></trkpt><trkpt lat="44.951631303121125" lon="8.286976393442231"><ele>195.0</ele><time>2026-04-06T16:37:44Z</time></trkpt><trkpt lat="44.95171191479857" lon="8.28700213810814"><ele>194.5</ele><time>2026-04-06T16:37:45Z</time></trkpt><trkpt lat="44.951793009963296" lon="8.287032114079803"><ele>194.0</ele><time>2026-04-06T16:37:46Z</time></trkpt><trkpt lat="44.95187717235899" lon="8.287067300534877"><ele>193.49999999999997</ele><time>2026-04-06T16:37:47Z</time></trkpt><trkpt lat="44.951981050001585" lon="8.287081761662007"><ele>193.0</ele><time>2026-04-06T16:37:48Z</time></trkpt><trkpt lat="44.95208196431058" lon="8.287110842145372"><ele>193.0</ele><time>2026-04-06T16:37:49Z</time></trkpt><trkpt lat="44.95217742224487" lon="8.287156350699767"><ele>193.0</ele><time>2026-04-06T16:37:50Z</time></trkpt><trkpt lat="44.95228061359703" lon="8.287167616797017"><ele>193.0</ele><time>2026-04-06T16:37:51Z</time></trkpt><trkpt lat="44.9523807258423" lon="8.287174825017944"><ele>193.0</ele><time>2026-04-06T16:37:52Z</time></trkpt><trkpt lat="44.95247559118607" lon="8.287180081549185"><ele>193.0</ele><time>2026-04-06T16:37:53Z</time></trkpt><trkpt lat="44.95256648507033" lon="8.287185288474811"><ele>193.0</ele><time>2026-04-06T16:37:54Z</time></trkpt><trkpt lat="44.95265752214335" lon="8.287190503598234"><ele>193.0</ele><time>2026-04-06T16:37:55Z</time></trkpt><trkpt lat="44.952751436100144" lon="8.287195883524609"><ele>193.0</ele><time>2026-04-06T16:37:56Z</time></trkpt><trkpt lat="44.95284508266326" lon="8.287201248133034"><ele>193.0</ele><time>2026-04-06T16:37:57Z</time></trkpt><trkpt lat="44.95293797064616" lon="8.28720666491206"><ele>193.0</ele><time>2026-04-06T16:37:58Z</time></trkpt><trkpt lat="44.953033890032366" lon="8.287213399801448"><ele>192.99999999999997</ele><time>2026-04-06T16:37:59Z</time></trkpt><trkpt lat="44.953126871597924" lon="8.287219947529453"><ele>193.0</ele><time>2026-04-06T16:38:00Z</time></trkpt><trkpt lat="44.95321469722074" lon="8.287225447487335"><ele>193.0</ele><time>2026-04-06T16:38:01Z</time></trkpt><trkpt lat="44.953304494936795" lon="8.287226710790158"><ele>193.0</ele><time>2026-04-06T16:38:02.001Z</time></trkpt><trkpt lat="44.95338849862542" lon="8.287209372679767"><ele>192.99999999999997</ele><time>2026-04-06T16:38:03.001Z</time></trkpt><trkpt lat="44.9534553733556" lon="8.287131748866917"><ele>193.0</ele><time>2026-04-06T16:38:04.001Z</time></trkpt><trkpt lat="44.95348454060105" lon="8.287023486554684"><ele>192.99999999999997</ele><time>2026-04-06T16:38:05.001Z</time></trkpt><trkpt lat="44.95344887807675" lon="8.286913695952746"><ele>193.0</ele><time>2026-04-06T16:38:06.001Z</time></trkpt><trkpt lat="44.95340591258191" lon="8.286841819094416"><ele>193.0</ele><time>2026-04-06T16:38:07.001Z</time></trkpt><trkpt lat="44.9533397081427" lon="8.286783576995013"><ele>193.0</ele><time>2026-04-06T16:38:08.001Z</time></trkpt><trkpt lat="44.95327339504863" lon="8.286714986999986"><ele>192.99999999999997</ele><time>2026-04-06T16:38:09.001Z</time></trkpt><trkpt lat="44.95320280037972" lon="8.286648732660938"><ele>193.0</ele><time>2026-04-06T16:38:10.001Z</time></trkpt><trkpt lat="44.95314658600665" lon="8.286547258975089"><ele>193.0</ele><time>2026-04-06T16:38:11.001Z</time></trkpt><trkpt lat="44.95309960648277" lon="8.28644833321572"><ele>193.0</ele><time>2026-04-06T16:38:12.001Z</time></trkpt><trkpt lat="44.95306258231551" lon="8.286331685324223"><ele>193.0</ele><time>2026-04-06T16:38:13.001Z</time></trkpt><trkpt lat="44.95302975376793" lon="8.286201869654382"><ele>193.0</ele><time>2026-04-06T16:38:14.001Z</time></trkpt><trkpt lat="44.95301455324602" lon="8.286067546500599"><ele>193.0</ele><time>2026-04-06T16:38:15.001Z</time></trkpt><trkpt lat="44.95303701103718" lon="8.285940015053729"><ele>193.66666666666666</ele><time>2026-04-06T16:38:16.001Z</time></trkpt><trkpt lat="44.95306220356761" lon="8.285836732203085"><ele>194.33333333333331</ele><time>2026-04-06T16:38:17.001Z</time></trkpt><trkpt lat="44.953097000099476" lon="8.28575709519597"><ele>195.0</ele><time>2026-04-06T16:38:18.001Z</time></trkpt><trkpt lat="44.95315067210394" lon="8.285693750099627"><ele>195.66666666666669</ele><time>2026-04-06T16:38:19.001Z</time></trkpt><trkpt lat="44.95322377693921" lon="8.285655503270318"><ele>196.33333333333334</ele><time>2026-04-06T16:38:20.001Z</time></trkpt><trkpt lat="44.953303197060976" lon="8.28565019028948"><ele>197.0</ele><time>2026-04-06T16:38:21.001Z</time></trkpt><trkpt lat="44.9533908630207" lon="8.285633788323828"><ele>197.00000000000003</ele><time>2026-04-06T16:38:22.001Z</time></trkpt><trkpt lat="44.95347164643923" lon="8.285657004396198"><ele>197.0</ele><time>2026-04-06T16:38:23.001Z</time></trkpt><trkpt lat="44.95353991959878" lon="8.285606931423521"><ele>197.0</ele><time>2026-04-06T16:38:24.001Z</time></trkpt><trkpt lat="44.953608634381986" lon="8.285572781024277"><ele>197.0</ele><time>2026-04-06T16:38:25.001Z</time></trkpt><trkpt lat="44.953650253009286" lon="8.285492543730493"><ele>197.00000000000003</ele><time>2026-04-06T16:38:26.001Z</time></trkpt><trkpt lat="44.95366489732697" lon="8.28536468188549"><ele>197.0</ele><time>2026-04-06T16:38:27.001Z</time></trkpt><trkpt lat="44.953636576496486" lon="8.285257762297485"><ele>197.0</ele><time>2026-04-06T16:38:28.001Z</time></trkpt><trkpt lat="44.95357121909741" lon="8.285157926415707"><ele>197.0</ele><time>2026-04-06T16:38:29.001Z</time></trkpt><trkpt lat="44.95349437948725" lon="8.285086866615396"><ele>197.0</ele><time>2026-04-06T16:38:30.001Z</time></trkpt><trkpt lat="44.95342563519436" lon="8.285001755850963"><ele>197.0</ele><time>2026-04-06T16:38:31.001Z</time></trkpt><trkpt lat="44.95336510545925" lon="8.28491467347891"><ele>197.0</ele><time>2026-04-06T16:38:32.001Z</time></trkpt><trkpt lat="44.953314345645445" lon="8.284819433766195"><ele>195.00000000000003</ele><time>2026-04-06T16:38:33.001Z</time></trkpt><trkpt lat="44.95327715441113" lon="8.284717520324122"><ele>193.0</ele><time>2026-04-06T16:38:34.001Z</time></trkpt><trkpt lat="44.95326446749187" lon="8.284601154915201"><ele>191.0</ele><time>2026-04-06T16:38:35.001Z</time></trkpt><trkpt lat="44.953280568171" lon="8.284482135049783"><ele>189.0</ele><time>2026-04-06T16:38:36.001Z</time></trkpt><trkpt lat="44.95332276585149" lon="8.28437109467572"><ele>187.0</ele><time>2026-04-06T16:38:37.001Z</time></trkpt><trkpt lat="44.95340863071803" lon="8.284276924471076"><ele>185.0</ele><time>2026-04-06T16:38:38.001Z</time></trkpt><trkpt lat="44.95349003719585" lon="8.284161951424098"><ele>185.0</ele><time>2026-04-06T16:38:39.001Z</time></trkpt><trkpt lat="44.95357025132792" lon="8.284049855979724"><ele>185.0</ele><time>2026-04-06T16:38:40.001Z</time></trkpt><trkpt lat="44.95364341964308" lon="8.283943884918115"><ele>185.0</ele><time>2026-04-06T16:38:41.001Z</time></trkpt><trkpt lat="44.95371143575074" lon="8.283829946419585"><ele>185.0</ele><time>2026-04-06T16:38:42.001Z</time></trkpt><trkpt lat="44.95377048051556" lon="8.283711765028812"><ele>185.0</ele><time>2026-04-06T16:38:43.001Z</time></trkpt><trkpt lat="44.95380394802255" lon="8.283557598526212"><ele>180.25</ele><time>2026-04-06T16:38:44.001Z</time></trkpt><trkpt lat="44.95382817354516" lon="8.283391693695343"><ele>175.5</ele><time>2026-04-06T16:38:45.001Z</time></trkpt><trkpt lat="44.95384448037602" lon="8.283221800420206"><ele>170.75</ele><time>2026-04-06T16:38:46.001Z</time></trkpt><trkpt lat="44.95386084739648" lon="8.283053081801146"><ele>166.0</ele><time>2026-04-06T16:38:47.001Z</time></trkpt><trkpt lat="44.95387613074015" lon="8.282896015930081"><ele>165.0</ele><time>2026-04-06T16:38:48.001Z</time></trkpt><trkpt lat="44.95389223416563" lon="8.282745444005231"><ele>164.0</ele><time>2026-04-06T16:38:49.001Z</time></trkpt><trkpt lat="44.95390951120371" lon="8.282602504761144"><ele>163.0</ele><time>2026-04-06T16:38:50.001Z</time></trkpt><trkpt lat="44.953928891557425" lon="8.282466528631769"><ele>162.0</ele><time>2026-04-06T16:38:51.001Z</time></trkpt><trkpt lat="44.95395089163675" lon="8.282335111531621"><ele>161.0</ele><time>2026-04-06T16:38:52.001Z</time></trkpt><trkpt lat="44.95397132836248" lon="8.282211285451837"><ele>160.4</ele><time>2026-04-06T16:38:53.001Z</time></trkpt><trkpt lat="44.9539899324744" lon="8.282090548837003"><ele>159.8</ele><time>2026-04-06T16:38:54.001Z</time></trkpt><trkpt lat="44.95399473719746" lon="8.281975973886858"><ele>159.20000000000002</ele><time>2026-04-06T16:38:55.001Z</time></trkpt><trkpt lat="44.95401767967116" lon="8.281882710126835"><ele>158.60000000000002</ele><time>2026-04-06T16:38:56.001Z</time></trkpt><trkpt lat="44.95398575326757" lon="8.281759086318333"><ele>158.0</ele><time>2026-04-06T16:38:58.001Z</time></trkpt><trkpt lat="44.95411585803222" lon="8.281695189905138"><ele>157.8</ele><time>2026-04-06T16:38:59.001Z</time></trkpt><trkpt lat="44.95422356198696" lon="8.281781265188373"><ele>157.60000000000002</ele><time>2026-04-06T16:39:02.001Z</time></trkpt><trkpt lat="44.954286523102496" lon="8.281812404490518"><ele>157.39999999999998</ele><time>2026-04-06T16:39:03.001Z</time></trkpt><trkpt lat="44.95437046881189" lon="8.281821124193005"><ele>157.2</ele><time>2026-04-06T16:39:04.001Z</time></trkpt><trkpt lat="44.95445165588003" lon="8.281853338482286"><ele>157.0</ele><time>2026-04-06T16:39:05.001Z</time></trkpt><trkpt lat="44.95454134170268" lon="8.28188813653738"><ele>157.0</ele><time>2026-04-06T16:39:06.001Z</time></trkpt><trkpt lat="44.95463568609339" lon="8.281918352774031"><ele>157.0</ele><time>2026-04-06T16:39:07.001Z</time></trkpt><trkpt lat="44.9547339289678" lon="8.281955914451045"><ele>157.0</ele><time>2026-04-06T16:39:08.001Z</time></trkpt><trkpt lat="44.95483678693703" lon="8.281996032857961"><ele>157.0</ele><time>2026-04-06T16:39:09.001Z</time></trkpt><trkpt lat="44.95493660507458" lon="8.282039681911696"><ele>157.0</ele><time>2026-04-06T16:39:10.001Z</time></trkpt><trkpt lat="44.955039773027764" lon="8.282091274102571"><ele>157.0</ele><time>2026-04-06T16:39:11.001Z</time></trkpt><trkpt lat="44.95515055086308" lon="8.282133498602876"><ele>157.0</ele><time>2026-04-06T16:39:12.001Z</time></trkpt><trkpt lat="44.955260005073285" lon="8.282180801008574"><ele>157.0</ele><time>2026-04-06T16:39:13.001Z</time></trkpt><trkpt lat="44.95536863589526" lon="8.282231900925144"><ele>157.0</ele><time>2026-04-06T16:39:14.001Z</time></trkpt><trkpt lat="44.95547825931602" lon="8.282289661972701"><ele>157.0</ele><time>2026-04-06T16:39:15.001Z</time></trkpt><trkpt lat="44.95558734216822" lon="8.282349808154706"><ele>157.0</ele><time>2026-04-06T16:39:16.001Z</time></trkpt><trkpt lat="44.95569520301955" lon="8.282403525387398"><ele>157.0</ele><time>2026-04-06T16:39:17.001Z</time></trkpt><trkpt lat="44.95579684367662" lon="8.28245580891921"><ele>157.0</ele><time>2026-04-06T16:39:18.001Z</time></trkpt><trkpt lat="44.95589009241164" lon="8.282529394919466"><ele>157.0</ele><time>2026-04-06T16:39:19.001Z</time></trkpt><trkpt lat="44.95599094641134" lon="8.282582302746738"><ele>156.6</ele><time>2026-04-06T16:39:20.002Z</time></trkpt><trkpt lat="44.95609369070328" lon="8.282626452627088"><ele>156.2</ele><time>2026-04-06T16:39:21.002Z</time></trkpt><trkpt lat="44.95620003085718" lon="8.282671064573305"><ele>155.8</ele><time>2026-04-06T16:39:22.002Z</time></trkpt><trkpt lat="44.95630812146465" lon="8.28270469120434"><ele>155.4</ele><time>2026-04-06T16:39:23.002Z</time></trkpt><trkpt lat="44.956408580575506" lon="8.28275678214305"><ele>155.0</ele><time>2026-04-06T16:39:24.002Z</time></trkpt><trkpt lat="44.95650345740621" lon="8.282811541558514"><ele>155.0</ele><time>2026-04-06T16:39:25.002Z</time></trkpt><trkpt lat="44.95660952303763" lon="8.28286737130962"><ele>155.0</ele><time>2026-04-06T16:39:26.002Z</time></trkpt><trkpt lat="44.95670245043075" lon="8.282915700458634"><ele>155.0</ele><time>2026-04-06T16:39:27.002Z</time></trkpt><trkpt lat="44.956795756550264" lon="8.28295167723136"><ele>155.0</ele><time>2026-04-06T16:39:28.002Z</time></trkpt><trkpt lat="44.95689378383019" lon="8.282989153685724"><ele>155.0</ele><time>2026-04-06T16:39:29Z</time></trkpt><trkpt lat="44.95699577104472" lon="8.283011858385485"><ele>155.4</ele><time>2026-04-06T16:39:30Z</time></trkpt><trkpt lat="44.957093513780855" lon="8.283035918441055"><ele>155.8</ele><time>2026-04-06T16:39:31Z</time></trkpt><trkpt lat="44.95719687905774" lon="8.283051527975234"><ele>156.2</ele><time>2026-04-06T16:39:32Z</time></trkpt><trkpt lat="44.95730403951862" lon="8.283084220180687"><ele>156.6</ele><time>2026-04-06T16:39:33Z</time></trkpt><trkpt lat="44.95743004140957" lon="8.283113095063676"><ele>157.0</ele><time>2026-04-06T16:39:34Z</time></trkpt><trkpt lat="44.95754996953229" lon="8.283149752082872"><ele>157.25</ele><time>2026-04-06T16:39:35Z</time></trkpt><trkpt lat="44.9576767385713" lon="8.28318245717177"><ele>157.5</ele><time>2026-04-06T16:39:36Z</time></trkpt><trkpt lat="44.95779222141982" lon="8.283215170793309"><ele>157.75</ele><time>2026-04-06T16:39:37Z</time></trkpt><trkpt lat="44.95787702247877" lon="8.283230992997469"><ele>158.0</ele><time>2026-04-06T16:39:38Z</time></trkpt><trkpt lat="44.958142127932874" lon="8.283391024955106"><ele>158.0</ele><time>2026-04-06T16:39:39Z</time></trkpt><trkpt lat="44.958247206386396" lon="8.28348060491399"><ele>158.0</ele><time>2026-04-06T16:39:40Z</time></trkpt><trkpt lat="44.958351811952525" lon="8.283543167267855"><ele>158.0</ele><time>2026-04-06T16:39:41Z</time></trkpt><trkpt lat="44.95846199297557" lon="8.283601980221956"><ele>158.0</ele><time>2026-04-06T16:39:42Z</time></trkpt><trkpt lat="44.958571040719065" lon="8.283662253625598"><ele>158.0</ele><time>2026-04-06T16:39:43Z</time></trkpt><trkpt lat="44.95868495675693" lon="8.283726182058249"><ele>158.0</ele><time>2026-04-06T16:39:44Z</time></trkpt><trkpt lat="44.95879404750347" lon="8.283788211890023"><ele>158.0</ele><time>2026-04-06T16:39:45Z</time></trkpt><trkpt lat="44.9589104985367" lon="8.283841816141816"><ele>158.0</ele><time>2026-04-06T16:39:46Z</time></trkpt><trkpt lat="44.95902391971733" lon="8.283894089882764"><ele>158.25</ele><time>2026-04-06T16:39:47Z</time></trkpt><trkpt lat="44.95914230924101" lon="8.283951038083732"><ele>158.5</ele><time>2026-04-06T16:39:48Z</time></trkpt><trkpt lat="44.95926470165566" lon="8.28400678546848"><ele>158.75</ele><time>2026-04-06T16:39:49Z</time></trkpt><trkpt lat="44.95938124902139" lon="8.284064382446234"><ele>159.0</ele><time>2026-04-06T16:39:50Z</time></trkpt><trkpt lat="44.95950278706926" lon="8.284124073842351"><ele>159.75</ele><time>2026-04-06T16:39:51Z</time></trkpt><trkpt lat="44.959620654822864" lon="8.284175617588762"><ele>160.5</ele><time>2026-04-06T16:39:52Z</time></trkpt><trkpt lat="44.95972607300673" lon="8.284226739684058"><ele>161.25</ele><time>2026-04-06T16:39:53Z</time></trkpt><trkpt lat="44.959827485392935" lon="8.284284269842722"><ele>162.0</ele><time>2026-04-06T16:39:54Z</time></trkpt><trkpt lat="44.959933381213844" lon="8.284354797173386"><ele>161.25</ele><time>2026-04-06T16:39:55Z</time></trkpt><trkpt lat="44.960037844160496" lon="8.284433379741971"><ele>160.5</ele><time>2026-04-06T16:39:56Z</time></trkpt><trkpt lat="44.96013991776498" lon="8.284518591283279"><ele>159.75</ele><time>2026-04-06T16:39:57Z</time></trkpt><trkpt lat="44.96024508596406" lon="8.284611106588192"><ele>159.0</ele><time>2026-04-06T16:39:58Z</time></trkpt><trkpt lat="44.96035424964335" lon="8.28470171935836"><ele>160.2</ele><time>2026-04-06T16:39:59Z</time></trkpt><trkpt lat="44.96046345363658" lon="8.28480161925199"><ele>161.4</ele><time>2026-04-06T16:40:00Z</time></trkpt><trkpt lat="44.96055411082148" lon="8.284878607901703"><ele>162.6</ele><time>2026-04-06T16:40:01Z</time></trkpt><trkpt lat="44.960644103453" lon="8.284949278029679"><ele>163.8</ele><time>2026-04-06T16:40:02Z</time></trkpt><trkpt lat="44.96072660839824" lon="8.284998311315984"><ele>165.0</ele><time>2026-04-06T16:40:03Z</time></trkpt><trkpt lat="44.96080630830743" lon="8.285061618686495"><ele>164.75</ele><time>2026-04-06T16:40:04Z</time></trkpt><trkpt lat="44.9608909127023" lon="8.285133241926864"><ele>164.5</ele><time>2026-04-06T16:40:05Z</time></trkpt><trkpt lat="44.96098428752043" lon="8.285229794036226"><ele>164.25</ele><time>2026-04-06T16:40:06Z</time></trkpt><trkpt lat="44.961085157616765" lon="8.2853446209404"><ele>164.0</ele><time>2026-04-06T16:40:07Z</time></trkpt><trkpt lat="44.96120514528002" lon="8.285477578158075"><ele>164.75</ele><time>2026-04-06T16:40:08Z</time></trkpt><trkpt lat="44.96134103838021" lon="8.28562512897509"><ele>165.5</ele><time>2026-04-06T16:40:09Z</time></trkpt><trkpt lat="44.96145149353697" lon="8.285741884324338"><ele>166.25</ele><time>2026-04-06T16:40:10Z</time></trkpt><trkpt lat="44.96154995702587" lon="8.28583883502453"><ele>167.0</ele><time>2026-04-06T16:40:11Z</time></trkpt><trkpt lat="44.961643944941095" lon="8.285944015461656"><ele>166.2</ele><time>2026-04-06T16:40:12Z</time></trkpt><trkpt lat="44.96173248130848" lon="8.28604672769797"><ele>165.39999999999998</ele><time>2026-04-06T16:40:13Z</time></trkpt><trkpt lat="44.96181967705626" lon="8.28615292900411"><ele>164.60000000000002</ele><time>2026-04-06T16:40:14Z</time></trkpt><trkpt lat="44.96190962050111" lon="8.286218590539244"><ele>163.8</ele><time>2026-04-06T16:40:15Z</time></trkpt><trkpt lat="44.962005046569175" lon="8.286255703851008"><ele>163.0</ele><time>2026-04-06T16:40:16Z</time></trkpt><trkpt lat="44.96212726817836" lon="8.286270697852835"><ele>163.0</ele><time>2026-04-06T16:40:17Z</time></trkpt><trkpt lat="44.96226240924763" lon="8.286257036733126"><ele>163.0</ele><time>2026-04-06T16:40:18Z</time></trkpt><trkpt lat="44.96240403286682" lon="8.28625141756602"><ele>163.0</ele><time>2026-04-06T16:40:19.001Z</time></trkpt><trkpt lat="44.96253356511845" lon="8.286253587394771"><ele>163.0</ele><time>2026-04-06T16:40:20.001Z</time></trkpt><trkpt lat="44.96264963922831" lon="8.286268316160163"><ele>162.8</ele><time>2026-04-06T16:40:21.001Z</time></trkpt><trkpt lat="44.962750299657166" lon="8.28627518737753"><ele>162.60000000000002</ele><time>2026-04-06T16:40:22.001Z</time></trkpt><trkpt lat="44.96284371259232" lon="8.286270523155862"><ele>162.39999999999998</ele><time>2026-04-06T16:40:23.001Z</time></trkpt><trkpt lat="44.96292023332556" lon="8.286237296367831"><ele>162.2</ele><time>2026-04-06T16:40:24.001Z</time></trkpt><trkpt lat="44.96299315452906" lon="8.286166823736869"><ele>162.0</ele><time>2026-04-06T16:40:25.001Z</time></trkpt><trkpt lat="44.963066299265755" lon="8.28605884664229"><ele>162.0</ele><time>2026-04-06T16:40:26.001Z</time></trkpt><trkpt lat="44.963129257592094" lon="8.285965648670485"><ele>162.0</ele><time>2026-04-06T16:40:27.001Z</time></trkpt><trkpt lat="44.96321438724333" lon="8.285890502974203"><ele>162.0</ele><time>2026-04-06T16:40:28.001Z</time></trkpt><trkpt lat="44.96332016349804" lon="8.285843499398096"><ele>162.0</ele><time>2026-04-06T16:40:29.001Z</time></trkpt><trkpt lat="44.963449843967155" lon="8.285799071036067"><ele>162.0</ele><time>2026-04-06T16:40:30.001Z</time></trkpt><trkpt lat="44.96358469998064" lon="8.285743645813993"><ele>162.5</ele><time>2026-04-06T16:40:31.001Z</time></trkpt><trkpt lat="44.96370698787366" lon="8.2856701899879"><ele>163.0</ele><time>2026-04-06T16:40:32.001Z</time></trkpt><trkpt lat="44.96382100679633" lon="8.285609427149772"><ele>163.5</ele><time>2026-04-06T16:40:33.001Z</time></trkpt><trkpt lat="44.96394161405664" lon="8.285564515662996"><ele>164.0</ele><time>2026-04-06T16:40:34.001Z</time></trkpt><trkpt lat="44.96407320149416" lon="8.28552933284969"><ele>164.0</ele><time>2026-04-06T16:40:35.001Z</time></trkpt><trkpt lat="44.96421477741844" lon="8.285501742112842"><ele>164.0</ele><time>2026-04-06T16:40:36.001Z</time></trkpt><trkpt lat="44.96436446061774" lon="8.285460620183345"><ele>164.0</ele><time>2026-04-06T16:40:37.001Z</time></trkpt><trkpt lat="44.964505424508786" lon="8.285435825454005"><ele>164.0</ele><time>2026-04-06T16:40:38.001Z</time></trkpt><trkpt lat="44.96464563641831" lon="8.285383911133328"><ele>164.0</ele><time>2026-04-06T16:40:39.001Z</time></trkpt><trkpt lat="44.96478417693628" lon="8.285364226070927"><ele>164.0</ele><time>2026-04-06T16:40:40.001Z</time></trkpt><trkpt lat="44.964927809870986" lon="8.285342520424837"><ele>164.0</ele><time>2026-04-06T16:40:41.001Z</time></trkpt><trkpt lat="44.965065827033236" lon="8.285313919402526"><ele>164.0</ele><time>2026-04-06T16:40:42.001Z</time></trkpt><trkpt lat="44.96520600019042" lon="8.285297311264936"><ele>164.75</ele><time>2026-04-06T16:40:43.001Z</time></trkpt><trkpt lat="44.96534297223719" lon="8.285269453770713"><ele>165.5</ele><time>2026-04-06T16:40:44.001Z</time></trkpt><trkpt lat="44.9654810268428" lon="8.285240543201809"><ele>166.25</ele><time>2026-04-06T16:40:45.001Z</time></trkpt><trkpt lat="44.96562585178806" lon="8.285215697567075"><ele>167.0</ele><time>2026-04-06T16:40:46.001Z</time></trkpt><trkpt lat="44.96577004955873" lon="8.285167908123299"><ele>167.25</ele><time>2026-04-06T16:40:47.001Z</time></trkpt><trkpt lat="44.96591145630276" lon="8.28514375304367"><ele>167.5</ele><time>2026-04-06T16:40:48.001Z</time></trkpt><trkpt lat="44.966054548275416" lon="8.28511905432679"><ele>167.75</ele><time>2026-04-06T16:40:49.001Z</time></trkpt><trkpt lat="44.966197722574314" lon="8.285100403733201"><ele>168.0</ele><time>2026-04-06T16:40:50.001Z</time></trkpt><trkpt lat="44.96633937233239" lon="8.285084482974874"><ele>168.0</ele><time>2026-04-06T16:40:51.001Z</time></trkpt><trkpt lat="44.96647043289917" lon="8.285054127485243"><ele>168.0</ele><time>2026-04-06T16:40:52.001Z</time></trkpt><trkpt lat="44.966598866355724" lon="8.28502719811291"><ele>168.0</ele><time>2026-04-06T16:40:53.001Z</time></trkpt><trkpt lat="44.96673062087373" lon="8.284987898779383"><ele>168.0</ele><time>2026-04-06T16:40:54.001Z</time></trkpt><trkpt lat="44.96684265328777" lon="8.284966314437709"><ele>168.75</ele><time>2026-04-06T16:40:55.001Z</time></trkpt><trkpt lat="44.966954162802175" lon="8.284932675173552"><ele>169.5</ele><time>2026-04-06T16:40:56.001Z</time></trkpt><trkpt lat="44.96706570648756" lon="8.284896369387704"><ele>170.25</ele><time>2026-04-06T16:40:57.001Z</time></trkpt><trkpt lat="44.96719808195527" lon="8.28488582459317"><ele>171.0</ele><time>2026-04-06T16:40:58.001Z</time></trkpt><trkpt lat="44.96731616055795" lon="8.284881444235406"><ele>171.0</ele><time>2026-04-06T16:40:59.001Z</time></trkpt><trkpt lat="44.96742348561719" lon="8.284885854385411"><ele>171.0</ele><time>2026-04-06T16:41:00.001Z</time></trkpt><trkpt lat="44.96751564687964" lon="8.284874211183203"><ele>171.0</ele><time>2026-04-06T16:41:01.001Z</time></trkpt><trkpt lat="44.96759467412048" lon="8.28485109154284"><ele>171.0</ele><time>2026-04-06T16:41:02.001Z</time></trkpt><trkpt lat="44.96765514702008" lon="8.284798727763036"><ele>171.0</ele><time>2026-04-06T16:41:03.001Z</time></trkpt><trkpt lat="44.96770054874641" lon="8.284712946449273"><ele>171.0</ele><time>2026-04-06T16:41:04.001Z</time></trkpt><trkpt lat="44.96772072202315" lon="8.284613500474112"><ele>171.4</ele><time>2026-04-06T16:41:05.001Z</time></trkpt><trkpt lat="44.96772560880401" lon="8.284512711501833"><ele>171.8</ele><time>2026-04-06T16:41:06.001Z</time></trkpt><trkpt lat="44.967714927643776" lon="8.284394208202919"><ele>172.20000000000002</ele><time>2026-04-06T16:41:07.001Z</time></trkpt><trkpt lat="44.96769145152954" lon="8.28425915131724"><ele>172.60000000000002</ele><time>2026-04-06T16:41:08.001Z</time></trkpt><trkpt lat="44.967672045200445" lon="8.284126676450613"><ele>173.0</ele><time>2026-04-06T16:41:09.001Z</time></trkpt><trkpt lat="44.96766712931862" lon="8.28395753198455"><ele>173.8</ele><time>2026-04-06T16:41:11.001Z</time></trkpt><trkpt lat="44.96774157310106" lon="8.283821922081058"><ele>174.60000000000002</ele><time>2026-04-06T16:41:13.001Z</time></trkpt><trkpt lat="44.96781535582892" lon="8.283786088517397"><ele>175.39999999999998</ele><time>2026-04-06T16:41:14.001Z</time></trkpt><trkpt lat="44.967904168312955" lon="8.283773780341841"><ele>176.2</ele><time>2026-04-06T16:41:15.001Z</time></trkpt><trkpt lat="44.9680206735671" lon="8.283776021596557"><ele>177.0</ele><time>2026-04-06T16:41:16.001Z</time></trkpt><trkpt lat="44.968140292270405" lon="8.283785843230449"><ele>177.0</ele><time>2026-04-06T16:41:17.001Z</time></trkpt><trkpt lat="44.9682544644675" lon="8.28380111582069"><ele>177.0</ele><time>2026-04-06T16:41:18.001Z</time></trkpt><trkpt lat="44.96833672958792" lon="8.283819814764556"><ele>177.0</ele><time>2026-04-06T16:41:19.001Z</time></trkpt><trkpt lat="44.9684405022665" lon="8.28374172792992"><ele>177.0</ele><time>2026-04-06T16:41:20.001Z</time></trkpt><trkpt lat="44.96854491904084" lon="8.28366817228711"><ele>177.0</ele><time>2026-04-06T16:41:21.001Z</time></trkpt><trkpt lat="44.968660169890654" lon="8.283594090598907"><ele>176.5</ele><time>2026-04-06T16:41:22.001Z</time></trkpt><trkpt lat="44.96875899154712" lon="8.28353534084842"><ele>176.0</ele><time>2026-04-06T16:41:23.001Z</time></trkpt><trkpt lat="44.968871135492755" lon="8.283490305634764"><ele>175.5</ele><time>2026-04-06T16:41:24.001Z</time></trkpt><trkpt lat="44.968983905129946" lon="8.283450643489891"><ele>175.0</ele><time>2026-04-06T16:41:25.001Z</time></trkpt><trkpt lat="44.969103312821446" lon="8.283428751586118"><ele>175.25</ele><time>2026-04-06T16:41:26.001Z</time></trkpt><trkpt lat="44.96922750895537" lon="8.283414607015304"><ele>175.5</ele><time>2026-04-06T16:41:27.001Z</time></trkpt><trkpt lat="44.96935744833074" lon="8.283415756471104"><ele>175.75</ele><time>2026-04-06T16:41:28.001Z</time></trkpt><trkpt lat="44.96948512322372" lon="8.283411570709504"><ele>176.0</ele><time>2026-04-06T16:41:29.001Z</time></trkpt><trkpt lat="44.969617253355885" lon="8.283401974641503"><ele>176.0</ele><time>2026-04-06T16:41:30.001Z</time></trkpt><trkpt lat="44.9697508990047" lon="8.28339314533276"><ele>176.0</ele><time>2026-04-06T16:41:31.001Z</time></trkpt><trkpt lat="44.96987996405614" lon="8.283385152681378"><ele>176.0</ele><time>2026-04-06T16:41:32.001Z</time></trkpt><trkpt lat="44.97000491166825" lon="8.283378220971537"><ele>176.0</ele><time>2026-04-06T16:41:33.001Z</time></trkpt><trkpt lat="44.970133986907804" lon="8.28337604554817"><ele>176.75</ele><time>2026-04-06T16:41:34.001Z</time></trkpt><trkpt lat="44.97025671842211" lon="8.283371355799995"><ele>177.5</ele><time>2026-04-06T16:41:35Z</time></trkpt><trkpt lat="44.970380459346366" lon="8.283367414801258"><ele>178.25</ele><time>2026-04-06T16:41:36Z</time></trkpt><trkpt lat="44.97051293794067" lon="8.28337701619537"><ele>179.0</ele><time>2026-04-06T16:41:37Z</time></trkpt><trkpt lat="44.970646043342114" lon="8.283385320149684"><ele>179.0</ele><time>2026-04-06T16:41:38Z</time></trkpt><trkpt lat="44.97078254606226" lon="8.28340571206744"><ele>179.0</ele><time>2026-04-06T16:41:39Z</time></trkpt><trkpt lat="44.9709194619152" lon="8.2834145562346"><ele>179.0</ele><time>2026-04-06T16:41:40Z</time></trkpt><trkpt lat="44.97105433223118" lon="8.283423972507284"><ele>179.0</ele><time>2026-04-06T16:41:41Z</time></trkpt><trkpt lat="44.97118691488858" lon="8.283432197840288"><ele>179.5</ele><time>2026-04-06T16:41:42Z</time></trkpt><trkpt lat="44.971318948020894" lon="8.283440064821336"><ele>180.0</ele><time>2026-04-06T16:41:43Z</time></trkpt><trkpt lat="44.971446583081374" lon="8.283444464403113"><ele>180.5</ele><time>2026-04-06T16:41:44Z</time></trkpt><trkpt lat="44.97157547920806" lon="8.283455232887903"><ele>181.0</ele><time>2026-04-06T16:41:45Z</time></trkpt><trkpt lat="44.971706270314435" lon="8.283465900098534"><ele>181.75</ele><time>2026-04-06T16:41:46Z</time></trkpt><trkpt lat="44.97183756540293" lon="8.283486550636876"><ele>182.5</ele><time>2026-04-06T16:41:47Z</time></trkpt><trkpt lat="44.97196563981905" lon="8.283511028805536"><ele>183.25</ele><time>2026-04-06T16:41:48Z</time></trkpt><trkpt lat="44.97209310399264" lon="8.283536951848635"><ele>184.0</ele><time>2026-04-06T16:41:49Z</time></trkpt><trkpt lat="44.97221924467842" lon="8.28356603809724"><ele>184.0</ele><time>2026-04-06T16:41:50Z</time></trkpt><trkpt lat="44.97235055361034" lon="8.283596014420224"><ele>184.0</ele><time>2026-04-06T16:41:51Z</time></trkpt><trkpt lat="44.972486922643895" lon="8.283630114174509"><ele>184.0</ele><time>2026-04-06T16:41:52Z</time></trkpt><trkpt lat="44.97262647584377" lon="8.283663356740876"><ele>184.0</ele><time>2026-04-06T16:41:53Z</time></trkpt><trkpt lat="44.972764965396756" lon="8.283699541416766"><ele>185.5</ele><time>2026-04-06T16:41:54Z</time></trkpt><trkpt lat="44.97289868051691" lon="8.283731610461635"><ele>187.0</ele><time>2026-04-06T16:41:55Z</time></trkpt><trkpt lat="44.97303505820035" lon="8.283765874609264"><ele>188.5</ele><time>2026-04-06T16:41:56Z</time></trkpt><trkpt lat="44.97316058154582" lon="8.283793203384555"><ele>190.0</ele><time>2026-04-06T16:41:57Z</time></trkpt><trkpt lat="44.97328426791395" lon="8.283831565834245"><ele>189.25</ele><time>2026-04-06T16:41:58Z</time></trkpt><trkpt lat="44.97340953420742" lon="8.283868475808651"><ele>188.5</ele><time>2026-04-06T16:41:59Z</time></trkpt><trkpt lat="44.9735311387274" lon="8.28389707439551"><ele>187.75</ele><time>2026-04-06T16:42:00Z</time></trkpt><trkpt lat="44.97365452790303" lon="8.283930977900477"><ele>187.0</ele><time>2026-04-06T16:42:01Z</time></trkpt><trkpt lat="44.97377836227279" lon="8.283960635514529"><ele>187.0</ele><time>2026-04-06T16:42:02Z</time></trkpt><trkpt lat="44.973899024085405" lon="8.283995446030183"><ele>187.0</ele><time>2026-04-06T16:42:03Z</time></trkpt><trkpt lat="44.97402693546631" lon="8.284021478065986"><ele>187.0</ele><time>2026-04-06T16:42:04Z</time></trkpt><trkpt lat="44.974147532451" lon="8.28405159603394"><ele>187.0</ele><time>2026-04-06T16:42:05Z</time></trkpt><trkpt lat="44.9742728460562" lon="8.284079078358815"><ele>188.25</ele><time>2026-04-06T16:42:06Z</time></trkpt><trkpt lat="44.97440174586733" lon="8.28410368591651"><ele>189.5</ele><time>2026-04-06T16:42:07Z</time></trkpt><trkpt lat="44.97452967540977" lon="8.284128102152764"><ele>190.75</ele><time>2026-04-06T16:42:08Z</time></trkpt><trkpt lat="44.97465626780534" lon="8.284157550674015"><ele>192.0</ele><time>2026-04-06T16:42:09Z</time></trkpt><trkpt lat="44.974783034612436" lon="8.284183725138382"><ele>192.0</ele><time>2026-04-06T16:42:10Z</time></trkpt><trkpt lat="44.9749071018093" lon="8.284206792619678"><ele>192.0</ele><time>2026-04-06T16:42:11Z</time></trkpt><trkpt lat="44.97502983775911" lon="8.284228104876432"><ele>192.0</ele><time>2026-04-06T16:42:12Z</time></trkpt><trkpt lat="44.975161289353956" lon="8.284261951548297"><ele>192.0</ele><time>2026-04-06T16:42:13Z</time></trkpt><trkpt lat="44.97529318656664" lon="8.284293478174057"><ele>193.0</ele><time>2026-04-06T16:42:14Z</time></trkpt><trkpt lat="44.97542694063898" lon="8.284327783255463"><ele>194.0</ele><time>2026-04-06T16:42:15Z</time></trkpt><trkpt lat="44.97555584688132" lon="8.28435357558232"><ele>195.0</ele><time>2026-04-06T16:42:16Z</time></trkpt><trkpt lat="44.97567348829383" lon="8.284381516161018"><ele>196.0</ele><time>2026-04-06T16:42:17Z</time></trkpt><trkpt lat="44.975784272991945" lon="8.284403018341726"><ele>197.20000000000002</ele><time>2026-04-06T16:42:18Z</time></trkpt><trkpt lat="44.97588779752682" lon="8.284421540691646"><ele>198.4</ele><time>2026-04-06T16:42:19Z</time></trkpt><trkpt lat="44.975983349866375" lon="8.284446099660345"><ele>199.6</ele><time>2026-04-06T16:42:20Z</time></trkpt><trkpt lat="44.97608141607766" lon="8.284487553259085"><ele>200.8</ele><time>2026-04-06T16:42:21Z</time></trkpt><trkpt lat="44.97619274299591" lon="8.284541802388407"><ele>202.0</ele><time>2026-04-06T16:42:22Z</time></trkpt><trkpt lat="44.97629148326286" lon="8.284608375837037"><ele>202.0</ele><time>2026-04-06T16:42:23Z</time></trkpt><trkpt lat="44.97638419349452" lon="8.284688531800665"><ele>202.0</ele><time>2026-04-06T16:42:24Z</time></trkpt><trkpt lat="44.9764767662393" lon="8.284782026667116"><ele>202.0</ele><time>2026-04-06T16:42:25Z</time></trkpt><trkpt lat="44.97655620796634" lon="8.284854032491658"><ele>202.0</ele><time>2026-04-06T16:42:26.001Z</time></trkpt><trkpt lat="44.97664381360161" lon="8.284921212637927"><ele>202.0</ele><time>2026-04-06T16:42:27.001Z</time></trkpt><trkpt lat="44.97674023078118" lon="8.284982199653163"><ele>202.6</ele><time>2026-04-06T16:42:28.001Z</time></trkpt><trkpt lat="44.9768394669596" lon="8.285029072979235"><ele>203.2</ele><time>2026-04-06T16:42:29.001Z</time></trkpt><trkpt lat="44.9769501668084" lon="8.28506804258723"><ele>203.8</ele><time>2026-04-06T16:42:30.001Z</time></trkpt><trkpt lat="44.97705114790656" lon="8.285102171064143"><ele>204.4</ele><time>2026-04-06T16:42:31.001Z</time></trkpt><trkpt lat="44.97712586215166" lon="8.285124314320358"><ele>205.0</ele><time>2026-04-06T16:42:32.001Z</time></trkpt><trkpt lat="44.97719764441896" lon="8.285127113714774"><ele>204.99999999999997</ele><time>2026-04-06T16:42:33.001Z</time></trkpt><trkpt lat="44.97726350126688" lon="8.285122527501201"><ele>205.0</ele><time>2026-04-06T16:42:34.001Z</time></trkpt><trkpt lat="44.97731604922842" lon="8.285072759499652"><ele>205.0</ele><time>2026-04-06T16:42:36.001Z</time></trkpt><trkpt lat="44.97730835038871" lon="8.284974593213182"><ele>205.0</ele><time>2026-04-06T16:42:39.001Z</time></trkpt><trkpt lat="44.97725297606772" lon="8.284810038131573"><ele>204.99999999999997</ele><time>2026-04-06T16:42:41.001Z</time></trkpt><trkpt lat="44.977215714151605" lon="8.284709513803751"><ele>205.0</ele><time>2026-04-06T16:42:42.001Z</time></trkpt><trkpt lat="44.977184043517475" lon="8.284596953946105"><ele>206.4</ele><time>2026-04-06T16:42:43.001Z</time></trkpt><trkpt lat="44.9771665724204" lon="8.28447295732044"><ele>207.8</ele><time>2026-04-06T16:42:44.001Z</time></trkpt><trkpt lat="44.97717460472029" lon="8.284332185986495"><ele>209.2</ele><time>2026-04-06T16:42:45.001Z</time></trkpt><trkpt lat="44.977194955399895" lon="8.284184795975941"><ele>210.6</ele><time>2026-04-06T16:42:46.001Z</time></trkpt><trkpt lat="44.97721569803916" lon="8.284028407028117"><ele>212.0</ele><time>2026-04-06T16:42:47.001Z</time></trkpt><trkpt lat="44.977232900544855" lon="8.283853894230896"><ele>213.5</ele><time>2026-04-06T16:42:48.001Z</time></trkpt><trkpt lat="44.97725086596193" lon="8.283672083324731"><ele>215.0</ele><time>2026-04-06T16:42:49.001Z</time></trkpt><trkpt lat="44.97727947447003" lon="8.283494281738465"><ele>216.5</ele><time>2026-04-06T16:42:50.001Z</time></trkpt><trkpt lat="44.977302429431866" lon="8.28333454675791"><ele>218.0</ele><time>2026-04-06T16:42:51.001Z</time></trkpt><trkpt lat="44.97731204631609" lon="8.283186791270454"><ele>219.0</ele><time>2026-04-06T16:42:52.001Z</time></trkpt><trkpt lat="44.97730253863158" lon="8.283039285604346"><ele>220.0</ele><time>2026-04-06T16:42:53.001Z</time></trkpt><trkpt lat="44.97727923548009" lon="8.282894876150749"><ele>221.0</ele><time>2026-04-06T16:42:54.001Z</time></trkpt><trkpt lat="44.97724890434135" lon="8.282758135386437"><ele>222.0</ele><time>2026-04-06T16:42:55.001Z</time></trkpt><trkpt lat="44.97721403046917" lon="8.282617487954889"><ele>223.0</ele><time>2026-04-06T16:42:56.001Z</time></trkpt><trkpt lat="44.97718381125189" lon="8.282487357783607"><ele>222.99999999999997</ele><time>2026-04-06T16:42:57.001Z</time></trkpt><trkpt lat="44.977150163214944" lon="8.282377819547174"><ele>223.0</ele><time>2026-04-06T16:42:58.001Z</time></trkpt><trkpt lat="44.97709145827436" lon="8.282301594197818"><ele>223.0</ele><time>2026-04-06T16:42:59.001Z</time></trkpt><trkpt lat="44.97702382277572" lon="8.282254592877562"><ele>223.0</ele><time>2026-04-06T16:43:00.001Z</time></trkpt><trkpt lat="44.976944324960215" lon="8.28222689027537"><ele>222.99999999999997</ele><time>2026-04-06T16:43:01.001Z</time></trkpt><trkpt lat="44.97683661028169" lon="8.282208030021188"><ele>223.0</ele><time>2026-04-06T16:43:03.001Z</time></trkpt><trkpt lat="44.97677424621745" lon="8.282180360124483"><ele>222.83333333333331</ele><time>2026-04-06T16:43:05.001Z</time></trkpt><trkpt lat="44.97669838572273" lon="8.2821122380083"><ele>222.66666666666666</ele><time>2026-04-06T16:43:08.001Z</time></trkpt><trkpt lat="44.97662440817072" lon="8.282105306972264"><ele>222.5</ele><time>2026-04-06T16:43:09.001Z</time></trkpt><trkpt lat="44.97654154619139" lon="8.282110958026546"><ele>222.33333333333331</ele><time>2026-04-06T16:43:10.001Z</time></trkpt><trkpt lat="44.97646371967711" lon="8.282117973264226"><ele>222.16666666666666</ele><time>2026-04-06T16:43:11.001Z</time></trkpt><trkpt lat="44.976389749329556" lon="8.282113174180562"><ele>222.0</ele><time>2026-04-06T16:43:12.001Z</time></trkpt><trkpt lat="44.976324271331436" lon="8.282081746628762"><ele>222.0</ele><time>2026-04-06T16:43:13.001Z</time></trkpt><trkpt lat="44.97625528404732" lon="8.281939535195828"><ele>222.0</ele><time>2026-04-06T16:43:15.001Z</time></trkpt><trkpt lat="44.97626019887252" lon="8.281833099223821"><ele>222.0</ele><time>2026-04-06T16:43:16.001Z</time></trkpt><trkpt lat="44.97627920814146" lon="8.281709081465221"><ele>222.0</ele><time>2026-04-06T16:43:17.001Z</time></trkpt><trkpt lat="44.976301462385045" lon="8.281577470279633"><ele>222.0</ele><time>2026-04-06T16:43:18.001Z</time></trkpt><trkpt lat="44.97632450181347" lon="8.281433120411421"><ele>221.5</ele><time>2026-04-06T16:43:19.001Z</time></trkpt><trkpt lat="44.97634306364489" lon="8.281279447508428"><ele>221.0</ele><time>2026-04-06T16:43:20.001Z</time></trkpt><trkpt lat="44.9763609081856" lon="8.28111134580692"><ele>220.5</ele><time>2026-04-06T16:43:21.001Z</time></trkpt><trkpt lat="44.97638474122799" lon="8.280938153481257"><ele>220.0</ele><time>2026-04-06T16:43:22.001Z</time></trkpt><trkpt lat="44.976409075656136" lon="8.280761146756264"><ele>221.0</ele><time>2026-04-06T16:43:23.001Z</time></trkpt><trkpt lat="44.976433468164906" lon="8.28057413646612"><ele>222.0</ele><time>2026-04-06T16:43:24.001Z</time></trkpt><trkpt lat="44.97645907443467" lon="8.280381374165948"><ele>223.0</ele><time>2026-04-06T16:43:25.001Z</time></trkpt><trkpt lat="44.976488166745035" lon="8.280183411523037"><ele>224.0</ele><time>2026-04-06T16:43:26.001Z</time></trkpt><trkpt lat="44.976514493275076" lon="8.279989920090769"><ele>224.0</ele><time>2026-04-06T16:43:27.001Z</time></trkpt><trkpt lat="44.9765444748087" lon="8.27979256931659"><ele>224.0</ele><time>2026-04-06T16:43:28.001Z</time></trkpt><trkpt lat="44.976570910315566" lon="8.279595878053122"><ele>224.0</ele><time>2026-04-06T16:43:29.001Z</time></trkpt><trkpt lat="44.976595231173505" lon="8.279401887569875"><ele>224.0</ele><time>2026-04-06T16:43:30.001Z</time></trkpt><trkpt lat="44.976615250037156" lon="8.279220934759557"><ele>224.75</ele><time>2026-04-06T16:43:31.001Z</time></trkpt><trkpt lat="44.976629414840716" lon="8.27905729744374"><ele>225.5</ele><time>2026-04-06T16:43:32.001Z</time></trkpt><trkpt lat="44.97663009743879" lon="8.278907478712723"><ele>226.25</ele><time>2026-04-06T16:43:33.001Z</time></trkpt><trkpt lat="44.976622682608784" lon="8.278747303627856"><ele>227.0</ele><time>2026-04-06T16:43:34.001Z</time></trkpt><trkpt lat="44.97661418370629" lon="8.278581348283826"><ele>227.25</ele><time>2026-04-06T16:43:35.001Z</time></trkpt><trkpt lat="44.97660831131025" lon="8.278410178430207"><ele>227.5</ele><time>2026-04-06T16:43:36.001Z</time></trkpt><trkpt lat="44.97660329256931" lon="8.278236902106046"><ele>227.75</ele><time>2026-04-06T16:43:37.001Z</time></trkpt><trkpt lat="44.97659817168529" lon="8.278061924381314"><ele>228.0</ele><time>2026-04-06T16:43:38.001Z</time></trkpt><trkpt lat="44.9765935542971" lon="8.277886536343818"><ele>227.5</ele><time>2026-04-06T16:43:39.001Z</time></trkpt><trkpt lat="44.9765933366843" lon="8.277721494053054"><ele>227.0</ele><time>2026-04-06T16:43:40.001Z</time></trkpt><trkpt lat="44.97659931404469" lon="8.277549521269902"><ele>226.5</ele><time>2026-04-06T16:43:41Z</time></trkpt><trkpt lat="44.976616671426456" lon="8.277377824706068"><ele>226.0</ele><time>2026-04-06T16:43:42Z</time></trkpt><trkpt lat="44.9766502940684" lon="8.277203252988397"><ele>226.25</ele><time>2026-04-06T16:43:43Z</time></trkpt><trkpt lat="44.976691479052434" lon="8.277032009468584"><ele>226.5</ele><time>2026-04-06T16:43:44Z</time></trkpt><trkpt lat="44.976736214580285" lon="8.276859679711032"><ele>226.75</ele><time>2026-04-06T16:43:45Z</time></trkpt><trkpt lat="44.976782490605" lon="8.276697667840413"><ele>227.0</ele><time>2026-04-06T16:43:46Z</time></trkpt><trkpt lat="44.97682248452051" lon="8.276535183431962"><ele>224.25</ele><time>2026-04-06T16:43:47Z</time></trkpt><trkpt lat="44.9768630935261" lon="8.27637060250594"><ele>221.5</ele><time>2026-04-06T16:43:48Z</time></trkpt><trkpt lat="44.976896716060736" lon="8.276214913472431"><ele>218.75</ele><time>2026-04-06T16:43:49Z</time></trkpt><trkpt lat="44.97691566145508" lon="8.27606777190585"><ele>216.0</ele><time>2026-04-06T16:43:50Z</time></trkpt><trkpt lat="44.976910659337356" lon="8.275916315929075"><ele>216.0</ele><time>2026-04-06T16:43:51Z</time></trkpt><trkpt lat="44.9768883096831" lon="8.275767028321441"><ele>216.00000000000003</ele><time>2026-04-06T16:43:52Z</time></trkpt><trkpt lat="44.976857170301265" lon="8.275618293329348"><ele>216.00000000000003</ele><time>2026-04-06T16:43:53Z</time></trkpt><trkpt lat="44.97683403528221" lon="8.275474451163062"><ele>216.0</ele><time>2026-04-06T16:43:54Z</time></trkpt><trkpt lat="44.976819678930205" lon="8.27534470912638"><ele>216.0</ele><time>2026-04-06T16:43:55Z</time></trkpt><trkpt lat="44.97680287775697" lon="8.275234749487812"><ele>216.0</ele><time>2026-04-06T16:43:56Z</time></trkpt><trkpt lat="44.9767761857074" lon="8.275134424834192"><ele>216.0</ele><time>2026-04-06T16:43:58Z</time></trkpt><trkpt lat="44.97676786133283" lon="8.275226829194382"><ele>216.0</ele><time>2026-04-06T16:44:02Z</time></trkpt><trkpt lat="44.97680598316295" lon="8.27536182300822"><ele>216.0</ele><time>2026-04-06T16:44:07Z</time></trkpt><trkpt lat="44.976822899661634" lon="8.275467837770334"><ele>216.0</ele><time>2026-04-06T16:44:08Z</time></trkpt><trkpt lat="44.97684095673229" lon="8.275591239740153"><ele>216.0</ele><time>2026-04-06T16:44:09Z</time></trkpt><trkpt lat="44.976856850529295" lon="8.275715538334936"><ele>216.0</ele><time>2026-04-06T16:44:10Z</time></trkpt><trkpt lat="44.976873168117365" lon="8.275824335566986"><ele>216.00000000000003</ele><time>2026-04-06T16:44:11Z</time></trkpt><trkpt lat="44.97688270895524" lon="8.275927487448854"><ele>216.00000000000003</ele><time>2026-04-06T16:44:12Z</time></trkpt><trkpt lat="44.97689442455666" lon="8.276094324152083"><ele>216.0</ele><time>2026-04-06T16:44:14Z</time></trkpt><trkpt lat="44.97691835254786" lon="8.276227403594662"><ele>216.0</ele><time>2026-04-06T16:44:16Z</time></trkpt><trkpt lat="44.9770010242683" lon="8.276241227132486"><ele>216.0</ele><time>2026-04-06T16:44:18Z</time></trkpt><trkpt lat="44.97708218919444" lon="8.276160295430024"><ele>216.00000000000003</ele><time>2026-04-06T16:44:20Z</time></trkpt><trkpt lat="44.97720115765771" lon="8.27606724754758"><ele>216.00000000000003</ele><time>2026-04-06T16:44:22Z</time></trkpt><trkpt lat="44.977279081816505" lon="8.276013233418903"><ele>216.0</ele><time>2026-04-06T16:44:23Z</time></trkpt><trkpt lat="44.977360711902946" lon="8.275952205238848"><ele>216.0</ele><time>2026-04-06T16:44:24Z</time></trkpt><trkpt lat="44.97742994390086" lon="8.27589836081491"><ele>216.0</ele><time>2026-04-06T16:44:25Z</time></trkpt><trkpt lat="44.97749640722193" lon="8.275847501299921"><ele>216.0</ele><time>2026-04-06T16:44:26Z</time></trkpt><trkpt lat="44.97757345903772" lon="8.275815358599669"><ele>216.0</ele><time>2026-04-06T16:44:27Z</time></trkpt><trkpt lat="44.97764842535194" lon="8.275816685852192"><ele>216.0</ele><time>2026-04-06T16:44:28Z</time></trkpt><trkpt lat="44.97771320834767" lon="8.275847516508671"><ele>216.0</ele><time>2026-04-06T16:44:29Z</time></trkpt><trkpt lat="44.977833224233976" lon="8.27595986112122"><ele>216.0</ele><time>2026-04-06T16:44:31Z</time></trkpt><trkpt lat="44.977902523990984" lon="8.276013081110403"><ele>214.33333333333334</ele><time>2026-04-06T16:44:32Z</time></trkpt><trkpt lat="44.97797678346651" lon="8.276045217070532"><ele>212.66666666666669</ele><time>2026-04-06T16:44:33Z</time></trkpt><trkpt lat="44.978057329466516" lon="8.276084738768768"><ele>211.0</ele><time>2026-04-06T16:44:34Z</time></trkpt><trkpt lat="44.978131923447755" lon="8.276114003287113"><ele>209.33333333333334</ele><time>2026-04-06T16:44:35Z</time></trkpt><trkpt lat="44.97820246339227" lon="8.276151329671578"><ele>207.66666666666669</ele><time>2026-04-06T16:44:36Z</time></trkpt><trkpt lat="44.97827065352782" lon="8.27618446153555"><ele>206.0</ele><time>2026-04-06T16:44:37.001Z</time></trkpt><trkpt lat="44.978336478265255" lon="8.276192161270364"><ele>204.8</ele><time>2026-04-06T16:44:38.001Z</time></trkpt><trkpt lat="44.97845471520985" lon="8.276148888130837"><ele>203.60000000000002</ele><time>2026-04-06T16:44:40.001Z</time></trkpt><trkpt lat="44.978568306061725" lon="8.276088800481721"><ele>202.4</ele><time>2026-04-06T16:44:42.001Z</time></trkpt><trkpt lat="44.97866420646448" lon="8.276027342486874"><ele>201.2</ele><time>2026-04-06T16:44:44.001Z</time></trkpt><trkpt lat="44.978732694123444" lon="8.275985010271652"><ele>200.0</ele><time>2026-04-06T16:44:46.001Z</time></trkpt><trkpt lat="44.97883946197629" lon="8.275948032237777"><ele>200.00000000000003</ele><time>2026-04-06T16:44:48.001Z</time></trkpt><trkpt lat="44.97891349767607" lon="8.27594846993693"><ele>200.0</ele><time>2026-04-06T16:44:49.001Z</time></trkpt><trkpt lat="44.978996768895726" lon="8.275960530131169"><ele>200.0</ele><time>2026-04-06T16:44:50.001Z</time></trkpt><trkpt lat="44.97907160428454" lon="8.275970490537345"><ele>200.0</ele><time>2026-04-06T16:44:51.001Z</time></trkpt><trkpt lat="44.97915175747726" lon="8.275973195334167"><ele>200.00000000000003</ele><time>2026-04-06T16:44:52.001Z</time></trkpt><trkpt lat="44.97923024552042" lon="8.275959170138517"><ele>200.0</ele><time>2026-04-06T16:44:53.001Z</time></trkpt><trkpt lat="44.97930631782774" lon="8.275951428510504"><ele>199.57142857142858</ele><time>2026-04-06T16:44:54.001Z</time></trkpt><trkpt lat="44.97938673340354" lon="8.275934207356313"><ele>199.14285714285714</ele><time>2026-04-06T16:44:55.001Z</time></trkpt><trkpt lat="44.97945630840253" lon="8.27591827827927"><ele>198.71428571428572</ele><time>2026-04-06T16:44:56.001Z</time></trkpt><trkpt lat="44.97952763104492" lon="8.275902956828107"><ele>198.28571428571428</ele><time>2026-04-06T16:44:57.001Z</time></trkpt><trkpt lat="44.979598672159526" lon="8.275887278826822"><ele>197.85714285714286</ele><time>2026-04-06T16:44:58.001Z</time></trkpt><trkpt lat="44.97966795588989" lon="8.275879725940834"><ele>197.42857142857144</ele><time>2026-04-06T16:44:59.001Z</time></trkpt><trkpt lat="44.97973648796852" lon="8.275877927811564"><ele>197.0</ele><time>2026-04-06T16:45:00.001Z</time></trkpt><trkpt lat="44.97980482958289" lon="8.27586469411554"><ele>197.0</ele><time>2026-04-06T16:45:01.001Z</time></trkpt><trkpt lat="44.97988644905941" lon="8.275844360550344"><ele>197.0</ele><time>2026-04-06T16:45:02.001Z</time></trkpt><trkpt lat="44.97995084562149" lon="8.275814374846048"><ele>197.0</ele><time>2026-04-06T16:45:03.001Z</time></trkpt><trkpt lat="44.98001764590746" lon="8.275769278368816"><ele>197.0</ele><time>2026-04-06T16:45:04.001Z</time></trkpt><trkpt lat="44.980076116463565" lon="8.27571375363155"><ele>197.0</ele><time>2026-04-06T16:45:05.001Z</time></trkpt><trkpt lat="44.980130702368825" lon="8.275647299499173"><ele>197.0</ele><time>2026-04-06T16:45:06.001Z</time></trkpt><trkpt lat="44.98019217407662" lon="8.275572728764278"><ele>197.0</ele><time>2026-04-06T16:45:07.001Z</time></trkpt><trkpt lat="44.98025392118672" lon="8.275510175461378"><ele>194.39999999999998</ele><time>2026-04-06T16:45:08.001Z</time></trkpt><trkpt lat="44.98029835948962" lon="8.275446641785697"><ele>191.79999999999998</ele><time>2026-04-06T16:45:09.001Z</time></trkpt><trkpt lat="44.98038251109305" lon="8.275328875415218"><ele>189.2</ele><time>2026-04-06T16:45:11.001Z</time></trkpt><trkpt lat="44.98045290796693" lon="8.275207800390685"><ele>186.6</ele><time>2026-04-06T16:45:13.001Z</time></trkpt><trkpt lat="44.98052233323016" lon="8.275087419018467"><ele>184.0</ele><time>2026-04-06T16:45:15.001Z</time></trkpt><trkpt lat="44.98058628086967" lon="8.274991998996535"><ele>184.0</ele><time>2026-04-06T16:45:17.001Z</time></trkpt><trkpt lat="44.980658392887335" lon="8.27489663282112"><ele>184.0</ele><time>2026-04-06T16:45:19.001Z</time></trkpt><trkpt lat="44.98072670135891" lon="8.274787492238676"><ele>184.0</ele><time>2026-04-06T16:45:21.001Z</time></trkpt><trkpt lat="44.98079198618986" lon="8.27469710059798"><ele>184.0</ele><time>2026-04-06T16:45:23.001Z</time></trkpt><trkpt lat="44.98085353420911" lon="8.274613987097114"><ele>184.0</ele><time>2026-04-06T16:45:25.001Z</time></trkpt><trkpt lat="44.98086492892914" lon="8.274489551729777"><ele>183.0</ele><time>2026-04-06T16:45:27.001Z</time></trkpt><trkpt lat="44.98085118666398" lon="8.274324719909966"><ele>182.0</ele><time>2026-04-06T16:45:29.001Z</time></trkpt><trkpt lat="44.98082656902791" lon="8.27418107419145"><ele>181.0</ele><time>2026-04-06T16:45:31.001Z</time></trkpt><trkpt lat="44.98076746434408" lon="8.274054166134846"><ele>180.0</ele><time>2026-04-06T16:45:33.001Z</time></trkpt><trkpt lat="44.98071067605398" lon="8.27393451493567"><ele>179.0</ele><time>2026-04-06T16:45:35.001Z</time></trkpt><trkpt lat="44.980661014019255" lon="8.273817539468379"><ele>178.83333333333331</ele><time>2026-04-06T16:45:37.001Z</time></trkpt><trkpt lat="44.980627012642664" lon="8.27373890702066"><ele>178.66666666666666</ele><time>2026-04-06T16:45:39.001Z</time></trkpt><trkpt lat="44.980634999199076" lon="8.273857603132024"><ele>178.5</ele><time>2026-04-06T16:45:50Z</time></trkpt><trkpt lat="44.980706435506995" lon="8.273957701487262"><ele>178.33333333333334</ele><time>2026-04-06T16:45:51Z</time></trkpt><trkpt lat="44.98074679493726" lon="8.274057671985233"><ele>178.16666666666669</ele><time>2026-04-06T16:45:52Z</time></trkpt><trkpt lat="44.98079085057054" lon="8.274168225710435"><ele>178.0</ele><time>2026-04-06T16:45:53Z</time></trkpt><trkpt lat="44.98082754305418" lon="8.274271209934584"><ele>178.0</ele><time>2026-04-06T16:45:54Z</time></trkpt><trkpt lat="44.98084300318158" lon="8.274367352747639"><ele>178.0</ele><time>2026-04-06T16:45:55Z</time></trkpt><trkpt lat="44.98084990859518" lon="8.274473579070571"><ele>178.0</ele><time>2026-04-06T16:45:56Z</time></trkpt><trkpt lat="44.980840227440005" lon="8.27460786469857"><ele>178.0</ele><time>2026-04-06T16:45:57Z</time></trkpt><trkpt lat="44.9808300322925" lon="8.274697549758514"><ele>178.0</ele><time>2026-04-06T16:45:58Z</time></trkpt><trkpt lat="44.98087149972419" lon="8.27481570339426"><ele>178.0</ele><time>2026-04-06T16:46:00Z</time></trkpt><trkpt lat="44.98092858885817" lon="8.2749030959941"><ele>178.33333333333334</ele><time>2026-04-06T16:46:01Z</time></trkpt><trkpt lat="44.98097281785924" lon="8.274980790662413"><ele>178.66666666666669</ele><time>2026-04-06T16:46:02Z</time></trkpt><trkpt lat="44.98101044137049" lon="8.275065580468354"><ele>179.0</ele><time>2026-04-06T16:46:03Z</time></trkpt><trkpt lat="44.98105397529872" lon="8.275152745440646"><ele>179.33333333333334</ele><time>2026-04-06T16:46:04Z</time></trkpt><trkpt lat="44.98109108526395" lon="8.27523872515019"><ele>179.66666666666666</ele><time>2026-04-06T16:46:05Z</time></trkpt><trkpt lat="44.98113441188838" lon="8.275355079428346"><ele>180.0</ele><time>2026-04-06T16:46:07Z</time></trkpt><trkpt lat="44.98108505050718" lon="8.275264636162008"><ele>180.0</ele><time>2026-04-06T16:46:35Z</time></trkpt><trkpt lat="44.98102413810379" lon="8.275109016992308"><ele>180.0</ele><time>2026-04-06T16:46:37.001Z</time></trkpt><trkpt lat="44.98097900112321" lon="8.275015757907012"><ele>180.0</ele><time>2026-04-06T16:46:38.001Z</time></trkpt><trkpt lat="44.98093244209772" lon="8.274937707295289"><ele>180.0</ele><time>2026-04-06T16:46:39.001Z</time></trkpt><trkpt lat="44.980881791360694" lon="8.274822507546805"><ele>180.0</ele><time>2026-04-06T16:46:41.001Z</time></trkpt><trkpt lat="44.98084476194578" lon="8.274743018877732"><ele>180.0</ele><time>2026-04-06T16:46:43.001Z</time></trkpt><trkpt lat="44.98077261806537" lon="8.274728315147778"><ele>180.8</ele><time>2026-04-06T16:46:51.001Z</time></trkpt><trkpt lat="44.98068944671922" lon="8.274835555060935"><ele>181.6</ele><time>2026-04-06T16:46:53.001Z</time></trkpt><trkpt lat="44.98062461260035" lon="8.27493048303432"><ele>182.39999999999998</ele><time>2026-04-06T16:46:54.001Z</time></trkpt><trkpt lat="44.98054515234335" lon="8.27504788792638"><ele>183.2</ele><time>2026-04-06T16:46:55.001Z</time></trkpt><trkpt lat="44.98049012870286" lon="8.27514543414456"><ele>184.0</ele><time>2026-04-06T16:46:56.001Z</time></trkpt><trkpt lat="44.98043578175329" lon="8.275240487711603"><ele>184.0</ele><time>2026-04-06T16:46:57.001Z</time></trkpt><trkpt lat="44.98038361407421" lon="8.275319214671843"><ele>184.0</ele><time>2026-04-06T16:46:58.001Z</time></trkpt><trkpt lat="44.980313233923376" lon="8.275428207505033"><ele>184.0</ele><time>2026-04-06T16:46:59.001Z</time></trkpt><trkpt lat="44.9802454764793" lon="8.275514903761163"><ele>184.0</ele><time>2026-04-06T16:47:00.001Z</time></trkpt><trkpt lat="44.980172183719866" lon="8.275614720192806"><ele>184.0</ele><time>2026-04-06T16:47:01.001Z</time></trkpt><trkpt lat="44.98010033891708" lon="8.275685171927707"><ele>185.39999999999998</ele><time>2026-04-06T16:47:02.001Z</time></trkpt><trkpt lat="44.980023076473906" lon="8.275771650146611"><ele>186.8</ele><time>2026-04-06T16:47:03.001Z</time></trkpt><trkpt lat="44.97994471414968" lon="8.27583945879661"><ele>188.2</ele><time>2026-04-06T16:47:04.001Z</time></trkpt><trkpt lat="44.9798625076724" lon="8.275894896088724"><ele>189.60000000000002</ele><time>2026-04-06T16:47:05.001Z</time></trkpt><trkpt lat="44.97978294262653" lon="8.275908254754949"><ele>191.0</ele><time>2026-04-06T16:47:06.001Z</time></trkpt><trkpt lat="44.979684929140625" lon="8.275906599043589"><ele>192.20000000000002</ele><time>2026-04-06T16:47:07.001Z</time></trkpt><trkpt lat="44.97958892533309" lon="8.27590676871216"><ele>193.4</ele><time>2026-04-06T16:47:08.001Z</time></trkpt><trkpt lat="44.97949665193742" lon="8.275914974444479"><ele>194.6</ele><time>2026-04-06T16:47:09.001Z</time></trkpt><trkpt lat="44.97940000448207" lon="8.275944836884774"><ele>195.8</ele><time>2026-04-06T16:47:10.001Z</time></trkpt><trkpt lat="44.979299418419465" lon="8.275972621071467"><ele>197.0</ele><time>2026-04-06T16:47:11.001Z</time></trkpt><trkpt lat="44.979202999195586" lon="8.27598220180843"><ele>197.6</ele><time>2026-04-06T16:47:12.001Z</time></trkpt><trkpt lat="44.979104680256725" lon="8.27599296572594"><ele>198.2</ele><time>2026-04-06T16:47:13.001Z</time></trkpt><trkpt lat="44.979008099654735" lon="8.275994195438312"><ele>198.8</ele><time>2026-04-06T16:47:14.001Z</time></trkpt><trkpt lat="44.97893262255335" lon="8.275989071971754"><ele>199.4</ele><time>2026-04-06T16:47:15.001Z</time></trkpt><trkpt lat="44.978856698549684" lon="8.27597875753239"><ele>200.0</ele><time>2026-04-06T16:47:16.001Z</time></trkpt><trkpt lat="44.978732241820005" lon="8.275995539368768"><ele>200.0</ele><time>2026-04-06T16:47:18.001Z</time></trkpt><trkpt lat="44.97865584804498" lon="8.276032229201599"><ele>200.0</ele><time>2026-04-06T16:47:19.001Z</time></trkpt><trkpt lat="44.97855770056281" lon="8.276094713047241"><ele>200.0</ele><time>2026-04-06T16:47:20.001Z</time></trkpt><trkpt lat="44.9784666686138" lon="8.276148169237615"><ele>200.0</ele><time>2026-04-06T16:47:21.001Z</time></trkpt><trkpt lat="44.97838488634734" lon="8.276180711443763"><ele>200.0</ele><time>2026-04-06T16:47:22.001Z</time></trkpt><trkpt lat="44.97826735892041" lon="8.276196333963203"><ele>201.00000000000003</ele><time>2026-04-06T16:47:24.001Z</time></trkpt><trkpt lat="44.978203338391616" lon="8.27617685930313"><ele>202.0</ele><time>2026-04-06T16:47:25.001Z</time></trkpt><trkpt lat="44.97812040067497" lon="8.27613375378463"><ele>203.0</ele><time>2026-04-06T16:47:26.001Z</time></trkpt><trkpt lat="44.97803387144867" lon="8.276088892063056"><ele>204.0</ele><time>2026-04-06T16:47:27.001Z</time></trkpt><trkpt lat="44.97796134262761" lon="8.276050886124443"><ele>205.00000000000003</ele><time>2026-04-06T16:47:28.001Z</time></trkpt><trkpt lat="44.97785321623504" lon="8.276005964673267"><ele>206.0</ele><time>2026-04-06T16:47:30.001Z</time></trkpt><trkpt lat="44.977797995919914" lon="8.275947209367839"><ele>206.00000000000003</ele><time>2026-04-06T16:47:32.001Z</time></trkpt><trkpt lat="44.97770743059637" lon="8.275887357607195"><ele>206.0</ele><time>2026-04-06T16:47:34.001Z</time></trkpt><trkpt lat="44.977628625543936" lon="8.275853339170995"><ele>206.0</ele><time>2026-04-06T16:47:35.001Z</time></trkpt><trkpt lat="44.97755712299543" lon="8.275833247381248"><ele>206.0</ele><time>2026-04-06T16:47:36.001Z</time></trkpt><trkpt lat="44.97745209468418" lon="8.275876238908486"><ele>206.00000000000003</ele><time>2026-04-06T16:47:38.001Z</time></trkpt><trkpt lat="44.977390826800395" lon="8.275794765418933"><ele>206.0</ele><time>2026-04-06T16:47:41.001Z</time></trkpt><trkpt lat="44.97737924498647" lon="8.275597347239703"><ele>206.33333333333334</ele><time>2026-04-06T16:47:43.001Z</time></trkpt><trkpt lat="44.977368362588656" lon="8.275455954984581"><ele>206.66666666666669</ele><time>2026-04-06T16:47:44.001Z</time></trkpt><trkpt lat="44.977358110120896" lon="8.27533905589539"><ele>207.0</ele><time>2026-04-06T16:47:45.001Z</time></trkpt><trkpt lat="44.97735664308282" lon="8.275230835000787"><ele>207.33333333333331</ele><time>2026-04-06T16:47:46.001Z</time></trkpt><trkpt lat="44.97735723172259" lon="8.275135641843196"><ele>207.66666666666666</ele><time>2026-04-06T16:47:47.001Z</time></trkpt><trkpt lat="44.97735187068146" lon="8.275046507787563"><ele>208.0</ele><time>2026-04-06T16:47:48.001Z</time></trkpt><trkpt lat="44.977349712998844" lon="8.27494927254047"><ele>208.0</ele><time>2026-04-06T16:47:49.001Z</time></trkpt><trkpt lat="44.97734734033518" lon="8.27485376833921"><ele>208.0</ele><time>2026-04-06T16:47:50.001Z</time></trkpt><trkpt lat="44.97734713135244" lon="8.274761326391296"><ele>208.0</ele><time>2026-04-06T16:47:51.001Z</time></trkpt><trkpt lat="44.977344255381624" lon="8.274650118951161"><ele>208.0</ele><time>2026-04-06T16:47:52.001Z</time></trkpt><trkpt lat="44.9773435586147" lon="8.27454303781474"><ele>208.0</ele><time>2026-04-06T16:47:53Z</time></trkpt><trkpt lat="44.97734924794617" lon="8.274442938529313"><ele>208.0</ele><time>2026-04-06T16:47:54Z</time></trkpt><trkpt lat="44.977356481500166" lon="8.274347595970157"><ele>208.0</ele><time>2026-04-06T16:47:55Z</time></trkpt><trkpt lat="44.97738388602285" lon="8.27417490792371"><ele>207.8</ele><time>2026-04-06T16:47:57Z</time></trkpt><trkpt lat="44.97740841859348" lon="8.274024113937061"><ele>207.60000000000002</ele><time>2026-04-06T16:47:59Z</time></trkpt><trkpt lat="44.977425276045665" lon="8.273932843515333"><ele>207.39999999999998</ele><time>2026-04-06T16:48:00Z</time></trkpt><trkpt lat="44.97745904100006" lon="8.273782697921684"><ele>207.2</ele><time>2026-04-06T16:48:02Z</time></trkpt><trkpt lat="44.977512306030675" lon="8.273636364970832"><ele>207.0</ele><time>2026-04-06T16:48:04Z</time></trkpt><trkpt lat="44.97757726637375" lon="8.273542005634837"><ele>205.2</ele><time>2026-04-06T16:48:06Z</time></trkpt><trkpt lat="44.97761393924609" lon="8.273467501992004"><ele>203.39999999999998</ele><time>2026-04-06T16:48:07Z</time></trkpt><trkpt lat="44.97768092280273" lon="8.273325695666651"><ele>201.60000000000002</ele><time>2026-04-06T16:48:09Z</time></trkpt><trkpt lat="44.97773416983554" lon="8.273184295372472"><ele>199.8</ele><time>2026-04-06T16:48:11Z</time></trkpt><trkpt lat="44.9777888740868" lon="8.273042462047107"><ele>198.0</ele><time>2026-04-06T16:48:13Z</time></trkpt><trkpt lat="44.97783345537793" lon="8.272933528386774"><ele>197.2</ele><time>2026-04-06T16:48:15Z</time></trkpt><trkpt lat="44.97788474925987" lon="8.2728135466421"><ele>196.4</ele><time>2026-04-06T16:48:17Z</time></trkpt><trkpt lat="44.97794501465409" lon="8.272698701225568"><ele>195.6</ele><time>2026-04-06T16:48:19Z</time></trkpt><trkpt lat="44.97801639530941" lon="8.272586743268985"><ele>194.79999999999998</ele><time>2026-04-06T16:48:21Z</time></trkpt><trkpt lat="44.9780733627125" lon="8.272436805456444"><ele>194.0</ele><time>2026-04-06T16:48:23Z</time></trkpt><trkpt lat="44.9781172461875" lon="8.272299085385592"><ele>192.0</ele><time>2026-04-06T16:48:25Z</time></trkpt><trkpt lat="44.97813525055168" lon="8.272175128307104"><ele>190.0</ele><time>2026-04-06T16:48:27Z</time></trkpt><trkpt lat="44.97816616031685" lon="8.272057546815622"><ele>188.0</ele><time>2026-04-06T16:48:30Z</time></trkpt><trkpt lat="44.97820762815429" lon="8.271960536397074"><ele>186.0</ele><time>2026-04-06T16:48:32Z</time></trkpt><trkpt lat="44.978254526404214" lon="8.271848828763572"><ele>184.0</ele><time>2026-04-06T16:48:34Z</time></trkpt><trkpt lat="44.97831021583344" lon="8.271725119828337"><ele>182.0</ele><time>2026-04-06T16:48:36Z</time></trkpt><trkpt lat="44.97836916058331" lon="8.271582402117495"><ele>180.0</ele><time>2026-04-06T16:48:38Z</time></trkpt><trkpt lat="44.97841689829782" lon="8.271454051344312"><ele>178.0</ele><time>2026-04-06T16:48:40Z</time></trkpt><trkpt lat="44.978455162599566" lon="8.271349065424674"><ele>176.0</ele><time>2026-04-06T16:48:42Z</time></trkpt><trkpt lat="44.97849695897777" lon="8.271263916794455"><ele>174.0</ele><time>2026-04-06T16:48:44Z</time></trkpt><trkpt lat="44.97853760992418" lon="8.271163436150223"><ele>173.5</ele><time>2026-04-06T16:48:46Z</time></trkpt><trkpt lat="44.97857659808852" lon="8.271090821681176"><ele>173.0</ele><time>2026-04-06T16:48:48Z</time></trkpt><trkpt lat="44.978623064509925" lon="8.270994290002236"><ele>172.5</ele><time>2026-04-06T16:48:50.001Z</time></trkpt><trkpt lat="44.97868552251907" lon="8.270879949319632"><ele>172.0</ele><time>2026-04-06T16:48:52.001Z</time></trkpt><trkpt lat="44.9787425845348" lon="8.27077485510215"><ele>171.5</ele><time>2026-04-06T16:48:54.001Z</time></trkpt><trkpt lat="44.978779924806844" lon="8.270677184905741"><ele>171.0</ele><time>2026-04-06T16:48:56.001Z</time></trkpt><trkpt lat="44.97881599054945" lon="8.270573419266565"><ele>170.60000000000002</ele><time>2026-04-06T16:48:58.001Z</time></trkpt><trkpt lat="44.9788555919974" lon="8.270409248783519"><ele>170.2</ele><time>2026-04-06T16:49:00.001Z</time></trkpt><trkpt lat="44.97887306013787" lon="8.270311763467985"><ele>169.8</ele><time>2026-04-06T16:49:01.001Z</time></trkpt><trkpt lat="44.97890367316547" lon="8.270134932297534"><ele>169.39999999999998</ele><time>2026-04-06T16:49:03.001Z</time></trkpt><trkpt lat="44.97892426541516" lon="8.270027050621941"><ele>169.0</ele><time>2026-04-06T16:49:04.001Z</time></trkpt><trkpt lat="44.97894282319661" lon="8.26993419588937"><ele>168.39999999999998</ele><time>2026-04-06T16:49:05.001Z</time></trkpt><trkpt lat="44.978962531155204" lon="8.269753622287148"><ele>167.8</ele><time>2026-04-06T16:49:07.001Z</time></trkpt><trkpt lat="44.97896598908624" lon="8.269632038375025"><ele>167.2</ele><time>2026-04-06T16:49:08.001Z</time></trkpt><trkpt lat="44.97896572540016" lon="8.269495059514838"><ele>166.60000000000002</ele><time>2026-04-06T16:49:09.001Z</time></trkpt><trkpt lat="44.97894952120134" lon="8.26937919263671"><ele>166.0</ele><time>2026-04-06T16:49:10.001Z</time></trkpt><trkpt lat="44.978948939120144" lon="8.269268718160868"><ele>166.0</ele><time>2026-04-06T16:49:11.001Z</time></trkpt><trkpt lat="44.978937185742936" lon="8.26916400585347"><ele>166.0</ele><time>2026-04-06T16:49:12.001Z</time></trkpt><trkpt lat="44.9789273691585" lon="8.269052488838586"><ele>166.0</ele><time>2026-04-06T16:49:13.001Z</time></trkpt><trkpt lat="44.97890751227844" lon="8.268961435937534"><ele>166.0</ele><time>2026-04-06T16:49:14.001Z</time></trkpt><trkpt lat="44.978892173070754" lon="8.268867748762409"><ele>166.0</ele><time>2026-04-06T16:49:15.001Z</time></trkpt><trkpt lat="44.9788727197576" lon="8.268775225952728"><ele>166.0</ele><time>2026-04-06T16:49:16.001Z</time></trkpt><trkpt lat="44.97885804472562" lon="8.26866650142739"><ele>166.0</ele><time>2026-04-06T16:49:17.001Z</time></trkpt><trkpt lat="44.978844547425204" lon="8.268543216761703"><ele>165.20000000000002</ele><time>2026-04-06T16:49:18.001Z</time></trkpt><trkpt lat="44.97883232584963" lon="8.26840709177708"><ele>164.4</ele><time>2026-04-06T16:49:19.001Z</time></trkpt><trkpt lat="44.978821309447376" lon="8.268267555364055"><ele>163.6</ele><time>2026-04-06T16:49:20.001Z</time></trkpt><trkpt lat="44.9788117550305" lon="8.268133662803134"><ele>162.8</ele><time>2026-04-06T16:49:21.001Z</time></trkpt><trkpt lat="44.97881841746747" lon="8.267998027504113"><ele>162.0</ele><time>2026-04-06T16:49:22.001Z</time></trkpt><trkpt lat="44.978786954453895" lon="8.267872829838993"><ele>161.5</ele><time>2026-04-06T16:49:23.001Z</time></trkpt><trkpt lat="44.97877784748072" lon="8.267747725181431"><ele>161.0</ele><time>2026-04-06T16:49:24.001Z</time></trkpt><trkpt lat="44.97876923642033" lon="8.267631073009717"><ele>160.5</ele><time>2026-04-06T16:49:25.001Z</time></trkpt><trkpt lat="44.97876030898188" lon="8.267501839183426"><ele>160.0</ele><time>2026-04-06T16:49:26.001Z</time></trkpt><trkpt lat="44.9787512012886" lon="8.267378502855278"><ele>159.5</ele><time>2026-04-06T16:49:27.001Z</time></trkpt><trkpt lat="44.978743758265445" lon="8.267261219394058"><ele>159.0</ele><time>2026-04-06T16:49:28.001Z</time></trkpt><trkpt lat="44.97873651059981" lon="8.267132426857392"><ele>158.8</ele><time>2026-04-06T16:49:29.001Z</time></trkpt><trkpt lat="44.978736342591276" lon="8.267008075340252"><ele>158.60000000000002</ele><time>2026-04-06T16:49:30.001Z</time></trkpt><trkpt lat="44.97873703513417" lon="8.266884481801277"><ele>158.4</ele><time>2026-04-06T16:49:31.001Z</time></trkpt><trkpt lat="44.9787524962252" lon="8.266760687310638"><ele>158.20000000000002</ele><time>2026-04-06T16:49:32.001Z</time></trkpt><trkpt lat="44.97877972223035" lon="8.26663132193681"><ele>158.0</ele><time>2026-04-06T16:49:33.001Z</time></trkpt><trkpt lat="44.978811632306595" lon="8.266489926846837"><ele>158.0</ele><time>2026-04-06T16:49:34.001Z</time></trkpt><trkpt lat="44.97883658658586" lon="8.26634153506157"><ele>158.0</ele><time>2026-04-06T16:49:35.001Z</time></trkpt><trkpt lat="44.97886176450881" lon="8.266194027080989"><ele>158.0</ele><time>2026-04-06T16:49:36.001Z</time></trkpt><trkpt lat="44.97888515396407" lon="8.266050411499307"><ele>158.0</ele><time>2026-04-06T16:49:37.001Z</time></trkpt><trkpt lat="44.97890939791807" lon="8.26590984139017"><ele>158.0</ele><time>2026-04-06T16:49:38.001Z</time></trkpt><trkpt lat="44.978932697504796" lon="8.26577935507791"><ele>158.0</ele><time>2026-04-06T16:49:39.001Z</time></trkpt><trkpt lat="44.97895554572686" lon="8.26563465354773"><ele>158.0</ele><time>2026-04-06T16:49:40.001Z</time></trkpt><trkpt lat="44.97897731273153" lon="8.265496428074965"><ele>158.0</ele><time>2026-04-06T16:49:41.001Z</time></trkpt><trkpt lat="44.97899661492967" lon="8.265352392909517"><ele>158.0</ele><time>2026-04-06T16:49:42.001Z</time></trkpt><trkpt lat="44.97902035218789" lon="8.265193646201602"><ele>158.0</ele><time>2026-04-06T16:49:43.001Z</time></trkpt><trkpt lat="44.97903678559601" lon="8.265023706056088"><ele>158.0</ele><time>2026-04-06T16:49:44.001Z</time></trkpt><trkpt lat="44.97905571975042" lon="8.26485092803274"><ele>158.0</ele><time>2026-04-06T16:49:45.001Z</time></trkpt><trkpt lat="44.97906903163873" lon="8.264688386637042"><ele>158.0</ele><time>2026-04-06T16:49:46.001Z</time></trkpt><trkpt lat="44.97907522963234" lon="8.264544082296336"><ele>158.0</ele><time>2026-04-06T16:49:47.001Z</time></trkpt><trkpt lat="44.97908426117568" lon="8.264381383011308"><ele>157.8</ele><time>2026-04-06T16:49:48.001Z</time></trkpt><trkpt lat="44.97909048323508" lon="8.264215135817448"><ele>157.60000000000002</ele><time>2026-04-06T16:49:49.001Z</time></trkpt><trkpt lat="44.97909713917517" lon="8.264075538270085"><ele>157.39999999999998</ele><time>2026-04-06T16:49:50.001Z</time></trkpt><trkpt lat="44.97910863421255" lon="8.263915542715388"><ele>157.2</ele><time>2026-04-06T16:49:51.001Z</time></trkpt><trkpt lat="44.97911783423288" lon="8.26377110307794"><ele>157.0</ele><time>2026-04-06T16:49:52.001Z</time></trkpt><trkpt lat="44.97913190514276" lon="8.263628255100738"><ele>156.79999999999998</ele><time>2026-04-06T16:49:53.001Z</time></trkpt><trkpt lat="44.97915528263134" lon="8.263477623534564"><ele>156.6</ele><time>2026-04-06T16:49:54.001Z</time></trkpt><trkpt lat="44.97918231812799" lon="8.26333069626879"><ele>156.39999999999998</ele><time>2026-04-06T16:49:55.001Z</time></trkpt><trkpt lat="44.979207620366935" lon="8.263187693970668"><ele>156.2</ele><time>2026-04-06T16:49:56.001Z</time></trkpt><trkpt lat="44.97922822908723" lon="8.263029603582526"><ele>156.0</ele><time>2026-04-06T16:49:57.001Z</time></trkpt><trkpt lat="44.97925874748972" lon="8.262882573993473"><ele>155.75</ele><time>2026-04-06T16:49:58.001Z</time></trkpt><trkpt lat="44.97927170957344" lon="8.262739441835501"><ele>155.5</ele><time>2026-04-06T16:49:59Z</time></trkpt><trkpt lat="44.97928162708591" lon="8.262580843561787"><ele>155.25</ele><time>2026-04-06T16:50:00Z</time></trkpt><trkpt lat="44.9793027806002" lon="8.262408788663572"><ele>155.0</ele><time>2026-04-06T16:50:01Z</time></trkpt><trkpt lat="44.979328463768404" lon="8.262248805835622"><ele>155.0</ele><time>2026-04-06T16:50:02Z</time></trkpt><trkpt lat="44.97935257922894" lon="8.262104255878766"><ele>155.0</ele><time>2026-04-06T16:50:03Z</time></trkpt><trkpt lat="44.97937307350406" lon="8.261956682254342"><ele>155.0</ele><time>2026-04-06T16:50:04Z</time></trkpt><trkpt lat="44.97939835728496" lon="8.261833373999592"><ele>155.0</ele><time>2026-04-06T16:50:05Z</time></trkpt><trkpt lat="44.979424488243964" lon="8.261701091024408"><ele>155.0</ele><time>2026-04-06T16:50:06Z</time></trkpt><trkpt lat="44.979446837880396" lon="8.261581273996637"><ele>155.0</ele><time>2026-04-06T16:50:07Z</time></trkpt><trkpt lat="44.97946322690199" lon="8.261461290083156"><ele>155.0</ele><time>2026-04-06T16:50:08Z</time></trkpt><trkpt lat="44.97947961178865" lon="8.261344301902378"><ele>155.0</ele><time>2026-04-06T16:50:09Z</time></trkpt><trkpt lat="44.97949880776016" lon="8.261255162036786"><ele>155.0</ele><time>2026-04-06T16:50:10Z</time></trkpt><trkpt lat="44.97953843000324" lon="8.26115618916174"><ele>155.0</ele><time>2026-04-06T16:50:11Z</time></trkpt><trkpt lat="44.97958227615354" lon="8.261035030101404"><ele>155.0</ele><time>2026-04-06T16:50:12Z</time></trkpt><trkpt lat="44.979610925245694" lon="8.260893054940446"><ele>154.25</ele><time>2026-04-06T16:50:13Z</time></trkpt><trkpt lat="44.979626639350116" lon="8.260730285725732"><ele>153.5</ele><time>2026-04-06T16:50:14Z</time></trkpt><trkpt lat="44.97963836646341" lon="8.26054922352198"><ele>152.75</ele><time>2026-04-06T16:50:15Z</time></trkpt><trkpt lat="44.9796455120825" lon="8.260365325418999"><ele>152.0</ele><time>2026-04-06T16:50:16Z</time></trkpt><trkpt lat="44.979650206816274" lon="8.260190916389245"><ele>152.0</ele><time>2026-04-06T16:50:17Z</time></trkpt><trkpt lat="44.97965364509659" lon="8.260037245049103"><ele>152.0</ele><time>2026-04-06T16:50:18Z</time></trkpt><trkpt lat="44.97965838656383" lon="8.259898183377288"><ele>152.0</ele><time>2026-04-06T16:50:19Z</time></trkpt><trkpt lat="44.97966639514326" lon="8.259777753123142"><ele>152.0</ele><time>2026-04-06T16:50:20Z</time></trkpt><trkpt lat="44.97967422267781" lon="8.259678330593703"><ele>152.0</ele><time>2026-04-06T16:50:21Z</time></trkpt><trkpt lat="44.97968679777709" lon="8.259555848881142"><ele>152.0</ele><time>2026-04-06T16:50:23Z</time></trkpt><trkpt lat="44.979777074910785" lon="8.259546788719659"><ele>152.0</ele><time>2026-04-06T16:50:26Z</time></trkpt><trkpt lat="44.97983009180295" lon="8.259606641962806"><ele>152.0</ele><time>2026-04-06T16:50:27Z</time></trkpt><trkpt lat="44.97989723205945" lon="8.259705429463764"><ele>152.0</ele><time>2026-04-06T16:50:28Z</time></trkpt><trkpt lat="44.97996608412289" lon="8.259796990688724"><ele>152.0</ele><time>2026-04-06T16:50:29Z</time></trkpt><trkpt lat="44.98004737742523" lon="8.259897696158331"><ele>151.5</ele><time>2026-04-06T16:50:30Z</time></trkpt><trkpt lat="44.98014417906293" lon="8.260007216973095"><ele>151.0</ele><time>2026-04-06T16:50:31Z</time></trkpt><trkpt lat="44.98024460697529" lon="8.260118513829315"><ele>150.5</ele><time>2026-04-06T16:50:32Z</time></trkpt><trkpt lat="44.9803623187795" lon="8.260217345169906"><ele>150.0</ele><time>2026-04-06T16:50:33Z</time></trkpt><trkpt lat="44.98048788320245" lon="8.26029978940667"><ele>150.0</ele><time>2026-04-06T16:50:34Z</time></trkpt><trkpt lat="44.98062344243037" lon="8.2603753990508"><ele>150.0</ele><time>2026-04-06T16:50:35Z</time></trkpt><trkpt lat="44.98076190275836" lon="8.26044825968847"><ele>150.0</ele><time>2026-04-06T16:50:36Z</time></trkpt><trkpt lat="44.980898180449316" lon="8.26052694723725"><ele>150.0</ele><time>2026-04-06T16:50:37Z</time></trkpt><trkpt lat="44.98101580242198" lon="8.260601220178012"><ele>151.8</ele><time>2026-04-06T16:50:38Z</time></trkpt><trkpt lat="44.981120342186536" lon="8.260669703393496"><ele>153.6</ele><time>2026-04-06T16:50:39Z</time></trkpt><trkpt lat="44.981214342860234" lon="8.26072655819432"><ele>155.4</ele><time>2026-04-06T16:50:40Z</time></trkpt><trkpt lat="44.98130403063469" lon="8.260776216027612"><ele>157.2</ele><time>2026-04-06T16:50:41Z</time></trkpt><trkpt lat="44.981383532850515" lon="8.26081673496431"><ele>159.0</ele><time>2026-04-06T16:50:42Z</time></trkpt><trkpt lat="44.98146116333252" lon="8.260820877889529"><ele>159.0</ele><time>2026-04-06T16:50:43Z</time></trkpt><trkpt lat="44.981531243491375" lon="8.260778005949419"><ele>159.0</ele><time>2026-04-06T16:50:44Z</time></trkpt><trkpt lat="44.981587333790365" lon="8.26069506101207"><ele>159.0</ele><time>2026-04-06T16:50:45Z</time></trkpt><trkpt lat="44.981621493053176" lon="8.260598546245898"><ele>159.0</ele><time>2026-04-06T16:50:46Z</time></trkpt><trkpt lat="44.98164919443804" lon="8.260487055615272"><ele>159.0</ele><time>2026-04-06T16:50:47Z</time></trkpt><trkpt lat="44.981688683489416" lon="8.260347758737481"><ele>159.0</ele><time>2026-04-06T16:50:48Z</time></trkpt><trkpt lat="44.98174844533414" lon="8.260208978270766"><ele>158.6</ele><time>2026-04-06T16:50:49Z</time></trkpt><trkpt lat="44.98182873082469" lon="8.260081591683445"><ele>158.2</ele><time>2026-04-06T16:50:50.001Z</time></trkpt><trkpt lat="44.981912318011936" lon="8.25996432690634"><ele>157.79999999999998</ele><time>2026-04-06T16:50:51.001Z</time></trkpt><trkpt lat="44.981977693000665" lon="8.25984766744963"><ele>157.4</ele><time>2026-04-06T16:50:52.001Z</time></trkpt><trkpt lat="44.98202011422091" lon="8.259712784571281"><ele>157.0</ele><time>2026-04-06T16:50:53.001Z</time></trkpt><trkpt lat="44.982052143899956" lon="8.25957774387006"><ele>156.2</ele><time>2026-04-06T16:50:54.001Z</time></trkpt><trkpt lat="44.98209257456548" lon="8.259447594740585"><ele>155.39999999999998</ele><time>2026-04-06T16:50:55.001Z</time></trkpt><trkpt lat="44.98214652247332" lon="8.259339777640182"><ele>154.60000000000002</ele><time>2026-04-06T16:50:56.001Z</time></trkpt><trkpt lat="44.98222768102139" lon="8.259246265081945"><ele>153.8</ele><time>2026-04-06T16:50:57.001Z</time></trkpt><trkpt lat="44.98233760368872" lon="8.259161685865488"><ele>153.0</ele><time>2026-04-06T16:50:58.001Z</time></trkpt><trkpt lat="44.9824318484606" lon="8.259092824747318"><ele>153.75</ele><time>2026-04-06T16:50:59.001Z</time></trkpt><trkpt lat="44.98254852838717" lon="8.25902032504528"><ele>154.5</ele><time>2026-04-06T16:51:00.001Z</time></trkpt><trkpt lat="44.98267967529128" lon="8.258950932522568"><ele>155.25</ele><time>2026-04-06T16:51:01.001Z</time></trkpt><trkpt lat="44.9828049996056" lon="8.258885531121036"><ele>156.0</ele><time>2026-04-06T16:51:02.001Z</time></trkpt><trkpt lat="44.98290404595106" lon="8.258808384706349"><ele>156.5</ele><time>2026-04-06T16:51:03.001Z</time></trkpt><trkpt lat="44.983011123680136" lon="8.258751699958326"><ele>157.0</ele><time>2026-04-06T16:51:04.001Z</time></trkpt><trkpt lat="44.98311762732418" lon="8.258701421830681"><ele>157.5</ele><time>2026-04-06T16:51:05.001Z</time></trkpt><trkpt lat="44.98323262043481" lon="8.258659289388643"><ele>158.0</ele><time>2026-04-06T16:51:06.001Z</time></trkpt><trkpt lat="44.98334718544261" lon="8.25862315815695"><ele>156.75</ele><time>2026-04-06T16:51:07.001Z</time></trkpt><trkpt lat="44.98345730499198" lon="8.25860376619121"><ele>155.5</ele><time>2026-04-06T16:51:08.001Z</time></trkpt><trkpt lat="44.983568173529285" lon="8.258614154731072"><ele>154.25</ele><time>2026-04-06T16:51:09.001Z</time></trkpt><trkpt lat="44.98368030722813" lon="8.258651789505842"><ele>153.0</ele><time>2026-04-06T16:51:10.001Z</time></trkpt><trkpt lat="44.98379242853642" lon="8.258711039434488"><ele>153.0</ele><time>2026-04-06T16:51:11.001Z</time></trkpt><trkpt lat="44.983907641395504" lon="8.258778371337295"><ele>153.0</ele><time>2026-04-06T16:51:12.001Z</time></trkpt><trkpt lat="44.98402530607876" lon="8.258838158371853"><ele>153.0</ele><time>2026-04-06T16:51:13.001Z</time></trkpt><trkpt lat="44.98414956482377" lon="8.258884185260358"><ele>153.0</ele><time>2026-04-06T16:51:14.001Z</time></trkpt><trkpt lat="44.984278958715436" lon="8.258929346038121"><ele>153.75</ele><time>2026-04-06T16:51:15.001Z</time></trkpt><trkpt lat="44.98441009165415" lon="8.25897341451404"><ele>154.5</ele><time>2026-04-06T16:51:16.001Z</time></trkpt><trkpt lat="44.984543282347445" lon="8.259011398934726"><ele>155.25</ele><time>2026-04-06T16:51:17.001Z</time></trkpt><trkpt lat="44.98467710469539" lon="8.259046296884891"><ele>156.0</ele><time>2026-04-06T16:51:18.001Z</time></trkpt><trkpt lat="44.984806985063706" lon="8.259082754013093"><ele>156.0</ele><time>2026-04-06T16:51:19.001Z</time></trkpt><trkpt lat="44.984937799491696" lon="8.25911492983696"><ele>156.0</ele><time>2026-04-06T16:51:20.001Z</time></trkpt><trkpt lat="44.985058362560196" lon="8.259140921331772"><ele>156.0</ele><time>2026-04-06T16:51:21.001Z</time></trkpt><trkpt lat="44.98516644674084" lon="8.259168709363493"><ele>156.0</ele><time>2026-04-06T16:51:22.001Z</time></trkpt><trkpt lat="44.98525982640349" lon="8.259195718295238"><ele>157.0</ele><time>2026-04-06T16:51:23.001Z</time></trkpt><trkpt lat="44.98534854386076" lon="8.25923418541108"><ele>158.0</ele><time>2026-04-06T16:51:24.001Z</time></trkpt><trkpt lat="44.9854416681451" lon="8.259255099223775"><ele>159.0</ele><time>2026-04-06T16:51:25.001Z</time></trkpt><trkpt lat="44.9855395885556" lon="8.259226963013612"><ele>160.0</ele><time>2026-04-06T16:51:26.001Z</time></trkpt><trkpt lat="44.98565330826182" lon="8.259211781888553"><ele>161.0</ele><time>2026-04-06T16:51:27.001Z</time></trkpt><trkpt lat="44.98576327364889" lon="8.259205378082974"><ele>161.60000000000002</ele><time>2026-04-06T16:51:28.001Z</time></trkpt><trkpt lat="44.985876903769544" lon="8.259198917529536"><ele>162.2</ele><time>2026-04-06T16:51:29.001Z</time></trkpt><trkpt lat="44.985988972701435" lon="8.259184018243738"><ele>162.8</ele><time>2026-04-06T16:51:30.001Z</time></trkpt><trkpt lat="44.986100789165086" lon="8.259166218276269"><ele>163.39999999999998</ele><time>2026-04-06T16:51:31.001Z</time></trkpt><trkpt lat="44.98621003917012" lon="8.259146537072596"><ele>164.0</ele><time>2026-04-06T16:51:32.001Z</time></trkpt><trkpt lat="44.98633094325454" lon="8.259123456252533"><ele>164.0</ele><time>2026-04-06T16:51:33.001Z</time></trkpt><trkpt lat="44.9864491683954" lon="8.259105466311404"><ele>164.0</ele><time>2026-04-06T16:51:34.001Z</time></trkpt><trkpt lat="44.98656264641321" lon="8.2590857637638"><ele>164.0</ele><time>2026-04-06T16:51:35.001Z</time></trkpt><trkpt lat="44.98667577075829" lon="8.259059531736257"><ele>164.0</ele><time>2026-04-06T16:51:36.001Z</time></trkpt><trkpt lat="44.986781152265344" lon="8.259046645919469"><ele>164.2</ele><time>2026-04-06T16:51:37.001Z</time></trkpt><trkpt lat="44.9868817325544" lon="8.259023275564273"><ele>164.39999999999998</ele><time>2026-04-06T16:51:38.001Z</time></trkpt><trkpt lat="44.986987956435264" lon="8.25899616607846"><ele>164.6</ele><time>2026-04-06T16:51:39.001Z</time></trkpt><trkpt lat="44.98708073962366" lon="8.25898751446112"><ele>164.8</ele><time>2026-04-06T16:51:40.001Z</time></trkpt><trkpt lat="44.98717854073864" lon="8.258963850072371"><ele>165.0</ele><time>2026-04-06T16:51:41.001Z</time></trkpt><trkpt lat="44.98728345581797" lon="8.25893808531814"><ele>164.6</ele><time>2026-04-06T16:51:42.001Z</time></trkpt><trkpt lat="44.98738445458144" lon="8.258914754422426"><ele>164.2</ele><time>2026-04-06T16:51:43.001Z</time></trkpt><trkpt lat="44.98749573120088" lon="8.25887831071233"><ele>163.8</ele><time>2026-04-06T16:51:44.001Z</time></trkpt><trkpt lat="44.9875974484907" lon="8.25885660729959"><ele>163.4</ele><time>2026-04-06T16:51:45.001Z</time></trkpt><trkpt lat="44.98769566250502" lon="8.258829020987877"><ele>163.0</ele><time>2026-04-06T16:51:46.001Z</time></trkpt><trkpt lat="44.98779386806403" lon="8.258811555017703"><ele>163.0</ele><time>2026-04-06T16:51:47.001Z</time></trkpt><trkpt lat="44.98788915316109" lon="8.258785516677067"><ele>163.0</ele><time>2026-04-06T16:51:48.001Z</time></trkpt><trkpt lat="44.9879816737403" lon="8.258777879271806"><ele>163.0</ele><time>2026-04-06T16:51:49.001Z</time></trkpt><trkpt lat="44.988064230250004" lon="8.258760505800222"><ele>163.0</ele><time>2026-04-06T16:51:50.001Z</time></trkpt><trkpt lat="44.98814888757226" lon="8.258740836906725"><ele>163.0</ele><time>2026-04-06T16:51:51.001Z</time></trkpt><trkpt lat="44.988216171154946" lon="8.258736302814123"><ele>163.0</ele><time>2026-04-06T16:51:52.001Z</time></trkpt><trkpt lat="44.988334692347046" lon="8.258707696716757"><ele>163.8</ele><time>2026-04-06T16:51:54.001Z</time></trkpt><trkpt lat="44.98843497267703" lon="8.258677485022597"><ele>164.60000000000002</ele><time>2026-04-06T16:51:56.001Z</time></trkpt><trkpt lat="44.98852088457704" lon="8.25866359158288"><ele>165.39999999999998</ele><time>2026-04-06T16:51:58.001Z</time></trkpt><trkpt lat="44.988641772355784" lon="8.25863202451134"><ele>166.2</ele><time>2026-04-06T16:52:00.002Z</time></trkpt><trkpt lat="44.988764403512306" lon="8.258590413949811"><ele>167.0</ele><time>2026-04-06T16:52:02.002Z</time></trkpt><trkpt lat="44.98888496685847" lon="8.258555781925327"><ele>167.0</ele><time>2026-04-06T16:52:04.002Z</time></trkpt><trkpt lat="44.989000222988636" lon="8.25851732217714"><ele>167.0</ele><time>2026-04-06T16:52:06Z</time></trkpt><trkpt lat="44.989122937572304" lon="8.258483319594282"><ele>167.0</ele><time>2026-04-06T16:52:08Z</time></trkpt><trkpt lat="44.9891888336527" lon="8.25845966480733"><ele>167.0</ele><time>2026-04-06T16:52:09Z</time></trkpt><trkpt lat="44.98925073794474" lon="8.258438178072174"><ele>167.0</ele><time>2026-04-06T16:52:10Z</time></trkpt><trkpt lat="44.98933921709023" lon="8.25840583751825"><ele>167.66666666666666</ele><time>2026-04-06T16:52:12Z</time></trkpt><trkpt lat="44.98940919612049" lon="8.25838224625853"><ele>168.33333333333331</ele><time>2026-04-06T16:52:14Z</time></trkpt><trkpt lat="44.98948585895552" lon="8.258355783654094"><ele>169.0</ele><time>2026-04-06T16:52:16Z</time></trkpt><trkpt lat="44.98958558555518" lon="8.258312740888572"><ele>169.66666666666666</ele><time>2026-04-06T16:52:18Z</time></trkpt><trkpt lat="44.989680420877164" lon="8.25827855147449"><ele>170.33333333333334</ele><time>2026-04-06T16:52:20Z</time></trkpt><trkpt lat="44.9897641338735" lon="8.258231895687997"><ele>171.0</ele><time>2026-04-06T16:52:22Z</time></trkpt><trkpt lat="44.989835185375775" lon="8.258174485340785"><ele>171.0</ele><time>2026-04-06T16:52:24Z</time></trkpt><trkpt lat="44.98991584466492" lon="8.258140458840382"><ele>171.0</ele><time>2026-04-06T16:52:26Z</time></trkpt><trkpt lat="44.99002148810362" lon="8.258101551973311"><ele>171.0</ele><time>2026-04-06T16:52:28Z</time></trkpt><trkpt lat="44.990142668353826" lon="8.258059915549556"><ele>171.0</ele><time>2026-04-06T16:52:30Z</time></trkpt><trkpt lat="44.9902175610633" lon="8.258047603560982"><ele>171.0</ele><time>2026-04-06T16:52:31Z</time></trkpt><trkpt lat="44.99029562738612" lon="8.258035501155852"><ele>171.25</ele><time>2026-04-06T16:52:32Z</time></trkpt><trkpt lat="44.99037937461868" lon="8.25802511690284"><ele>171.5</ele><time>2026-04-06T16:52:33Z</time></trkpt><trkpt lat="44.99049228741402" lon="8.258014308675254"><ele>171.75</ele><time>2026-04-06T16:52:34Z</time></trkpt><trkpt lat="44.99062499501057" lon="8.258008648588982"><ele>172.0</ele><time>2026-04-06T16:52:35Z</time></trkpt><trkpt lat="44.990777629376" lon="8.258005400517334"><ele>172.5</ele><time>2026-04-06T16:52:36Z</time></trkpt><trkpt lat="44.990911818707396" lon="8.258007383758237"><ele>173.0</ele><time>2026-04-06T16:52:37Z</time></trkpt><trkpt lat="44.99104786956022" lon="8.258012574160709"><ele>173.5</ele><time>2026-04-06T16:52:38Z</time></trkpt><trkpt lat="44.991169909416975" lon="8.258006563291298"><ele>174.0</ele><time>2026-04-06T16:52:39Z</time></trkpt><trkpt lat="44.9912912324289" lon="8.257997417614057"><ele>174.0</ele><time>2026-04-06T16:52:40Z</time></trkpt><trkpt lat="44.99140930824176" lon="8.257983288836556"><ele>174.0</ele><time>2026-04-06T16:52:41Z</time></trkpt><trkpt lat="44.991528351482124" lon="8.257956790985697"><ele>174.0</ele><time>2026-04-06T16:52:42Z</time></trkpt><trkpt lat="44.991646834693306" lon="8.257919609079227"><ele>174.0</ele><time>2026-04-06T16:52:43Z</time></trkpt><trkpt lat="44.991760472446785" lon="8.257881715427697"><ele>175.0</ele><time>2026-04-06T16:52:44Z</time></trkpt><trkpt lat="44.99188962958178" lon="8.257852596705348"><ele>176.0</ele><time>2026-04-06T16:52:45Z</time></trkpt><trkpt lat="44.992007107873775" lon="8.257825012693933"><ele>177.0</ele><time>2026-04-06T16:52:46Z</time></trkpt><trkpt lat="44.99211172395563" lon="8.257800803793476"><ele>178.0</ele><time>2026-04-06T16:52:47Z</time></trkpt><trkpt lat="44.99221190535911" lon="8.257776610463328"><ele>178.0</ele><time>2026-04-06T16:52:48Z</time></trkpt><trkpt lat="44.992308991630914" lon="8.257762038905879"><ele>178.0</ele><time>2026-04-06T16:52:49Z</time></trkpt><trkpt lat="44.992399779646895" lon="8.257753160623212"><ele>178.0</ele><time>2026-04-06T16:52:50Z</time></trkpt><trkpt lat="44.99249250584168" lon="8.257755482001103"><ele>178.0</ele><time>2026-04-06T16:52:51Z</time></trkpt><trkpt lat="44.992594954835965" lon="8.25777213370489"><ele>178.0</ele><time>2026-04-06T16:52:52Z</time></trkpt><trkpt lat="44.99271842746642" lon="8.257792017117461"><ele>178.25</ele><time>2026-04-06T16:52:53Z</time></trkpt><trkpt lat="44.99285183077546" lon="8.257823443611775"><ele>178.5</ele><time>2026-04-06T16:52:54Z</time></trkpt><trkpt lat="44.992979069922626" lon="8.257846625082918"><ele>178.75</ele><time>2026-04-06T16:52:55.001Z</time></trkpt><trkpt lat="44.993106810717826" lon="8.257839314936168"><ele>179.0</ele><time>2026-04-06T16:52:56.001Z</time></trkpt><trkpt lat="44.993260542707795" lon="8.257815432581292"><ele>180.33333333333331</ele><time>2026-04-06T16:52:57.001Z</time></trkpt><trkpt lat="44.9934266627784" lon="8.257793890828998"><ele>181.66666666666666</ele><time>2026-04-06T16:52:58.001Z</time></trkpt><trkpt lat="44.99358028746382" lon="8.257783007971502"><ele>183.0</ele><time>2026-04-06T16:52:59.001Z</time></trkpt><trkpt lat="44.99371761852634" lon="8.257779569230436"><ele>183.0</ele><time>2026-04-06T16:53:00.001Z</time></trkpt><trkpt lat="44.993844377248465" lon="8.25777517706481"><ele>183.0</ele><time>2026-04-06T16:53:01.001Z</time></trkpt><trkpt lat="44.99395080637439" lon="8.257770611067018"><ele>183.0</ele><time>2026-04-06T16:53:02.001Z</time></trkpt><trkpt lat="44.99404679276044" lon="8.257774982103554"><ele>183.0</ele><time>2026-04-06T16:53:03.001Z</time></trkpt><trkpt lat="44.99414290088686" lon="8.257801012513093"><ele>183.0</ele><time>2026-04-06T16:53:04.001Z</time></trkpt><trkpt lat="44.99423830918674" lon="8.257853943462132"><ele>183.75</ele><time>2026-04-06T16:53:05.001Z</time></trkpt><trkpt lat="44.99433880081278" lon="8.257930252646338"><ele>184.5</ele><time>2026-04-06T16:53:06.001Z</time></trkpt><trkpt lat="44.99444190720563" lon="8.258026545567285"><ele>185.25</ele><time>2026-04-06T16:53:07.001Z</time></trkpt><trkpt lat="44.99455980352788" lon="8.258149013035293"><ele>186.0</ele><time>2026-04-06T16:53:08.001Z</time></trkpt><trkpt lat="44.994681525862504" lon="8.258292648439532"><ele>186.0</ele><time>2026-04-06T16:53:09.001Z</time></trkpt><trkpt lat="44.99479271391499" lon="8.25843557801091"><ele>186.0</ele><time>2026-04-06T16:53:10.001Z</time></trkpt><trkpt lat="44.99488864018476" lon="8.258561095673363"><ele>186.0</ele><time>2026-04-06T16:53:11.001Z</time></trkpt><trkpt lat="44.99498884277917" lon="8.258696155269863"><ele>186.0</ele><time>2026-04-06T16:53:12.001Z</time></trkpt><trkpt lat="44.99509136527794" lon="8.258832000937259"><ele>187.0</ele><time>2026-04-06T16:53:13.001Z</time></trkpt><trkpt lat="44.995183339386" lon="8.258950254726123"><ele>188.0</ele><time>2026-04-06T16:53:14.001Z</time></trkpt><trkpt lat="44.995266195611116" lon="8.259055092426522"><ele>189.0</ele><time>2026-04-06T16:53:15.001Z</time></trkpt><trkpt lat="44.99534525230506" lon="8.259148294561994"><ele>190.0</ele><time>2026-04-06T16:53:16.001Z</time></trkpt><trkpt lat="44.995414556405926" lon="8.259245124255703"><ele>191.0</ele><time>2026-04-06T16:53:17.001Z</time></trkpt><trkpt lat="44.995486601650484" lon="8.259352296837088"><ele>192.0</ele><time>2026-04-06T16:53:18.001Z</time></trkpt><trkpt lat="44.995566546811396" lon="8.259425726516065"><ele>193.0</ele><time>2026-04-06T16:53:19.001Z</time></trkpt><trkpt lat="44.99565737366442" lon="8.25950106375897"><ele>194.0</ele><time>2026-04-06T16:53:20.001Z</time></trkpt><trkpt lat="44.995747550549474" lon="8.259565970726175"><ele>195.0</ele><time>2026-04-06T16:53:21.001Z</time></trkpt><trkpt lat="44.99584113230359" lon="8.259635936771424"><ele>196.0</ele><time>2026-04-06T16:53:22.001Z</time></trkpt><trkpt lat="44.99592367975854" lon="8.259686235303114"><ele>196.16666666666666</ele><time>2026-04-06T16:53:23.001Z</time></trkpt><trkpt lat="44.995982338154136" lon="8.259733261534398"><ele>196.33333333333331</ele><time>2026-04-06T16:53:24.001Z</time></trkpt><trkpt lat="44.996046559710784" lon="8.259776378069379"><ele>196.5</ele><time>2026-04-06T16:53:26.001Z</time></trkpt><trkpt lat="44.99603101322613" lon="8.259869271481032"><ele>196.66666666666669</ele><time>2026-04-06T17:01:35.001Z</time></trkpt><trkpt lat="44.99595268384725" lon="8.260013015770104"><ele>196.83333333333334</ele><time>2026-04-06T17:01:37.001Z</time></trkpt><trkpt lat="44.99590535152243" lon="8.2601348936557"><ele>197.0</ele><time>2026-04-06T17:01:38.001Z</time></trkpt><trkpt lat="44.99586844665397" lon="8.26027447663248"><ele>197.0</ele><time>2026-04-06T17:01:39.001Z</time></trkpt><trkpt lat="44.99582552485578" lon="8.260451521457291"><ele>197.0</ele><time>2026-04-06T17:01:40.001Z</time></trkpt><trkpt lat="44.995773586315764" lon="8.26063966759946"><ele>197.0</ele><time>2026-04-06T17:01:41.001Z</time></trkpt><trkpt lat="44.99571658433992" lon="8.260829657941674"><ele>197.0</ele><time>2026-04-06T17:01:42.001Z</time></trkpt><trkpt lat="44.995665908867245" lon="8.261003156840745"><ele>199.25</ele><time>2026-04-06T17:01:43.001Z</time></trkpt><trkpt lat="44.995615317509994" lon="8.261178817664696"><ele>201.5</ele><time>2026-04-06T17:01:44.001Z</time></trkpt><trkpt lat="44.99557103345443" lon="8.261352358814708"><ele>203.75</ele><time>2026-04-06T17:01:45.001Z</time></trkpt><trkpt lat="44.99552569888224" lon="8.26151151048207"><ele>206.0</ele><time>2026-04-06T17:01:46.001Z</time></trkpt><trkpt lat="44.995466866815136" lon="8.261673591584044"><ele>207.5</ele><time>2026-04-06T17:01:47.001Z</time></trkpt><trkpt lat="44.99541276935971" lon="8.26184862136798"><ele>209.0</ele><time>2026-04-06T17:01:48.001Z</time></trkpt><trkpt lat="44.99536686003831" lon="8.26204572838264"><ele>210.5</ele><time>2026-04-06T17:01:49.001Z</time></trkpt><trkpt lat="44.99532061214664" lon="8.262243523149245"><ele>212.0</ele><time>2026-04-06T17:01:50.001Z</time></trkpt><trkpt lat="44.99528338854753" lon="8.262396112571285"><ele>213.39999999999998</ele><time>2026-04-06T17:01:51.001Z</time></trkpt><trkpt lat="44.99523075235728" lon="8.262560217513917"><ele>214.79999999999998</ele><time>2026-04-06T17:01:52.001Z</time></trkpt><trkpt lat="44.995181326587236" lon="8.2627050843683"><ele>216.2</ele><time>2026-04-06T17:01:53.001Z</time></trkpt><trkpt lat="44.995149156745164" lon="8.262826192090559"><ele>217.6</ele><time>2026-04-06T17:01:54.001Z</time></trkpt><trkpt lat="44.995120864197766" lon="8.262925609693365"><ele>219.0</ele><time>2026-04-06T17:01:55.001Z</time></trkpt><trkpt lat="44.995064268883276" lon="8.263052941516783"><ele>219.0</ele><time>2026-04-06T17:01:57.001Z</time></trkpt><trkpt lat="44.99496998463859" lon="8.263034003725132"><ele>226.0</ele><time>2026-04-06T17:02:02.001Z</time></trkpt><trkpt lat="44.99492796766674" lon="8.262967613158358"><ele>226.0</ele><time>2026-04-06T17:02:04.001Z</time></trkpt></trkseg></trk></gpx>